Date StartTime U_cm/s V_cm/s W_cm/s Ustd_cm/s Vstd_cm/s Wstd_cm/s Uvar_(cm/s)^2 Vvar_(cm/s)^2 Wvar_(cm/s)^2 KE_(m/s)^2 TurbulentKE_(m/s)^2 HorizWindSpeed_cm/s FrictionSpeec_cm/s DragCoef SpeedOfSound_m/s SonicTemperature_C Pressure_mb 
10/28/2013  00:00:00     -148.281      200.810      -32.556       66.671       92.780       41.845     4445.082     8608.060     1751.008        3.909        0.740      249.624       45.975        0.034      333.826        3.391      846.669
10/28/2013  00:01:00     -117.079      147.489      -17.199       86.282       64.672       44.611     7444.635     4182.407     1990.139        2.468        0.681      188.310       30.448        0.026      333.848        3.430      846.632
10/28/2013  00:02:00     -156.050      142.308      -27.613       75.072       95.256       45.289     5635.741     9073.611     2051.128        3.106        0.838      211.195       51.495        0.059      333.829        3.398      846.607
10/28/2013  00:03:00     -160.010      239.708      -38.027       64.520       83.760       47.911     4162.770     7015.676     2295.462        4.899        0.674      288.207       34.913        0.015      333.821        3.384      846.591
10/28/2013  00:04:00      -96.857      140.630      -19.388       85.386       96.640       48.656     7290.769     9339.286     2367.453        2.426        0.950      170.757       62.886        0.136      333.842        3.420      846.580
10/28/2013  00:05:00      -81.463       96.716      -14.380       58.129       68.181       33.427     3378.961     4648.707     1117.376        1.267        0.457      126.452       32.172        0.065      333.953        3.606      846.565
10/28/2013  00:06:00      -64.292      192.112      -14.889       50.553      110.943       39.979     2555.632    12308.319     1598.296        2.886        0.823      202.585       44.044        0.047      333.888        3.496      846.566
10/28/2013  00:07:00      -69.720      128.877      -16.009       48.685       66.476       35.581     2370.204     4418.995     1266.041        1.489        0.403      146.527       33.448        0.052      333.954        3.607      846.558
10/28/2013  00:08:00      -90.036      245.694      -21.429       65.769       75.799       47.602     4325.548     5745.512     2265.992        4.063        0.617      261.671       29.956        0.013      333.965        3.623      846.546
10/28/2013  00:09:00      -86.959      187.039      -20.205       44.713       76.960       37.875     1999.294     5922.795     1434.490        2.615        0.468      206.266       28.018        0.018      333.950        3.599      846.543
10/28/2013  00:10:00      -48.859      148.284      -15.109       47.679       93.076       36.079     2273.287     8663.231     1301.675        1.842        0.612      156.126       43.512        0.078      333.943        3.588      846.542
10/28/2013  00:11:00      -10.109      159.487      -11.992       28.339       74.956       28.692      803.087     5618.391      823.215        1.646        0.362      159.807       36.421        0.052      333.931        3.569      846.553
10/28/2013  00:12:00      -35.550      119.429       -7.535       65.391       38.572       27.068     4275.964     1487.810      732.655        1.104        0.325      124.608       26.665        0.046      333.930        3.569      846.556
10/28/2013  00:13:00      -38.328      108.340      -11.040       33.482       38.912       27.606     1121.015     1514.106      762.102        0.836        0.170      114.920       21.624        0.035      333.940        3.584      846.539
10/28/2013  00:14:00        7.411      106.662       -4.416       34.567       52.638       31.390     1194.901     2770.734      985.302        0.820        0.248      106.919       20.765        0.038      333.990        3.668      846.539
10/28/2013  00:15:00      -37.104       92.781       -2.315       41.994       44.502       28.607     1763.481     1980.434      818.355        0.728        0.228       99.926       21.876        0.048      334.015        3.711      846.545
10/28/2013  00:16:00       -9.549       32.532        6.606       33.884       49.038       22.524     1148.119     2404.753      507.338        0.263        0.203       33.905       23.116        0.465      333.982        3.655      846.543
10/28/2013  00:17:00       14.279       59.885        0.601       24.044       41.931       23.878      578.121     1758.193      570.158        0.335        0.145       61.564       18.688        0.092      333.904        3.526      846.542
10/28/2013  00:18:00        9.750       12.332       19.017       35.096       19.304       16.880     1231.751      372.634      284.927        0.125        0.094       15.721       12.125        0.595      333.961        3.623      846.541
10/28/2013  00:19:00      -40.640       -8.351       -2.849       20.226       21.622       15.698      409.096      467.512      246.433        0.143        0.056       41.489        8.561        0.043      334.178        3.981      846.552
10/28/2013  00:20:00      -93.894       55.555      -20.427       34.105       72.835       30.338     1163.176     5304.977      920.365        0.985        0.369      109.098       29.103        0.071      334.039        3.748      846.567
10/28/2013  00:21:00      -77.769       67.450      -25.086       41.215       34.170       22.184     1698.670     1167.586      492.123        0.729        0.168      102.944       23.879        0.054      334.004        3.693      846.578
10/28/2013  00:22:00      -61.983      152.264      -21.321       36.452       92.584       28.349     1328.745     8571.744      803.648        1.909        0.535      164.396       23.435        0.020      334.029        3.731      846.580
10/28/2013  00:23:00      -66.433       63.927       -9.117       31.527       35.633       17.970      993.961     1269.696      322.913        0.558        0.129       92.195       16.210        0.031      334.089        3.831      846.586
10/28/2013  00:24:00      -92.982      -24.991       -2.131       59.060       38.063       21.098     3488.106     1448.815      445.143        0.733        0.269       96.282       22.587        0.055      334.176        3.976      846.591
10/28/2013  00:25:00      -83.560      -68.902       -0.803       54.348       26.560       23.097     2953.673      705.415      533.485        0.796        0.210      108.305       27.650        0.065      334.084        3.824      846.595
10/28/2013  00:26:00      -87.608      -53.477       -5.805       41.547       24.633       17.201     1726.139      606.783      295.860        0.660        0.131      102.640       18.876        0.034      334.099        3.850      846.614
10/28/2013  00:27:00      -36.920      -43.225        6.057       29.063       22.889       19.966      844.640      523.886      398.627        0.252        0.088       56.846       20.318        0.128      334.148        3.929      846.616
10/28/2013  00:28:00      -40.142      -42.619        9.414       33.530       28.070       18.621     1124.237      787.908      346.730        0.289        0.113       58.547       19.208        0.108      334.299        4.180      846.614
10/28/2013  00:29:00      -31.616      -56.696       -5.370       29.282       16.772       17.836      857.438      281.300      318.124        0.285        0.073       64.916       12.762        0.039      334.077        3.812      846.624
10/28/2013  00:30:00       -5.011      -38.209        7.082       12.594       20.439       13.701      158.601      417.751      187.725        0.115        0.038       38.536        2.727        0.005      334.167        3.961      846.624
10/28/2013  00:31:00      -36.734       -0.657       -0.822       26.545       11.919       10.963      704.652      142.069      120.184        0.116        0.048       36.740       12.436        0.115      334.274        4.139      846.598
10/28/2013  00:32:00      -13.244        8.275        8.236       14.962        9.168        9.023      223.853       84.048       81.417        0.035        0.019       15.617        9.643        0.381      334.252        4.104      846.588
10/28/2013  00:33:00      -24.163      -35.657        9.698       24.318       32.921       17.926      591.367     1083.797      321.345        0.197        0.100       43.073       15.597        0.131      334.166        3.960      846.564
10/28/2013  00:34:00       -2.727        8.084       -1.556       21.766       17.660       22.436      473.745      311.869      503.356        0.068        0.064        8.532       19.327        5.131      334.107        3.863      846.534
10/28/2013  00:35:00       18.369       59.552        1.648       14.720       35.368       29.342      216.683     1250.915      860.929        0.311        0.116       62.321       29.838        0.229      334.139        3.914      846.512
10/28/2013  00:36:00       32.171       54.755       -9.760       16.270       33.670       15.950      264.708     1133.690      254.388        0.289        0.083       63.506       11.948        0.035      334.113        3.871      846.473
10/28/2013  00:37:00       25.792       31.559       -4.083       15.814       19.360       14.753      250.076      374.807      217.664        0.126        0.042       40.758       11.954        0.086      334.198        4.013      846.435
10/28/2013  00:38:00       26.540       26.876        7.443       18.218       18.603       18.603      331.891      346.071      346.057        0.125        0.051       37.772        8.435        0.050      334.216        4.043      846.416
10/28/2013  00:39:00       62.345       31.003       12.573       32.010       21.089       20.539     1024.668      444.749      421.866        0.345        0.095       69.629       15.458        0.049      334.201        4.019      846.413
10/28/2013  00:40:00       30.711       37.581        2.428       30.651       23.255       21.894      939.476      540.775      479.328        0.216        0.098       48.534       14.984        0.095      334.136        3.908      846.424
10/28/2013  00:41:00       18.258       60.788      -12.645       13.579       18.683        9.734      184.382      349.069       94.754        0.241        0.031       63.470        9.067        0.020      334.041        3.752      846.438
10/28/2013  00:42:00      -50.619      -10.331      -10.743       61.654       33.028       10.787     3801.187     1090.879      116.356        0.390        0.250       51.663       11.059        0.046      334.127        3.896      846.446
10/28/2013  00:43:00      -86.177      -34.143        9.745       45.138       56.905       22.354     2037.430     3238.157      499.724        0.723        0.289       92.694       26.010        0.079      334.289        4.164      846.440
10/28/2013  00:44:00      -21.595       24.286       -3.297       19.829       25.893       12.905      393.200      670.429      166.537        0.115        0.062       32.499       15.008        0.213      334.311        4.201      846.451
10/28/2013  00:45:00      -48.855       17.917       -4.025       21.778       21.115       15.966      474.298      445.840      254.909        0.195        0.059       52.037        9.469        0.033      334.369        4.296      846.449
10/28/2013  00:46:00      -47.154      -40.097        0.016       74.170       36.891       24.742     5501.247     1360.978      612.174        0.565        0.374       61.897       34.627        0.313      334.460        4.448      846.452
10/28/2013  00:47:00      -61.851       -1.209       13.130       61.314       63.497       43.098     3759.459     4031.923     1857.396        0.682        0.482       61.863       39.704        0.412      334.433        4.402      846.446
10/28/2013  00:48:00      -88.193       52.745       -8.859       93.943       94.421       48.187     8825.274     8915.365     2321.947        1.535        1.003      102.762       48.577        0.223      334.377        4.308      846.450
10/28/2013  00:49:00     -219.188       61.542      -36.505       67.943       65.301       43.010     4616.209     4264.164     1849.861        3.195        0.537      227.664       37.434        0.027      334.337        4.239      846.425
10/28/2013  00:50:00     -146.637       -1.354      -18.103       59.142       75.482       32.876     3497.829     5697.605     1080.824        1.605        0.514      146.643       29.869        0.041      334.349        4.262      846.430
10/28/2013  00:51:00     -191.089      -79.070       -8.926       53.974       39.966       32.845     2913.184     1597.260     1078.775        2.422        0.279      206.802       27.999        0.018      334.310        4.195      846.414
10/28/2013  00:52:00     -180.107      -24.304      -14.169       75.550       41.466       28.650     5707.820     1719.433      820.828        2.074        0.412      181.739       32.066        0.031      334.172        3.966      846.421
10/28/2013  00:53:00     -125.912      -47.113        6.049       63.802       48.339       31.451     4070.642     2336.672      989.145        1.275        0.370      134.438       34.257        0.065      334.127        3.893      846.398
10/28/2013  00:54:00     -131.330      -59.372      -11.165       60.910       38.821       24.475     3710.020     1507.054      599.043        1.336        0.291      144.127       24.606        0.029      334.163        3.953      846.392
10/28/2013  00:55:00     -169.572      -71.345      -13.297       44.581       44.113       29.314     1987.466     1945.930      859.290        1.941        0.240      183.969       29.844        0.026      334.128        3.895      846.380
10/28/2013  00:56:00     -138.832      -82.615        1.800       71.305       49.148       27.488     5084.381     2415.534      755.591        1.718        0.413      161.554       24.734        0.023      334.124        3.887      846.368
10/28/2013  00:57:00      -49.134      -38.170        4.402       66.436       47.078       28.817     4413.706     2216.301      830.428        0.567        0.373       62.218       32.909        0.280      334.149        3.932      846.356
10/28/2013  00:58:00      -44.287      -56.639        7.526       61.756       55.034       29.714     3813.839     3028.787      882.902        0.647        0.386       71.897       32.134        0.200      334.230        4.067      846.328
10/28/2013  00:59:00      -20.020      -13.424       13.027       47.677       35.737       31.769     2273.061     1277.118     1009.265        0.265        0.228       24.104       29.638        1.512      334.300        4.183      846.316
10/28/2013  01:00:00       -6.024       14.633       13.255       34.454       28.884       24.429     1187.099      834.292      596.753        0.152        0.131       15.825       28.430        3.228      334.317        4.211      846.307
10/28/2013  01:01:00      -71.123       27.644      -10.868       29.717       18.329       16.426      883.106      335.964      269.811        0.371        0.074       76.306       11.725        0.024      334.207        4.027      846.289
10/28/2013  01:02:00     -157.462      -22.603      -14.479       57.688       42.403       26.723     3327.898     1797.994      714.123        1.568        0.292      159.076       25.860        0.026      334.302        4.186      846.269
10/28/2013  01:03:00     -117.756      -35.462        0.779       40.966       39.990       23.162     1678.188     1599.225      536.467        0.947        0.191      122.979       16.848        0.019      334.344        4.255      846.260
10/28/2013  01:04:00     -142.494       -4.850       -5.017       54.340       38.316       30.985     2952.826     1468.151      960.055        1.287        0.269      142.576       24.897        0.030      334.225        4.056      846.265
10/28/2013  01:05:00     -163.031        4.244      -10.329       59.048       34.304       25.632     3486.686     1176.765      656.982        1.601        0.266      163.086       29.061        0.032      334.157        3.941      846.272
10/28/2013  01:06:00     -141.524       21.280       -6.422       56.272       38.539       26.885     3166.532     1485.256      722.800        1.295        0.269      143.115       27.428        0.037      334.150        3.931      846.280
10/28/2013  01:07:00     -157.015      -40.966       -8.917       40.413       39.873       21.314     1633.241     1589.844      454.298        1.504        0.184      162.271        9.098        0.003      334.137        3.910      846.283
10/28/2013  01:08:00     -180.357      -57.741      -11.232       27.779       30.995       22.061      771.661      960.710      486.702        1.910        0.111      189.374       16.714        0.008      334.086        3.826      846.284
10/28/2013  01:09:00      -98.347      -41.775       -6.707       72.487       32.809       24.359     5254.425     1076.411      593.354        0.919        0.346      106.851       25.002        0.055      334.171        3.968      846.279
10/28/2013  01:10:00     -123.886      -80.551      -15.294       47.227       44.583       23.817     2230.395     1987.686      567.261        1.343        0.239      147.771       11.797        0.006      334.224        4.055      846.284
10/28/2013  01:11:00       16.346      -30.982       14.162       58.244       29.409       28.529     3392.414      864.871      813.883        0.325        0.254       35.030       29.244        0.697      334.208        4.030      846.275
10/28/2013  01:12:00      -62.019      -78.600        5.176       61.305       36.807       27.033     3758.248     1354.762      730.789        0.795        0.292      100.121       31.794        0.101      334.167        3.960      846.255
10/28/2013  01:13:00     -109.279      -79.514        0.598       67.763       47.505       36.547     4591.816     2256.771     1335.665        1.322        0.409      135.146       41.522        0.094      334.153        3.938      846.217
10/28/2013  01:14:00     -164.414      -52.309      -15.545       41.290       42.943       28.527     1704.899     1844.077      813.818        1.719        0.218      172.534       26.277        0.023      334.158        3.945      846.201
10/28/2013  01:15:00     -113.069       -9.493      -11.654       43.424       41.566       24.906     1885.608     1727.766      620.329        0.862        0.212      113.467       19.715        0.030      334.228        4.063      846.194
10/28/2013  01:16:00     -110.212       34.392      -10.231       22.069       20.203       17.874      487.045      408.173      319.492        0.732        0.061      115.453        7.761        0.005      334.206        4.027      846.195
10/28/2013  01:17:00     -198.434      -54.411       -8.889       48.368       44.121       26.266     2339.502     1946.673      689.901        2.370        0.249      205.759       23.608        0.013      334.219        4.045      846.195
10/28/2013  01:18:00     -154.624      -74.283       -3.271       56.262       47.074       32.370     3165.361     2215.979     1047.799        1.793        0.321      171.542       30.231        0.031      334.262        4.119      846.191
10/28/2013  01:19:00     -108.234      -66.675       -0.701       75.242       57.119       29.422     5661.328     3262.544      865.678        1.297        0.489      127.122       16.773        0.017      334.285        4.156      846.180
10/28/2013  01:20:00     -136.838      -47.824       -1.387       60.041       43.063       28.457     3604.942     1854.396      809.811        1.364        0.313      144.955       30.439        0.044      334.253        4.104      846.168
10/28/2013  01:21:00     -119.521      -10.831      -10.290       62.457       19.877       23.035     3900.825      395.099      530.627        0.967        0.241      120.010       28.158        0.055      334.230        4.066      846.167
10/28/2013  01:22:00      -61.493        6.263        6.599       67.898       22.698       23.624     4610.193      515.213      558.096        0.477        0.284       61.811       32.950        0.284      334.379        4.312      846.163
10/28/2013  01:23:00      -80.024      -22.231        1.184       48.862       31.563       23.475     2387.514      996.211      551.094        0.542        0.197       83.055       27.746        0.112      334.338        4.245      846.157
10/28/2013  01:24:00      -71.826      -23.183        1.398       36.337       20.480       19.655     1320.380      419.444      386.335        0.391        0.106       75.474       20.160        0.071      334.279        4.149      846.157
10/28/2013  01:25:00      -70.745      -34.762      -10.428       14.718       17.376       10.353      216.611      301.920      107.175        0.347        0.031       78.824        8.195        0.011      334.275        4.142      846.153
10/28/2013  01:26:00      -87.381      -61.271        0.686       48.502       32.850       26.712     2352.408     1079.140      713.515        0.777        0.207      106.722       29.969        0.079      334.307        4.194      846.150
10/28/2013  01:27:00      -92.869      -33.879       -0.707       44.694       22.356       28.152     1997.585      499.798      792.539        0.653        0.164       98.856       28.804        0.085      334.293        4.172      846.143
10/28/2013  01:28:00      -81.754      -12.669       -4.919       31.024       42.224       15.914      962.512     1782.837      253.246        0.493        0.150       82.730       17.739        0.046      334.287        4.160      846.140
10/28/2013  01:29:00      -92.336       -2.996       -0.581       28.732       32.478       18.316      825.506     1054.818      335.474        0.538        0.111       92.384       16.195        0.031      334.323        4.221      846.149
10/28/2013  01:30:00      -96.590      -20.745       -0.354       28.848       21.073       15.344      832.183      444.057      235.442        0.564        0.076       98.792       14.284        0.021      334.375        4.307      846.156
10/28/2013  01:31:00      -67.234       -5.940        1.545       25.782       29.424       14.284      664.705      865.783      204.041        0.315        0.087       67.496       14.102        0.044      334.472        4.467      846.167
10/28/2013  01:32:00      -33.356      -38.196       -6.421       43.328       35.822       18.493     1877.293     1283.250      341.979        0.306        0.175       50.710       16.903        0.111      334.483        4.485      846.158
10/28/2013  01:33:00      -13.824      -47.478        2.734       22.649       25.349       19.800      512.969      642.587      392.031        0.200        0.077       49.449       18.646        0.142      334.365        4.290      846.141
10/28/2013  01:34:00      -33.604      -30.230        4.095       36.667       22.113       18.311     1344.495      488.981      335.285        0.211        0.108       45.201       18.507        0.168      334.410        4.364      846.136
10/28/2013  01:35:00      -71.347      -12.558        0.596       34.695       34.382       19.494     1203.715     1182.129      379.997        0.401        0.138       72.444       18.044        0.062      334.282        4.152      846.138
10/28/2013  01:36:00      -65.612      -16.548       -5.520       23.672       29.196       16.019      560.349      852.429      256.607        0.314        0.083       67.667       14.654        0.047      334.235        4.074      846.143
10/28/2013  01:37:00      -64.953        5.929        0.082       60.182       29.807       21.063     3621.833      888.435      443.663        0.460        0.248       65.223       28.484        0.191      334.302        4.186      846.155
10/28/2013  01:38:00     -100.725       26.065       -9.342       33.296       30.720       19.520     1108.592      943.703      381.026        0.667        0.122      104.043       16.502        0.025      334.253        4.104      846.156
10/28/2013  01:39:00      -93.208        8.104       -9.643       20.388       19.889       14.353      415.654      395.567      205.997        0.493        0.051       93.560        9.124        0.010      334.243        4.088      846.154
10/28/2013  01:40:00      -77.604      -12.163       -9.491       16.709       18.555       12.075      279.186      344.301      145.797        0.351        0.038       78.551        9.475        0.015      334.247        4.095      846.145
10/28/2013  01:41:00      -30.725       17.625      -10.207       18.237       21.690       15.849      332.605      470.474      251.189        0.121        0.053       35.422       10.271        0.084      334.218        4.046      846.139
10/28/2013  01:42:00      -39.397       73.032       -5.550       37.998       64.639       20.288     1443.834     4178.210      411.616        0.647        0.302       82.981       19.344        0.054      334.249        4.096      846.136
10/28/2013  01:43:00       -1.530       71.210       -1.827       33.036       29.281       18.437     1091.373      857.363      339.912        0.368        0.114       71.227       10.828        0.023      334.206        4.025      846.131
10/28/2013  01:44:00      -52.090        3.271      -12.982       41.891       34.576       13.033     1754.819     1195.530      169.856        0.301        0.156       52.192        9.328        0.032      334.275        4.140      846.124
10/28/2013  01:45:00      -84.288      -12.922       -8.949       26.898       29.212       16.627      723.502      853.330      276.457        0.460        0.093       85.273       10.679        0.016      334.254        4.106      846.125
10/28/2013  01:46:00      -78.222      -67.407       -0.336       58.887       47.288       27.829     3467.703     2236.118      774.473        0.857        0.324      103.259       24.523        0.056      334.267        4.128      846.113
10/28/2013  01:47:00      -95.141      -43.221        2.647       72.375       50.349       27.119     5238.097     2535.038      735.456        0.972        0.425      104.498       30.086        0.083      334.252        4.102      846.105
10/28/2013  01:48:00      -66.623      -85.041        3.533       39.852       30.572       30.237     1588.208      934.642      914.292        0.756        0.172      108.030       22.308        0.043      334.177        3.977      846.099
10/28/2013  01:49:00      -15.953      -64.071        3.099       45.052       32.221       25.505     2029.692     1038.204      650.510        0.404        0.186       66.027       18.918        0.082      334.175        3.974      846.087
10/28/2013  01:50:00      -48.302      -31.733       -8.655       22.703       46.634       18.724      515.417     2174.700      350.587        0.323        0.152       57.793       25.210        0.190      334.057        3.779      846.070
10/28/2013  01:51:00      -44.567      -37.704        3.157       36.434       30.705       22.193     1327.432      942.776      492.509        0.309        0.138       58.376       10.609        0.033      334.185        3.991      846.066
10/28/2013  01:52:00      -37.071      -92.560        7.649       56.713       62.402       33.578     3216.324     3894.013     1127.485        0.912        0.412       99.708       29.801        0.089      333.964        3.624      846.058
10/28/2013  01:53:00      -39.576      -70.195        1.320       45.659       57.128       32.232     2084.710     3263.644     1038.886        0.644        0.319       80.583       33.317        0.171      333.953        3.606      846.027
10/28/2013  01:54:00      -47.083      -77.355        4.323       37.898       64.696       31.296     1436.245     4185.627      979.434        0.741        0.330       90.557       28.615        0.100      333.864        3.459      845.998
10/28/2013  01:55:00      -46.009      -62.571       22.796       51.536       49.392       37.699     2655.962     2439.548     1421.229        0.653        0.326       77.666       29.193        0.141      333.791        3.337      845.978
10/28/2013  01:56:00      -75.976      -74.482       -0.029       88.953       45.409       35.240     7912.658     2062.009     1241.825        1.127        0.561      106.395       48.068        0.204      333.806        3.363      845.947
10/28/2013  01:57:00      -70.049      -86.896       -8.456       24.704       55.270       17.009      610.304     3054.769      289.309        0.824        0.198      111.614       13.516        0.015      333.723        3.223      845.933
10/28/2013  01:58:00     -113.337      -57.889      -15.677       31.006       41.316       24.165      961.379     1707.019      583.952        0.985        0.163      127.265       24.015        0.036      333.829        3.399      845.922
10/28/2013  01:59:00      -33.829      -53.170        7.385       42.506       36.566       18.447     1806.732     1337.057      340.284        0.375        0.174       63.019       12.502        0.039      333.801        3.355      845.924
10/28/2013  02:00:00      -23.810      -64.794        5.282       34.558       39.867       19.039     1194.226     1589.407      362.490        0.397        0.157       69.030       11.280        0.027      333.868        3.467      845.917
10/28/2013  02:01:00      -85.821      -97.490        8.240       64.283       44.541       28.214     4132.317     1983.912      796.037        1.192        0.346      129.883       32.902        0.064      333.767        3.297      845.914
10/28/2013  02:02:00      -29.340      -52.595       24.839       46.256       58.196       28.711     2139.652     3386.811      824.306        0.530        0.318       60.225       32.493        0.291      333.797        3.348      845.923
10/28/2013  02:03:00      -98.174      -85.826       -2.887       41.884       47.565       30.376     1754.295     2262.455      922.720        1.098        0.247      130.400       17.868        0.019      333.688        3.167      845.921
10/28/2013  02:04:00      -37.235      -65.898       15.131       65.421       62.273       33.218     4279.908     3877.930     1103.409        0.761        0.463       75.690       37.636        0.247      333.753        3.275      845.925
10/28/2013  02:05:00      -25.044     -104.643       11.742       40.100       68.682       29.766     1607.997     4717.271      886.028        0.946        0.361      107.598       31.070        0.083      333.697        3.182      845.932
10/28/2013  02:06:00      -72.079     -146.397       -3.684       30.617       47.627       26.145      937.422     2268.297      683.581        1.526        0.194      163.179       16.865        0.011      333.599        3.019      845.926
10/28/2013  02:07:00      -55.982     -132.172        5.180       38.009       73.855       22.666     1444.703     5454.595      513.753        1.402        0.371      143.539       18.078        0.016      333.676        3.146      845.930
10/28/2013  02:08:00      -97.123     -101.412        6.287       64.092       50.128       36.099     4107.749     2512.856     1303.126        1.384        0.396      140.418       30.429        0.047      333.722        3.221      845.922
10/28/2013  02:09:00      -64.770     -117.231        1.520       39.854       50.473       26.294     1588.316     2547.528      691.358        1.138        0.241      133.934       24.171        0.033      333.653        3.108      845.913
10/28/2013  02:10:00      -67.659      -40.427       18.278       66.133       37.655       30.271     4373.558     1417.914      916.309        0.663        0.335       78.817       26.273        0.111      333.749        3.268      845.889
10/28/2013  02:11:00     -121.701      -78.673       -5.047       63.128       49.405       25.277     3985.196     2440.898      638.912        1.404        0.353      144.916       31.179        0.046      333.649        3.102      845.883
10/28/2013  02:12:00     -127.549      -86.788       -1.349       61.463       49.088       32.630     3777.689     2409.626     1064.689        1.553        0.363      154.276       31.021        0.040      333.624        3.060      845.856
10/28/2013  02:13:00     -121.602     -127.327      -14.996       34.442       44.839       22.712     1186.229     2010.570      515.819        1.747        0.186      176.066       10.599        0.004      333.549        2.935      845.849
10/28/2013  02:14:00      -82.558      -52.864       -2.608       45.399       45.694       31.871     2061.061     2087.973     1015.755        0.739        0.258       98.033       19.841        0.041      333.579        2.988      845.833
10/28/2013  02:15:00     -115.820      -66.120       -4.143       67.165       55.181       34.909     4511.157     3044.985     1218.648        1.329        0.439      133.365       34.042        0.065      333.523        2.892      845.838
10/28/2013  02:16:00     -145.382      -83.079       -5.881       50.919       53.265       31.981     2592.763     2837.166     1022.787        1.726        0.323      167.446       24.505        0.021      333.581        2.987      845.835
10/28/2013  02:17:00     -132.958      -73.839       -9.297       52.791       38.949       23.348     2786.847     1517.052      545.150        1.403        0.242      152.085       10.030        0.004      333.577        2.981      845.830
10/28/2013  02:18:00      -92.668      -57.988        9.730       54.984       38.188       24.776     3023.216     1458.312      613.874        0.857        0.255      109.316       26.588        0.059      333.689        3.168      845.798
10/28/2013  02:19:00     -105.941      -12.980       -1.795       44.214       38.241       26.307     1954.907     1462.353      692.061        0.775        0.205      106.733       24.500        0.053      333.693        3.174      845.774
10/28/2013  02:20:00      -96.223       -9.827      -20.624       31.713       25.052       16.280     1005.735      627.586      265.051        0.584        0.095       96.723        5.738        0.004      333.567        2.967      845.749
10/28/2013  02:21:00      -78.095       -2.740       -5.599       42.736       28.249       20.610     1826.394      797.985      424.760        0.459        0.152       78.143       20.927        0.072      333.656        3.114      845.750
10/28/2013  02:22:00      -87.237      -30.330       -5.655       41.504       32.685       20.881     1722.618     1068.320      436.003        0.589        0.161       92.359       24.495        0.070      333.733        3.241      845.751
10/28/2013  02:23:00      -20.752        6.540        8.186       50.044       22.319       27.241     2504.368      498.140      742.047        0.214        0.187       21.758       29.860        1.883      333.746        3.264      845.777
10/28/2013  02:24:00      -80.177      -10.242       -6.120       27.191       18.262       17.360      739.353      333.483      301.353        0.397        0.069       80.828       15.354        0.036      333.680        3.154      845.795
10/28/2013  02:25:00     -108.014       25.450      -17.548       21.922       18.663       14.052      480.568      348.319      197.467        0.682        0.051      110.972        4.888        0.002      333.562        2.958      845.805
10/28/2013  02:26:00      -49.697       -1.408       -4.187       21.492       32.930       15.135      461.906     1084.412      229.075        0.213        0.089       49.717       13.497        0.074      333.700        3.185      845.820
10/28/2013  02:27:00      -48.996      -31.039        0.940       27.923       20.452       16.753      779.718      418.287      280.663        0.242        0.074       58.000       15.664        0.073      333.733        3.241      845.825
10/28/2013  02:28:00      -77.255        3.695       -7.523       28.705       24.389       15.513      823.977      594.840      240.649        0.385        0.083       77.343       10.878        0.020      333.690        3.172      845.823
10/28/2013  02:29:00      -45.029       -5.672        9.097       36.918       25.180       20.334     1362.907      634.041      413.477        0.228        0.121       45.385       21.042        0.215      333.796        3.346      845.831
10/28/2013  02:30:00      -70.153        2.458       -4.637       24.168       14.755       13.305      584.092      217.713      177.027        0.296        0.049       70.196        8.183        0.014      333.709        3.200      845.818
10/28/2013  02:31:00      -47.244      -18.093        0.523       36.498       32.963       18.921     1332.071     1086.574      358.021        0.267        0.139       50.590       17.268        0.117      333.791        3.339      845.805
10/28/2013  02:32:00      -78.137       -0.956       -6.916       33.282       27.732       14.420     1107.670      769.062      207.923        0.412        0.104       78.143       12.542        0.026      333.744        3.260      845.801
10/28/2013  02:33:00      -79.710      -77.691        4.427       66.002       58.639       29.654     4356.256     3438.480      879.386        1.054        0.434      111.308       34.047        0.094      333.809        3.366      845.789
10/28/2013  02:34:00     -151.566      -49.156       -5.149       57.529       33.775       17.117     3309.580     1140.744      293.008        1.508        0.237      159.338       21.240        0.018      333.656        3.113      845.780
10/28/2013  02:35:00      -92.903      -21.022        1.965       50.414       35.247       22.690     2541.592     1242.335      514.856        0.669        0.215       95.251       20.092        0.044      333.651        3.106      845.788
10/28/2013  02:36:00      -49.577      -82.520        9.921       53.639       43.250       30.772     2877.142     1870.549      946.901        0.753        0.285       96.267       25.622        0.071      333.830        3.404      845.785
10/28/2013  02:37:00      -74.814      -88.951       -0.647       55.444       34.282       29.113     3074.029     1175.262      847.591        0.930        0.255      116.230       30.554        0.069      333.782        3.323      845.782
10/28/2013  02:38:00     -109.847      -78.995       -0.883       77.047       56.244       34.648     5936.175     3163.343     1200.482        1.430        0.515      135.302       36.416        0.072      333.839        3.416      845.779
10/28/2013  02:39:00     -163.262     -103.496       -7.801       67.598       50.467       39.583     4569.434     2546.898     1566.799        2.305        0.434      193.303       37.117        0.037      333.646        3.096      845.789
10/28/2013  02:40:00     -165.393      -87.237        9.609       90.377       75.746       39.128     8168.017     5737.430     1531.039        2.524        0.772      186.990       49.443        0.070      333.600        3.019      845.787
10/28/2013  02:41:00     -151.584     -131.839      -17.026       63.358       50.472       30.311     4014.242     2547.434      918.771        2.406        0.374      200.896       25.421        0.016      333.643        3.091      845.797
10/28/2013  02:42:00      -73.723      -42.996        1.406       54.641       38.420       24.444     2985.692     1476.082      597.511        0.617        0.253       85.344       25.738        0.091      333.765        3.292      845.806
10/28/2013  02:43:00      -55.963      -71.648       22.485       56.495       57.894       32.927     3191.726     3351.725     1084.186        0.820        0.381       90.913       25.965        0.082      333.727        3.232      845.814
10/28/2013  02:44:00      -81.381     -142.738        2.523       66.644       68.202       36.052     4441.464     4651.463     1299.768        1.870        0.520      164.308       34.715        0.045      333.659        3.117      845.809
10/28/2013  02:45:00     -133.537     -100.500        0.610       67.620       47.773       33.516     4572.412     2282.267     1123.320        1.795        0.399      167.129       34.799        0.043      333.652        3.108      845.811
10/28/2013  02:46:00     -127.054      -52.667       -5.414       55.994       69.695       30.199     3135.383     4857.444      911.964        1.392        0.445      137.537       34.533        0.063      333.588        3.000      845.819
10/28/2013  02:47:00     -163.876      -34.768      -17.264       32.537       45.242       22.027     1058.686     2046.799      485.193        1.598        0.180      167.524       18.916        0.013      333.570        2.970      845.823
10/28/2013  02:48:00      -83.290      -44.817       -5.348       36.178       36.898       23.144     1308.819     1361.469      535.660        0.609        0.160       94.582       12.678        0.018      333.687        3.166      845.810
10/28/2013  02:49:00     -129.793     -101.481       -4.336       67.689       54.293       31.860     4581.798     2947.695     1015.034        1.785        0.427      164.757       29.306        0.032      333.597        3.014      845.818
10/28/2013  02:50:00     -105.068      -61.064        5.358      105.140       67.197       38.573    11054.334     4515.414     1487.868        1.592        0.853      121.524       36.138        0.088      333.586        2.997      845.810
10/28/2013  02:51:00      -64.067      -84.067       14.046       84.738       71.355       47.360     7180.532     5091.597     2242.944        1.294        0.726      105.697       49.356        0.218      333.561        2.954      845.803
10/28/2013  02:52:00      -90.417      -58.859        6.889       56.133       50.760       33.217     3150.887     2576.560     1103.381        0.926        0.342      107.887       28.515        0.070      333.536        2.914      845.820
10/28/2013  02:53:00      -65.604      -94.483       13.891       75.075       55.731       39.270     5636.281     3105.930     1542.138        1.185        0.514      115.026       40.896        0.126      333.571        2.972      845.821
10/28/2013  02:54:00     -102.985      -87.754        0.022       72.889       61.633       40.758     5312.862     3798.570     1661.179        1.454        0.539      135.302       41.398        0.094      333.514        2.878      845.817
10/28/2013  02:55:00      -64.027      -77.311       15.819       63.851       62.519       42.491     4076.959     3908.604     1805.453        1.006        0.490      100.382       39.758        0.157      333.539        2.920      845.815
10/28/2013  02:56:00      -98.106      -84.505       10.544       84.345       58.063       49.949     7114.016     3371.300     2494.895        1.493        0.649      129.483       48.546        0.141      333.556        2.947      845.806
10/28/2013  02:57:00      -31.833      -62.766       18.658       70.103       61.998       44.281     4914.441     3843.695     1960.769        0.801        0.536       70.377       43.388        0.380      333.589        3.003      845.794
10/28/2013  02:58:00      -72.596      -85.500       -6.943       75.813       48.439       34.872     5747.568     2346.351     1216.040        1.097        0.465      112.163       34.393        0.094      333.527        2.898      845.795
10/28/2013  02:59:00     -156.687      -43.396        2.785      103.440       54.145       49.167    10699.796     2931.669     2417.357        2.124        0.802      162.586       49.533        0.093      333.517        2.882      845.798
10/28/2013  03:00:00     -156.991      -70.241       -0.972       68.718       46.960       32.528     4722.117     2205.269     1058.103        1.878        0.399      171.988       34.489        0.040      333.508        2.866      845.788
10/28/2013  03:01:00     -157.248      -82.200       -0.640       57.684       54.794       32.653     3327.406     3002.378     1066.188        1.944        0.370      177.437       29.810        0.028      333.528        2.900      845.788
10/28/2013  03:02:00     -135.115      -59.110      -11.144       74.696       42.728       30.620     5579.438     1825.695      937.569        1.511        0.417      147.479       25.570        0.030      333.494        2.844      845.789
10/28/2013  03:03:00      -17.882      -39.439       14.268       46.197       54.254       32.082     2134.127     2943.480     1029.227        0.409        0.305       43.304       24.638        0.324      333.623        3.059      845.778
10/28/2013  03:04:00       -9.744      -42.702       18.708       50.766       37.281       34.194     2577.226     1389.882     1169.211        0.370        0.257       43.799       30.574        0.487      333.626        3.064      845.764
10/28/2013  03:05:00      -74.875      -41.985        8.599       90.288       60.558       36.388     8151.856     3667.307     1324.077        1.029        0.657       85.843       37.711        0.193      333.587        3.000      845.775
10/28/2013  03:06:00     -230.175       20.311      -18.289       83.515       53.670       37.346     6974.699     2880.417     1394.700        3.249        0.562      231.069       41.340        0.032      333.431        2.738      845.775
10/28/2013  03:07:00     -140.803      -20.202        2.723       79.693       58.000       38.446     6351.039     3363.963     1478.128        1.572        0.560      142.245       40.796        0.082      333.452        2.775      845.777
10/28/2013  03:08:00     -129.333      -13.124        1.828       79.002       81.129       39.344     6241.289     6581.911     1547.952        1.563        0.719      129.997       41.222        0.101      333.472        2.807      845.773
10/28/2013  03:09:00      -98.105      -32.458       -2.321       60.510       70.782       31.910     3661.441     5010.088     1018.257        1.019        0.484      103.335       30.438        0.087      333.483        2.826      845.769
10/28/2013  03:10:00      -77.721      -75.618        1.271       85.024       64.339       40.050     7229.072     4139.482     1603.997        1.236        0.649      108.438       45.939        0.179      333.531        2.906      845.760
10/28/2013  03:11:00      -65.192      -47.795       -7.108       38.549       50.783       27.757     1486.046     2578.911      770.458        0.571        0.242       80.835       13.862        0.029      333.514        2.878      845.745
10/28/2013  03:12:00      -50.413      -36.503       13.434       58.344       34.836       23.127     3403.975     1213.572      534.863        0.460        0.258       62.240       26.583        0.182      333.535        2.913      845.737
10/28/2013  03:13:00     -109.891      -97.426        5.292       43.963       60.091       28.591     1932.734     3610.883      817.425        1.398        0.318      146.860       24.440        0.028      333.418        2.719      845.724
10/28/2013  03:14:00      -48.973      -17.986        9.953       65.689       36.190       26.660     4314.999     1309.700      710.741        0.458        0.317       52.171       30.708        0.346      333.501        2.858      845.717
10/28/2013  03:15:00      -67.770      -51.131       13.620       92.043       59.198       40.276     8471.926     3504.353     1622.133        1.049        0.680       84.895       50.876        0.359      333.486        2.832      845.702
10/28/2013  03:16:00     -151.796      -23.018      -14.406       63.238       53.108       36.675     3999.048     2820.459     1345.053        1.597        0.408      153.532       34.295        0.050      333.336        2.584      845.680
10/28/2013  03:17:00     -213.844      -57.165        0.662       55.557       57.811       35.434     3086.532     3342.075     1255.534        2.834        0.384      221.353       33.159        0.022      333.311        2.539      845.663
10/28/2013  03:18:00     -189.610      -65.995       -7.935      101.593       67.732       39.775    10321.114     4587.568     1582.069        2.843        0.825      200.767       49.668        0.061      333.352        2.607      845.661
10/28/2013  03:19:00     -133.374      -60.780       10.139       73.473       78.071       43.628     5398.225     6095.072     1903.361        1.749        0.670      146.570       53.097        0.131      333.220        2.392      845.648
10/28/2013  03:20:00     -194.296      -33.197       -0.943       88.934       99.801       55.735     7909.213     9960.188     3106.418        2.991        1.049      197.112       64.640        0.108      333.016        2.052      845.637
10/28/2013  03:21:00     -185.159      -60.989       -5.646       79.119       72.102       41.829     6259.797     5198.719     1749.642        2.562        0.660      194.945       40.180        0.042      333.274        2.480      845.630
10/28/2013  03:22:00     -104.603      -34.429       -7.766       67.677       74.764       32.295     4580.195     5589.652     1042.946        1.170        0.561      110.124       32.695        0.088      333.395        2.680      845.616
10/28/2013  03:23:00     -203.640     -110.444       -4.023       47.303       71.619       39.694     2237.577     5129.315     1575.626        3.131        0.447      231.662       41.926        0.033      333.203        2.360      845.614
10/28/2013  03:24:00     -123.299      -63.575        9.190       76.202       71.915       41.380     5806.682     5171.761     1712.264        1.601        0.635      138.725       38.935        0.079      333.277        2.486      845.617
10/28/2013  03:25:00      -66.210      -17.324        2.714       63.517       48.208       32.069     4034.392     2323.991     1028.434        0.604        0.369       68.439       29.089        0.181      333.378        2.655      845.603
10/28/2013  03:26:00     -115.334       -3.744       -3.995       89.316       59.728       31.952     7977.405     3567.488     1020.959        1.295        0.628      115.395       39.974        0.120      333.391        2.674      845.590
10/28/2013  03:27:00     -249.322      -79.452      -14.207       48.198       56.730       31.988     2323.090     3218.248     1023.223        3.762        0.328      261.675       23.289        0.008      333.246        2.431      845.589
10/28/2013  03:28:00     -167.901      -67.294       -4.783       66.207       41.018       27.694     4383.388     1682.460      766.952        1.979        0.342      180.884       30.208        0.028      333.269        2.471      845.580
10/28/2013  03:29:00     -105.609      -82.215        3.598       79.024       74.621       44.940     6244.867     5568.244     2019.580        1.588        0.692      133.838       47.569        0.126      333.327        2.569      845.570
10/28/2013  03:30:00     -200.234     -104.277       -5.617       55.630       48.312       33.514     3094.690     2334.001     1123.163        2.877        0.328      225.760       28.415        0.016      333.280        2.489      845.574
10/28/2013  03:31:00     -234.597      -68.825       -9.348       64.035       64.978       33.963     4100.510     4222.088     1153.481        3.467        0.474      244.485       31.501        0.017      333.273        2.477      845.561
10/28/2013  03:32:00     -142.471      -47.705       -6.517       47.002       52.336       24.469     2209.187     2739.083      598.709        1.408        0.277      150.246       21.479        0.020      333.286        2.502      845.559
10/28/2013  03:33:00     -212.997      -28.866      -14.482       76.565       62.917       34.164     5862.259     3958.571     1167.167        2.870        0.549      214.944       33.254        0.024      333.284        2.496      845.538
10/28/2013  03:34:00     -133.169      -25.244       -1.153       53.773       54.994       28.269     2891.568     3024.301      799.131        1.254        0.336      135.541       19.947        0.022      333.311        2.544      845.520
10/28/2013  03:35:00     -158.622      -15.568       -8.331       64.828       71.404       34.764     4202.646     5098.549     1208.546        1.799        0.525      159.384       37.425        0.055      333.347        2.602      845.503
10/28/2013  03:36:00     -122.559       -0.470       -2.873       75.531       59.521       36.024     5704.928     3542.798     1297.761        1.279        0.527      122.560       35.626        0.084      333.298        2.521      845.493
10/28/2013  03:37:00     -137.189      -41.741      -15.134       96.138       46.804       34.873     9242.463     2190.633     1216.152        1.672        0.632      143.398       41.755        0.085      333.327        2.568      845.490
10/28/2013  03:38:00     -132.494      -57.257       -4.258       63.994       47.943       32.978     4095.195     2298.492     1087.549        1.416        0.374      144.336       26.478        0.034      333.368        2.637      845.491
10/28/2013  03:39:00      -91.395      -47.952        8.068       56.853       41.665       34.623     3232.256     1735.994     1198.772        0.844        0.308      103.210       33.448        0.105      333.367        2.636      845.488
10/28/2013  03:40:00     -113.335      -60.962      -12.986       56.510       42.527       26.331     3193.422     1808.505      693.332        1.121        0.285      128.690       30.074        0.055      333.397        2.685      845.477
10/28/2013  03:41:00     -116.827      -57.389       -0.686       62.670       56.292       27.443     3927.582     3168.755      753.114        1.239        0.392      130.162       28.194        0.047      333.430        2.738      845.464
10/28/2013  03:42:00     -176.765      -76.987       -9.788       52.609       45.433       29.023     2767.659     2064.172      842.352        2.147        0.284      192.803       18.716        0.009      333.344        2.594      845.457
10/28/2013  03:43:00     -108.644      -31.887        4.468       57.678       49.400       30.289     3326.763     2440.398      917.430        0.976        0.334      113.227       26.726        0.056      333.345        2.599      845.449
10/28/2013  03:44:00     -128.557      -14.175        0.638      100.118       51.693       39.593    10023.686     2672.182     1567.598        1.549        0.713      129.336       37.965        0.086      333.357        2.617      845.431
10/28/2013  03:45:00     -214.703      -49.667       -9.356       66.077       58.382       38.768     4366.105     3408.465     1502.975        2.896        0.464      220.372       42.292        0.037      333.276        2.482      845.426
10/28/2013  03:46:00      -80.178      -67.325       20.997       80.426      105.725       55.806     6468.387    11177.753     3114.296        1.608        1.038      104.696       71.239        0.463      333.006        2.037      845.429
10/28/2013  03:47:00     -132.258      -75.012       15.427       65.800       88.747       48.878     4329.631     7876.102     2389.069        1.897        0.730      152.049       51.397        0.114      333.122        2.229      845.420
10/28/2013  03:48:00     -130.424      -76.182        4.357       58.752       58.204       36.911     3451.825     3387.693     1362.411        1.552        0.410      151.044       40.808        0.073      333.294        2.514      845.406
10/28/2013  03:49:00     -140.583      -45.882       -6.166       60.732       71.514       39.853     3688.347     5114.219     1588.238        1.615        0.520      147.881       49.538        0.112      333.232        2.412      845.404
10/28/2013  03:50:00      -64.829      -32.249       10.198       69.696       46.427       40.749     4857.508     2155.448     1660.503        0.701        0.434       72.407       38.212        0.279      333.504        2.863      845.390
10/28/2013  03:51:00      -52.026        4.392        7.915       72.696       30.325       26.346     5284.691      919.580      694.098        0.484        0.345       52.211       38.122        0.533      333.492        2.842      845.382
10/28/2013  03:52:00      -82.301      -41.377       -8.923       55.313       39.912       31.566     3059.508     1592.956      996.387        0.711        0.282       92.117       30.798        0.112      333.419        2.721      845.367
10/28/2013  03:53:00     -125.234      -16.990       -3.756       43.884       40.649       27.167     1925.778     1652.307      738.073        1.015        0.216      126.382       24.069        0.036      333.426        2.731      845.357
10/28/2013  03:54:00     -126.244       -4.010       -9.609       63.773       53.104       29.052     4067.050     2820.008      843.993        1.189        0.387      126.307       27.198        0.046      333.432        2.740      845.344
10/28/2013  03:55:00      -68.067      -43.506        2.933       42.436       45.260       22.719     1800.831     2048.473      516.157        0.545        0.218       80.782       18.110        0.050      333.518        2.885      845.332
10/28/2013  03:56:00      -53.781      -19.559       14.715       51.536       36.638       32.717     2655.980     1342.329     1070.403        0.428        0.253       57.228       26.687        0.217      333.616        3.048      845.311
10/28/2013  03:57:00     -102.744      -19.918        1.915       99.300       48.217       30.309     9860.491     2324.871      918.609        1.203        0.655      104.657       28.900        0.076      333.528        2.899      845.285
10/28/2013  03:58:00     -227.259      -34.543       -7.553       86.883       68.280       35.831     7548.636     4662.140     1283.853        3.319        0.675      229.870       38.886        0.029      333.502        2.854      845.262
10/28/2013  03:59:00     -160.861      -72.881       -8.339       44.994       36.849       22.648     2024.481     1357.841      512.923        1.758        0.195      176.601       16.985        0.009      333.470        2.804      845.243
10/28/2013  04:00:00      -93.209      -57.277        4.378       62.329       54.296       27.763     3884.850     2948.107      770.798        0.979        0.380      109.401       31.392        0.082      333.565        2.962      845.235
10/28/2013  04:01:00      -17.939      -32.744       12.776       64.921       31.999       28.085     4214.789     1023.931      788.784        0.379        0.301       37.336       30.478        0.666      333.647        3.099      845.226
10/28/2013  04:02:00      -89.958      -22.401       -3.488       45.013       42.880       28.968     2026.174     1838.680      839.166        0.665        0.235       92.705       15.900        0.029      333.534        2.910      845.221
10/28/2013  04:03:00      -97.254      -41.847      -12.900       23.986       49.706       22.313      575.321     2470.715      497.892        0.746        0.177      105.875       14.722        0.019      333.490        2.838      845.229
10/28/2013  04:04:00      -40.706        9.632       -1.290       25.918       15.958       14.862      671.745      254.673      220.882        0.145        0.057       41.830        4.724        0.013      333.542        2.924      845.238
10/28/2013  04:05:00      -53.122      -33.461       -2.044       43.040       19.961       18.972     1852.482      398.456      359.955        0.328        0.131       62.782       22.515        0.129      333.624        3.061      845.249
10/28/2013  04:06:00      -76.307       -7.887       -2.182       26.312       20.301       15.707      692.342      412.116      246.700        0.362        0.068       76.713       12.989        0.029      333.568        2.967      845.257
10/28/2013  04:07:00      -73.103      -21.831       -8.359       18.737       17.526       14.817      351.062      307.148      219.538        0.338        0.044       76.293       11.423        0.022      333.573        2.976      845.266
10/28/2013  04:08:00      -31.334      -18.408        8.553       41.019       24.464       18.482     1682.585      598.493      341.583        0.201        0.131       36.341       25.293        0.484      333.633        3.075      845.278
10/28/2013  04:09:00      -20.108       18.952        1.681       34.693       35.161       20.276     1203.619     1236.286      411.124        0.181        0.143       27.631       24.779        0.804      333.666        3.130      845.297
10/28/2013  04:10:00      -61.122       54.379       -5.769       12.861       17.852       13.330      165.395      318.691      177.680        0.369        0.033       81.811        9.731        0.014      333.625        3.062      845.320
10/28/2013  04:11:00      -19.871       33.732        1.134       29.831       23.546       16.119      889.861      554.434      259.820        0.162        0.085       39.150       16.351        0.174      333.735        3.245      845.340
10/28/2013  04:12:00      -40.033       57.435       -6.357       34.747       47.948       26.605     1207.343     2298.970      707.810        0.458        0.211       70.010       31.639        0.204      333.674        3.143      845.343
10/28/2013  04:13:00      -77.349       50.631      -11.130       28.815       34.559       16.320      830.276     1194.295      266.338        0.548        0.115       92.447        8.437        0.008      333.585        2.995      845.345
10/28/2013  04:14:00     -113.030        3.625      -13.227       33.417       23.187       20.356     1116.667      537.637      414.349        0.752        0.103      113.089       15.505        0.019      333.644        3.093      845.338
10/28/2013  04:15:00     -122.715      -32.724       -7.902       31.456       43.301       25.566      989.491     1874.991      653.636        0.985        0.176      127.003       18.982        0.022      333.594        3.009      845.339
10/28/2013  04:16:00      -77.564      -52.486       -7.523       30.142       23.991       12.181      908.540      575.549      148.365        0.523        0.082       93.653        9.705        0.011      333.682        3.157      845.337
10/28/2013  04:17:00      -25.371      -24.846        4.205       21.903       19.881       16.553      479.761      395.244      274.004        0.121        0.057       35.511       13.693        0.149      333.749        3.268      845.344
10/28/2013  04:18:00      -46.756      -15.388        2.644       30.861       25.126       19.490      952.419      631.339      379.878        0.220        0.098       49.223       20.497        0.173      333.682        3.157      845.354
10/28/2013  04:19:00      -59.699      -21.341        9.256       43.156       27.763       15.049     1862.403      770.773      226.484        0.348        0.143       63.398        7.524        0.014      333.799        3.351      845.364
10/28/2013  04:20:00      -28.035      -19.054        4.381       25.027       27.446       17.548      626.346      753.278      307.950        0.143        0.084       33.897       10.575        0.097      333.734        3.243      845.384
10/28/2013  04:21:00      -83.994       43.348      -10.456       34.291       22.094       11.418     1175.892      488.164      130.382        0.542        0.090       94.520        7.744        0.007      333.623        3.060      845.398
10/28/2013  04:22:00      -64.890        5.652       -3.854       20.753       27.044       11.965      430.684      731.382      143.163        0.278        0.065       65.136        3.510        0.003      333.680        3.155      845.412
10/28/2013  04:23:00      -89.587      -11.510      -12.203       20.046       23.718       17.212      401.836      562.554      296.237        0.478        0.063       90.323       11.572        0.016      333.792        3.340      845.426
10/28/2013  04:24:00      -39.814      -22.430        1.910       35.671       28.677       20.477     1272.427      822.384      419.299        0.230        0.126       45.698       22.910        0.251      333.848        3.433      845.441
10/28/2013  04:25:00      -53.527      -10.334       -2.634       36.900       18.621       21.586     1361.581      346.754      465.944        0.258        0.109       54.516       14.648        0.072      333.848        3.432      845.449
10/28/2013  04:26:00      -46.219       -7.543       -1.112       25.359       23.046       17.841      643.103      531.132      318.317        0.184        0.075       46.831        7.920        0.029      333.852        3.439      845.462
10/28/2013  04:27:00       -9.419      -20.412        9.393       33.376       28.292       16.207     1113.960      800.452      262.673        0.138        0.109       22.481       17.456        0.603      333.872        3.472      845.466
10/28/2013  04:28:00      -73.523       12.936       -1.370       20.179       20.735       14.230      407.183      429.940      202.504        0.331        0.052       74.652       10.391        0.019      333.768        3.299      845.464
10/28/2013  04:29:00        5.540        4.264       19.435       18.550       11.759       14.992      344.121      138.280      224.761        0.057        0.035        6.991       10.500        2.256      333.819        3.382      845.464
10/28/2013  04:30:00       17.076       20.948        7.050       12.517       14.548       13.180      156.670      211.631      173.703        0.066        0.027       27.026        9.039        0.112      333.740        3.252      845.450
10/28/2013  04:31:00       -5.204       37.405       -2.597       16.855       26.694       11.349      284.082      712.582      128.797        0.128        0.056       37.766        6.873        0.033      333.682        3.158      845.436
10/28/2013  04:32:00      -48.094       94.433      -12.227       37.931       34.972       23.879     1438.765     1223.011      570.219        0.731        0.162      105.975       23.524        0.049      333.685        3.164      845.430
10/28/2013  04:33:00      -40.804       -1.103       14.725       39.474       27.721       24.268     1558.160      768.461      588.957        0.240        0.146       40.819       27.229        0.445      333.846        3.429      845.411
10/28/2013  04:34:00      -48.130       15.262       -7.037       27.695       32.344       22.668      766.998     1046.103      513.860        0.246        0.116       50.491        6.741        0.018      333.816        3.380      845.406
10/28/2013  04:35:00      -96.316       19.911      -10.669       24.513       28.547       16.521      600.907      814.921      272.928        0.574        0.084       98.352       14.661        0.022      333.842        3.423      845.416
10/28/2013  04:36:00      -35.051       22.591       -2.810       17.594       11.570       10.743      309.536      133.875      115.403        0.115        0.028       41.701       12.047        0.083      333.691        3.174      845.416
10/28/2013  04:37:00      -11.693       73.623        2.884       32.511       35.862       21.658     1056.998     1286.085      469.078        0.419        0.141       74.546       21.133        0.080      333.812        3.371      845.415
10/28/2013  04:38:00      -67.101       30.468       -7.532       34.085       29.702       18.200     1161.795      882.212      331.258        0.393        0.119       73.695       18.675        0.064      333.819        3.385      845.421
10/28/2013  04:39:00     -113.363       29.577      -21.464       29.435       20.923       16.578      866.423      437.770      274.819        0.788        0.079      117.158       14.050        0.014      333.705        3.195      845.434
10/28/2013  04:40:00     -126.026        0.593      -11.311       31.461       24.696       16.386      989.768      609.872      268.498        0.894        0.093      126.027       13.866        0.012      333.746        3.262      845.441
10/28/2013  04:41:00      -88.519       20.514      -11.871       30.352       23.028       12.910      921.271      530.299      166.668        0.501        0.081       90.865        7.885        0.008      333.694        3.178      845.447
10/28/2013  04:42:00      -71.600       50.778      -11.140       54.840       50.759       29.201     3007.470     2576.489      852.675        0.713        0.322       87.778       30.135        0.118      333.760        3.286      845.447
10/28/2013  04:43:00      -86.763       53.282       -8.459       76.439       71.454       30.811     5842.905     5105.745      949.313        1.117        0.595      101.817       30.575        0.090      333.867        3.463      845.435
10/28/2013  04:44:00      -87.922      -30.894       -4.827       41.064       43.394       26.511     1686.287     1883.047      702.855        0.649        0.214       93.192       21.602        0.054      333.873        3.473      845.431
10/28/2013  04:45:00      -81.432       13.210       -9.330       32.999       46.789       25.213     1088.929     2189.237      635.705        0.540        0.196       82.497       13.018        0.025      333.845        3.427      845.446
10/28/2013  04:46:00      -93.548       43.336      -13.210       34.890       48.501       24.257     1217.295     2352.378      588.380        0.748        0.208      103.098       15.950        0.024      333.868        3.465      845.437
10/28/2013  04:47:00      -66.576      -34.304        9.397       83.127       68.970       38.777     6910.089     4756.905     1503.638        0.943        0.659       74.894       45.594        0.371      333.875        3.476      845.427
10/28/2013  04:48:00      -97.986        5.105       -9.625       75.769       25.363       25.887     5740.999      643.265      670.118        0.839        0.353       98.119       36.643        0.139      333.843        3.423      845.422
10/28/2013  04:49:00     -182.901      -15.902      -12.335      110.068       60.983       34.291    12114.930     3718.975     1175.892        2.543        0.850      183.591       49.482        0.073      333.897        3.512      845.427
10/28/2013  04:50:00     -239.650      -96.580      -14.927       75.020       82.963       40.578     5628.008     6882.798     1646.562        4.057        0.708      258.379       32.369        0.016      333.897        3.508      845.406
10/28/2013  04:51:00     -116.010       25.199      -11.729       68.736       32.137       30.959     4724.696     1032.809      958.470        1.047        0.336      118.715       37.815        0.101      333.870        3.468      845.432
10/28/2013  04:52:00     -155.765        8.723      -28.638       72.627       56.438       25.300     5274.673     3185.203      640.065        1.713        0.455      156.009       28.011        0.032      333.851        3.435      845.444
10/28/2013  04:53:00     -153.419      -54.081      -16.854       57.501       51.887       30.033     3306.375     2692.215      901.962        1.682        0.345      162.672       21.762        0.018      333.911        3.534      845.462
10/28/2013  04:54:00     -114.155       62.309      -16.230       66.190       68.098       42.062     4381.178     4637.387     1769.213        1.398        0.539      130.053       45.959        0.125      333.858        3.447      845.477
10/28/2013  04:55:00     -127.214      -17.683      -14.187       45.256       40.095       16.912     2048.070     1607.586      286.028        1.032        0.197      128.437       20.627        0.026      333.834        3.410      845.495
10/28/2013  04:56:00      -96.152      -69.160       10.082       54.032       34.971       27.362     2919.511     1222.973      748.685        0.951        0.245      118.441       26.142        0.049      333.894        3.507      845.500
10/28/2013  04:57:00     -102.419       -2.814       -7.421       32.475       48.063       22.779     1054.602     2310.051      518.880        0.722        0.194      102.457       16.681        0.027      333.829        3.400      845.505
10/28/2013  04:58:00     -112.073       -7.290      -13.862       43.549       42.902       24.304     1896.478     1840.565      590.692        0.857        0.216      112.310       17.942        0.026      333.839        3.416      845.503
10/28/2013  04:59:00     -105.098      -45.008      -15.942       43.829       36.219       28.014     1921.023     1311.796      784.780        0.867        0.201      114.330       12.300        0.012      333.890        3.501      845.518
10/28/2013  05:00:00     -138.490      -40.214      -12.623       40.803       34.042       19.411     1664.863     1158.825      376.787        1.208        0.160      144.210       15.240        0.011      333.901        3.519      845.538
10/28/2013  05:01:00     -137.826       17.878      -24.885       53.041       50.959       30.848     2813.313     2596.798      951.623        1.315        0.318      138.981       31.301        0.051      333.891        3.503      845.570
10/28/2013  05:02:00      -53.842       77.248       -8.720       46.269       44.400       26.556     2140.850     1971.400      705.204        0.688        0.241       94.160       20.691        0.048      333.981        3.651      845.592
10/28/2013  05:03:00      -66.764      105.578      -16.209       34.947       33.444       19.043     1221.312     1118.496      362.633        0.928        0.135      124.916       16.741        0.018      333.966        3.628      845.606
10/28/2013  05:04:00      -45.503      148.343      -11.728       51.407       74.423       34.549     2642.636     5538.852     1193.634        1.679        0.469      155.165       35.051        0.051      334.002        3.685      845.612
10/28/2013  05:05:00      -52.786       74.359       -7.545       35.511       41.437       25.927     1261.014     1717.045      672.223        0.601        0.183       91.190       21.649        0.056      333.988        3.666      845.627
10/28/2013  05:06:00      -34.721       75.704      -13.054       33.457       39.097       23.386     1119.399     1528.598      546.900        0.515        0.160       83.287       13.543        0.026      334.008        3.696      845.641
10/28/2013  05:07:00      -25.044       42.058       -2.387       36.522       38.385       16.104     1333.859     1473.412      259.330        0.273        0.153       48.950       17.002        0.121      334.074        3.807      845.654
10/28/2013  05:08:00      -15.646      154.354      -18.282       29.965       55.946       29.762      897.901     3129.949      885.789        1.466        0.246      155.145       33.191        0.046      333.891        3.502      845.665
10/28/2013  05:09:00       46.421       84.271      -12.707       31.857       34.080       25.060     1014.877     1161.439      627.989        0.611        0.140       96.210       17.457        0.033      333.810        3.368      845.660
10/28/2013  05:10:00       33.296      138.599      -11.786       42.956       49.236       32.787     1845.175     2424.193     1075.015        1.290        0.267      142.542       27.914        0.038      333.756        3.279      845.666
10/28/2013  05:11:00      -34.236      116.400      -21.471       43.376       51.602       25.738     1881.454     2662.777      662.427        1.019        0.260      121.330       23.451        0.037      333.897        3.513      845.677
10/28/2013  05:12:00       -8.973       98.100       -3.698       36.539       48.894       26.251     1335.077     2390.632      689.122        0.707        0.221       98.509       22.626        0.053      333.853        3.441      845.691
10/28/2013  05:13:00        8.661       52.848        3.917       45.389       48.013       27.582     2060.156     2305.269      760.745        0.400        0.256       53.553       23.901        0.199      333.816        3.380      845.695
10/28/2013  05:14:00       10.392      116.827       -9.053       41.589       76.246       38.085     1729.653     5813.422     1450.459        1.141        0.450      117.288       46.969        0.160      333.789        3.333      845.705
10/28/2013  05:15:00       -9.747      148.863      -22.647       48.252       67.656       32.968     2328.270     4577.344     1086.917        1.538        0.400      149.182       35.836        0.058      333.777        3.312      845.705
10/28/2013  05:16:00       -7.745      125.679       -5.900       36.463       88.592       35.943     1329.537     7848.497     1291.927        1.318        0.523      125.918       44.346        0.124      333.787        3.329      845.724
10/28/2013  05:17:00        2.855      142.849       -6.105       44.427       66.976       39.056     1973.770     4485.747     1525.338        1.422        0.399      142.877       40.012        0.078      333.834        3.407      845.744
10/28/2013  05:18:00      -18.985       56.556        2.985       52.334       37.624       30.060     2738.856     1415.546      903.620        0.431        0.253       59.657       27.258        0.209      333.924        3.558      845.758
10/28/2013  05:19:00      -85.472      125.701      -14.618       82.791       73.426       42.222     6854.309     5391.391     1782.675        1.867        0.701      152.008       52.427        0.119      333.935        3.575      845.789
10/28/2013  05:20:00      -76.698      244.149      -25.597       71.139       98.212       36.994     5060.799     9645.506     1368.550        4.111        0.804      255.913       39.321        0.024      333.802        3.353      845.798
10/28/2013  05:21:00      -37.043      259.995      -30.930       47.711       83.938       30.841     2276.352     7045.609      951.145        4.010        0.514      262.621       32.722        0.016      333.787        3.327      845.801
10/28/2013  05:22:00      -61.292      167.730      -16.974       46.290       64.010       32.475     2142.740     4097.286     1054.641        1.974        0.365      178.577       32.338        0.033      333.831        3.402      845.831
10/28/2013  05:23:00      -43.975      105.476       -6.772       28.310       62.515       29.461      801.428     3908.078      867.924        0.934        0.279      114.276       25.113        0.048      333.944        3.591      845.861
10/28/2013  05:24:00      -62.370      123.167      -19.086       45.100       85.278       31.736     2033.971     7272.282     1007.201        1.487        0.516      138.058       39.432        0.082      333.922        3.554      845.873
10/28/2013  05:25:00      -58.405      171.705      -10.889       69.146       79.960       41.333     4781.142     6393.540     1708.400        2.295        0.644      181.366       37.100        0.042      333.908        3.530      845.881
10/28/2013  05:26:00      -69.577       71.424      -16.771       27.070       33.368       23.984      732.788     1113.453      575.222        0.632        0.121       99.711       15.493        0.024      333.844        3.425      845.893
10/28/2013  05:27:00      -80.504       12.705      -16.970       27.684       36.625       19.732      766.412     1341.376      389.339        0.471        0.125       81.500       15.017        0.034      333.858        3.447      845.891
10/28/2013  05:28:00      -52.518       47.941       -3.268       50.934       48.403       28.128     2594.272     2342.879      791.189        0.540        0.286       71.108       33.261        0.219      333.937        3.580      845.887
10/28/2013  05:29:00     -153.753      111.636      -39.074       20.740       43.309       18.867      430.139     1875.696      355.949        2.015        0.133      190.007       19.819        0.011      333.717        3.214      845.892
10/28/2013  05:30:00      -98.638       42.707       -9.027       42.727       45.042       26.656     1825.576     2028.763      710.561        0.810        0.228      107.486       11.972        0.012      333.780        3.318      845.884
10/28/2013  05:31:00     -136.557      133.748      -33.541       66.303       53.815       39.886     4396.050     2896.036     1590.904        2.327        0.444      191.145       30.498        0.025      333.759        3.282      845.901
10/28/2013  05:32:00      -77.111       50.745       -4.038       72.849       41.062       28.492     5306.939     1686.089      811.810        0.817        0.390       92.310       37.681        0.167      333.786        3.329      845.908
10/28/2013  05:33:00        4.493       94.434        4.771       38.047       74.377       29.848     1447.574     5532.007      890.896        0.841        0.394       94.541       38.629        0.167      333.874        3.475      845.908
10/28/2013  05:34:00      -62.731      115.286      -15.860       38.140       51.894       29.867     1454.694     2692.980      892.009        1.126        0.252      131.248       29.796        0.052      333.990        3.668      845.922
10/28/2013  05:35:00      -54.136      109.951      -13.644       33.711       53.616       22.067     1136.400     2874.684      486.962        0.985        0.225      122.556       15.237        0.015      333.909        3.534      845.941
10/28/2013  05:36:00      -11.615      148.347      -14.009       29.238       58.511       28.220      854.836     3423.546      796.379        1.371        0.254      148.801       31.004        0.043      333.886        3.494      845.951
10/28/2013  05:37:00       -1.498      184.660      -17.428       41.023       68.170       30.236     1682.924     4647.086      914.241        2.082        0.362      184.666       33.900        0.034      333.777        3.313      845.959
10/28/2013  05:38:00      -66.561      172.253      -23.090       52.392       62.337       36.379     2744.957     3885.904     1323.401        2.129        0.398      184.666       26.838        0.021      333.815        3.374      845.969
10/28/2013  05:39:00      -72.882      136.637      -23.060       64.615       61.700       31.905     4175.045     3806.858     1017.915        1.675        0.450      154.859       31.909        0.042      333.842        3.421      845.985
10/28/2013  05:40:00      -32.684      205.104      -14.436       37.346       55.729       33.692     1394.759     3105.715     1135.184        2.449        0.282      207.691       29.666        0.020      333.823        3.387      845.992
10/28/2013  05:41:00     -105.899      133.924      -17.249       70.012       93.026       47.671     4901.625     8653.913     2272.496        2.264        0.791      170.734       44.771        0.069      333.867        3.462      846.008
10/28/2013  05:42:00      -63.787      158.344      -11.459       67.713       66.250       39.895     4585.080     4389.105     1591.612        1.992        0.528      170.709       38.448        0.051      333.890        3.499      846.017
10/28/2013  05:43:00      -73.702      118.547      -20.583       39.150       45.808       30.232     1532.692     2098.409      913.953        1.223        0.227      139.590       25.250        0.033      333.871        3.470      846.019
10/28/2013  05:44:00      -74.945      110.945      -17.771       47.102       50.097       29.762     2218.621     2509.758      885.787        1.193        0.281      133.886       30.520        0.052      333.963        3.624      846.026
10/28/2013  05:45:00      -67.316      110.059      -12.286       40.282       71.979       34.842     1622.653     5180.959     1213.987        1.241        0.401      129.013       35.575        0.076      334.140        3.914      846.033
10/28/2013  05:46:00      -59.319      166.839      -20.383       41.586       47.570       30.321     1729.400     2262.902      919.359        1.834        0.246      177.070       28.350        0.026      334.064        3.787      846.045
10/28/2013  05:47:00      -14.077      179.802      -10.453       67.723       91.301       47.657     4586.372     8335.937     2271.181        2.391        0.760      180.352       54.217        0.090      333.959        3.613      846.050
10/28/2013  05:48:00      -85.831      238.187      -20.309       69.164      109.661       48.474     4783.595    12025.460     2349.763        4.183        0.958      253.180       59.279        0.055      333.908        3.528      846.058
10/28/2013  05:49:00     -133.782      178.553      -28.579       81.805       69.187       43.279     6691.999     4786.795     1873.096        3.197        0.668      223.111       48.429        0.047      333.857        3.443      846.064
10/28/2013  05:50:00      -73.401      221.173      -21.210       64.534      107.567       41.173     4164.673    11570.619     1695.245        3.609        0.872      233.034       45.908        0.039      333.890        3.498      846.054
10/28/2013  05:51:00      -96.529      177.523      -30.567       55.189       60.770       31.424     3045.856     3692.941      987.437        2.475        0.386      202.070       26.864        0.018      333.912        3.536      846.072
10/28/2013  05:52:00      -89.408      142.625      -20.797       52.185       70.617       34.880     2723.255     4986.787     1216.591        1.885        0.446      168.332       26.404        0.025      333.897        3.511      846.081
10/28/2013  05:53:00     -113.151       60.117       -9.646       51.614       80.632       45.704     2663.984     6501.462     2088.888        1.388        0.563      128.130       36.357        0.081      333.967        3.628      846.078
10/28/2013  05:54:00     -136.174      136.204      -35.085       48.983       51.645       34.003     2399.357     2667.226     1156.201        2.227        0.311      192.600       33.262        0.030      333.911        3.534      846.089
10/28/2013  05:55:00     -114.666      134.771      -23.982       49.041       77.570       33.797     2405.057     6017.109     1142.229        2.072        0.478      176.950       26.936        0.023      333.946        3.594      846.094
10/28/2013  05:56:00     -158.832      141.088      -23.394       78.692       64.169       37.916     6192.385     4117.679     1437.634        2.871        0.587      212.447       29.172        0.019      333.990        3.664      846.092
10/28/2013  05:57:00      -95.064      154.380      -16.310       40.101       66.218       32.529     1608.092     4384.829     1058.139        2.009        0.353      181.302       32.620        0.032      334.054        3.770      846.094
10/28/2013  05:58:00      -94.478      108.581      -16.018       44.135       70.266       30.907     1947.935     4937.251      955.257        1.441        0.392      143.930       32.516        0.051      334.132        3.901      846.094
10/28/2013  05:59:00      -89.593      103.499       -9.960       68.500       62.647       36.402     4692.185     3924.608     1325.098        1.439        0.497      136.890       40.963        0.090      334.179        3.979      846.093
10/28/2013  06:00:00     -122.949      134.780      -33.607       59.703       69.240       35.903     3564.413     4794.174     1289.023        2.203        0.482      182.434       39.977        0.048      334.113        3.869      846.099
10/28/2013  06:01:00     -102.632       63.505      -10.756       51.423       64.599       27.578     2644.368     4173.076      760.566        1.113        0.379      120.690       28.262        0.055      334.207        4.028      846.101
10/28/2013  06:02:00     -135.805       60.818      -17.365       71.986       80.453       38.095     5182.018     6472.737     1451.235        1.777        0.655      148.801       23.008        0.024      334.174        3.970      846.101
10/28/2013  06:03:00     -159.489      -39.825      -25.218       49.891       48.602       32.080     2489.161     2362.199     1029.096        1.677        0.294      164.386       24.382        0.022      334.192        4.001      846.090
10/28/2013  06:04:00     -168.184      -43.384      -10.124       45.148       50.941       22.692     2038.304     2595.018      514.911        1.771        0.257      173.690       16.376        0.009      334.126        3.891      846.098
10/28/2013  06:05:00     -139.282       15.272      -21.163       44.884       52.936       22.047     2014.610     2802.191      486.058        1.269        0.265      140.117       16.926        0.015      334.130        3.900      846.094
10/28/2013  06:06:00     -186.327      -14.723      -13.766       65.020       59.214       36.257     4227.655     3506.307     1314.550        2.208        0.452      186.907       20.757        0.012      334.181        3.982      846.076
10/28/2013  06:07:00     -195.065      -19.107      -12.791       70.602       65.597       40.325     4984.667     4303.025     1626.066        2.474        0.546      195.999       38.558        0.039      334.133        3.900      846.062
10/28/2013  06:08:00     -179.399       12.030       -9.207       63.273       37.621       26.923     4003.506     1415.364      724.855        1.928        0.307      179.802       32.105        0.032      334.123        3.885      846.056
10/28/2013  06:09:00     -128.019       -4.989      -14.218       50.882       34.239       21.251     2588.933     1172.298      451.603        1.041        0.211      128.117       22.904        0.032      334.106        3.859      846.065
10/28/2013  06:10:00      -45.675      -38.943       11.367       62.462       40.095       38.614     3901.450     1607.623     1491.077        0.536        0.350       60.023       39.870        0.441      334.193        4.005      846.065
10/28/2013  06:11:00      -60.249       31.435        7.135       56.852       30.074       29.460     3232.196      904.475      867.866        0.484        0.250       67.957       32.708        0.232      334.116        3.878      846.075
10/28/2013  06:12:00     -136.387       47.285       -6.480       54.924       44.266       25.633     3016.636     1959.486      657.041        1.326        0.282      144.351       19.430        0.018      334.048        3.763      846.074
10/28/2013  06:13:00      -80.753       38.559       -3.718       52.659       30.679       29.112     2772.967      941.186      847.513        0.629        0.228       89.487       24.976        0.078      334.096        3.842      846.065
10/28/2013  06:14:00     -153.571       54.733      -22.796       43.088       45.582       25.572     1856.615     2077.716      653.939        1.584        0.229      163.033       18.172        0.012      334.043        3.756      846.070
10/28/2013  06:15:00     -116.226        4.014      -21.044       38.467       32.019       12.863     1479.683     1025.214      165.468        0.832        0.134      116.295        8.948        0.006      334.051        3.769      846.083
10/28/2013  06:16:00     -119.195       15.420      -18.604       51.640       41.261       22.255     2666.682     1702.466      495.271        0.983        0.243      120.188       20.364        0.029      334.088        3.830      846.095
10/28/2013  06:17:00     -168.523       37.771      -18.740       48.314       35.512       21.677     2334.211     1261.096      469.908        1.712        0.203      172.704       19.364        0.013      334.008        3.697      846.101
10/28/2013  06:18:00     -110.797       62.716      -11.934       44.484       49.961       30.068     1978.791     2496.140      904.097        1.086        0.269      127.315       26.387        0.043      334.038        3.746      846.109
10/28/2013  06:19:00      -78.447       15.480      -11.749       30.704       48.367       22.277      942.740     2339.332      496.273        0.515        0.189       79.960       16.852        0.044      334.114        3.874      846.124
10/28/2013  06:20:00     -115.894      -51.280      -10.730       51.520       31.237       24.287     2654.336      975.739      589.865        1.020        0.211      126.732       19.104        0.023      334.149        3.933      846.131
10/28/2013  06:21:00      -87.982        9.404       -0.528       60.526       45.406       34.979     3663.365     2061.735     1223.501        0.739        0.347       88.483       23.202        0.069      334.125        3.891      846.128
10/28/2013  06:22:00      -88.034      -52.583       -5.559       62.072       29.507       23.239     3852.883      870.643      540.053        0.790        0.263      102.543       22.519        0.048      334.100        3.850      846.129
10/28/2013  06:23:00     -170.110      -43.820      -10.864       58.296       39.192       19.531     3398.429     1536.014      381.462        1.814        0.266      175.664       22.326        0.016      334.003        3.688      846.130
10/28/2013  06:24:00     -183.493      -73.631      -15.613       31.634       34.630       29.910     1000.717     1199.223      894.580        2.121        0.155      197.715       15.698        0.006      334.036        3.743      846.122
10/28/2013  06:25:00     -178.013      -59.091      -19.102       41.742       27.668       18.874     1742.434      765.510      356.239        1.920        0.143      187.564       12.084        0.004      333.990        3.666      846.115
10/28/2013  06:26:00     -118.939      -22.961       -3.265       54.256       30.709       23.475     2943.717      943.049      551.065        0.956        0.222      121.135       25.696        0.045      334.024        3.725      846.131
10/28/2013  06:27:00     -137.180      -39.691      -11.048       49.123       42.792       26.502     2413.050     1831.147      702.341        1.273        0.247      142.807       24.452        0.029      334.046        3.760      846.131
10/28/2013  06:28:00      -98.098      -18.070       -3.385       51.979       38.854       27.728     2701.855     1509.636      768.864        0.747        0.249       99.748       25.525        0.065      334.030        3.734      846.132
10/28/2013  06:29:00     -205.713      -32.085      -22.267       31.163       30.104       19.220      971.138      906.262      369.408        2.304        0.112      208.200       20.933        0.010      333.955        3.609      846.131
10/28/2013  06:30:00     -142.920      -47.882      -15.612       28.283       25.393       14.172      799.949      644.803      200.858        1.230        0.082      150.728        8.549        0.003      333.936        3.578      846.126
10/28/2013  06:31:00     -168.037      -18.704      -17.506       31.840       28.429       19.075     1013.817      808.223      363.849        1.554        0.109      169.075       17.852        0.011      333.990        3.666      846.113
10/28/2013  06:32:00     -147.903      -78.035       -2.736       37.559       36.211       24.813     1410.674     1311.227      615.681        1.565        0.167      167.226       21.327        0.016      334.003        3.689      846.118
10/28/2013  06:33:00      -52.727      -52.552       10.553       56.946       43.155       23.533     3242.827     1862.333      553.780        0.566        0.283       74.444       28.543        0.147      334.059        3.783      846.119
10/28/2013  06:34:00      -89.842      -34.355       -3.112       34.569       26.513       16.658     1195.004      702.949      277.485        0.572        0.109       96.186       13.614        0.020      333.963        3.625      846.106
10/28/2013  06:35:00      -56.558      -75.677        1.965       48.478       42.721       22.139     2350.088     1825.054      490.147        0.680        0.233       94.477       20.515        0.047      334.049        3.764      846.098
10/28/2013  06:36:00     -114.842     -101.536       -0.011       59.489       46.407       26.574     3538.971     2153.626      706.158        1.495        0.320      153.291       30.623        0.040      334.077        3.812      846.116
10/28/2013  06:37:00      -62.191      -64.956        8.238       60.645       39.008       35.217     3677.759     1521.626     1240.260        0.730        0.322       89.927       34.984        0.151      334.137        3.911      846.139
10/28/2013  06:38:00     -107.544     -116.350       -4.098       73.196       52.823       31.834     5357.641     2790.264     1013.423        1.714        0.458      158.440       35.498        0.050      334.058        3.779      846.137
10/28/2013  06:39:00      -44.679      -68.052        6.082       66.309       40.232       30.193     4396.865     1618.590      911.630        0.679        0.346       81.408       26.536        0.106      334.121        3.885      846.136
10/28/2013  06:40:00      -48.752      -38.778       13.344       46.625       35.494       25.000     2173.879     1259.819      624.984        0.406        0.203       62.294       20.621        0.110      334.147        3.928      846.140
10/28/2013  06:41:00      -19.519       -3.703       10.441       22.933       27.954       21.841      525.907      781.438      477.046        0.114        0.089       19.867       14.700        0.547      334.195        4.009      846.138
10/28/2013  06:42:00      -52.826      -21.743       -4.581       27.988       32.641       13.578      783.346     1065.409      184.374        0.266        0.102       57.126        7.567        0.018      334.157        3.944      846.150
10/28/2013  06:43:00      -52.391      -18.349        7.572       30.616       31.637       21.065      937.364     1000.883      443.718        0.276        0.119       55.511       18.733        0.114      334.250        4.100      846.172
10/28/2013  06:44:00      -62.184        4.739        6.246       36.820       30.479       20.614     1355.745      928.939      424.920        0.332        0.135       62.365       20.451        0.108      334.210        4.032      846.196
10/28/2013  06:45:00      -65.872        7.805       -5.177       49.525       27.752       18.492     2452.759      770.149      341.946        0.400        0.178       66.332       19.391        0.085      334.119        3.881      846.217
10/28/2013  06:46:00      -40.933      -22.697        6.392       49.981       38.616       19.176     2498.078     1491.190      367.728        0.329        0.218       46.805       26.622        0.324      334.160        3.950      846.222
10/28/2013  06:47:00      -59.160      -38.146       -2.605       36.075       25.581       23.346     1301.440      654.395      545.030        0.373        0.125       70.392       15.592        0.049      334.219        4.047      846.226
10/28/2013  06:48:00      -80.864        5.995       -4.264       42.036       31.817       23.750     1766.998     1012.299      564.059        0.497        0.167       81.086       20.346        0.063      334.183        3.988      846.218
10/28/2013  06:49:00      -50.458      -37.208       -3.117       36.404       27.944       16.733     1325.223      780.847      279.982        0.316        0.119       62.694       15.050        0.058      334.264        4.121      846.212
10/28/2013  06:50:00      -51.601       -8.347        2.675       34.940       29.281       18.088     1220.787      857.378      327.172        0.257        0.120       52.271       18.610        0.127      334.268        4.130      846.213
10/28/2013  06:51:00      -47.486       -8.998       -0.727       19.040       14.344       11.763      362.538      205.745      138.358        0.152        0.035       48.331       10.917        0.051      334.238        4.079      846.191
10/28/2013  06:52:00      -95.478       -1.886       -9.909       34.949       30.329       22.475     1221.408      919.827      505.107        0.593        0.132       95.497       19.358        0.041      334.220        4.050      846.178
10/28/2013  06:53:00     -112.820      -36.135       -9.036       33.039       31.968       22.523     1091.605     1021.961      507.287        0.837        0.131      118.465       21.515        0.033      334.166        3.959      846.156
10/28/2013  06:54:00      -91.175      -29.351       -5.820       24.998       26.258       18.911      624.877      689.482      357.621        0.544        0.084       95.783       10.016        0.011      334.219        4.047      846.148
10/28/2013  06:55:00     -129.861       37.457      -12.721       50.749       23.635       18.456     2575.422      558.613      340.619        1.095        0.174      135.156       13.913        0.011      334.138        3.912      846.170
10/28/2013  06:56:00     -119.574       10.376      -12.891       30.757       18.380       16.076      946.022      337.823      258.441        0.806        0.077      120.023       11.201        0.009      334.135        3.906      846.181
10/28/2013  06:57:00      -86.952        4.974       -7.437       31.248       24.548       19.147      976.431      602.595      366.599        0.479        0.097       87.094       14.669        0.028      334.203        4.019      846.203
10/28/2013  06:58:00      -50.907       37.404      -14.269       37.441       41.485       17.299     1401.851     1720.996      299.268        0.381        0.171       63.171       15.518        0.060      334.169        3.965      846.225
10/28/2013  06:59:00       -0.741       83.069      -11.427       26.950       23.972       13.349      726.324      574.637      178.189        0.426        0.074       83.073        8.999        0.012      334.133        3.904      846.223
10/28/2013  07:00:00      -60.166       51.192       -9.398       40.016       46.069       16.540     1601.275     2122.328      273.585        0.516        0.200       78.997       17.338        0.048      334.218        4.045      846.238
10/28/2013  07:01:00      -69.023       12.100       -1.259       32.969       31.471       16.236     1086.986      990.448      263.599        0.363        0.117       70.076       17.334        0.061      334.157        3.942      846.245
10/28/2013  07:02:00        7.796       59.050        4.760       27.628       39.100       22.774      763.282     1528.805      518.639        0.319        0.141       59.562       25.506        0.183      334.172        3.970      846.238
10/28/2013  07:03:00       23.768       74.635      -16.632       23.586       29.055       17.141      556.278      844.198      293.820        0.405        0.085       78.328       16.625        0.045      334.074        3.805      846.237
10/28/2013  07:04:00        1.444       32.649      -12.380       21.019       20.460       14.597      441.786      418.620      213.078        0.115        0.054       32.681        9.632        0.087      334.130        3.900      846.239
10/28/2013  07:05:00        6.115       73.266       -7.785       37.638       44.423       25.629     1416.634     1973.419      656.851        0.476        0.202       73.521       27.057        0.135      334.171        3.968      846.223
10/28/2013  07:06:00        3.938        3.459       -7.212       22.155       43.628       14.618      490.845     1903.431      213.689        0.134        0.130        5.242        7.760        2.192      334.187        3.995      846.208
10/28/2013  07:07:00      -36.160      -64.218       -1.390       37.485       26.809       21.981     1405.153      718.707      483.171        0.402        0.130       73.698       16.487        0.050      334.344        4.255      846.202
10/28/2013  07:08:00      -70.140      -44.586       -5.162       33.128       34.358       19.584     1097.486     1180.449      383.542        0.480        0.133       83.112       16.222        0.038      334.332        4.236      846.183
10/28/2013  07:09:00      -98.090      -41.598      -12.183       20.655       18.443       11.472      426.624      340.135      131.614        0.620        0.045      106.546       10.734        0.010      334.211        4.033      846.186
10/28/2013  07:10:00      -91.268       -7.948      -15.477       25.664       21.379       20.715      658.644      457.077      429.122        0.509        0.077       91.613       19.075        0.043      334.214        4.039      846.188
10/28/2013  07:11:00      -46.691       -9.186       -0.959       25.516       30.003       14.995      651.071      900.195      224.843        0.202        0.089       47.586       17.282        0.132      334.294        4.173      846.195
10/28/2013  07:12:00      -41.585      -77.245       -7.436       28.348       21.054       19.436      803.588      443.250      377.769        0.469        0.081       87.727       11.586        0.017      334.273        4.137      846.198
10/28/2013  07:13:00       -2.462     -102.914        1.589       49.291       48.679       26.830     2429.584     2369.636      719.864        0.806        0.276      102.943       25.467        0.061      334.295        4.176      846.212
10/28/2013  07:14:00      -31.586      -40.466       -2.466       47.612       32.489       22.958     2266.885     1055.535      527.076        0.324        0.192       51.334       18.943        0.136      334.432        4.401      846.230
10/28/2013  07:15:00      -25.916      -26.522        3.449       26.553       19.995       13.976      705.048      399.785      195.321        0.134        0.065       37.082       10.871        0.086      334.370        4.299      846.242
10/28/2013  07:16:00      -60.105       11.583       -1.791       23.660       17.988       10.546      559.804      323.565      111.214        0.237        0.050       61.211        8.946        0.021      334.243        4.088      846.258
10/28/2013  07:17:00      -65.661      -14.875      -18.325       19.260       17.380       14.611      370.944      302.054      213.476        0.288        0.044       67.325       11.976        0.032      334.211        4.033      846.277
10/28/2013  07:18:00      -67.455       -3.996       -5.861       18.384       24.654       16.909      337.982      607.820      285.920        0.292        0.062       67.574       14.030        0.043      334.224        4.054      846.283
10/28/2013  07:19:00      -37.207       -8.076       -0.278       28.043       29.285       17.247      786.399      857.603      297.456        0.170        0.097       38.074       18.339        0.232      334.284        4.154      846.297
10/28/2013  07:20:00      -95.183        2.784      -10.336       28.677       15.590       10.981      822.388      243.050      120.586        0.518        0.059       95.223       12.156        0.016      334.225        4.056      846.315
10/28/2013  07:21:00      -73.983      -33.758       -8.343       29.416       21.538       15.276      865.327      463.902      233.366        0.412        0.078       81.321        7.833        0.009      334.247        4.095      846.318
10/28/2013  07:22:00      -49.792      -16.842       -8.512       26.050       20.297       14.779      678.614      411.981      218.431        0.207        0.065       52.563       11.046        0.044      334.304        4.189      846.328
10/28/2013  07:23:00      -95.665      -11.676      -12.996       35.144       44.930       18.100     1235.124     2018.668      327.620        0.652        0.179       96.375       16.452        0.029      334.199        4.014      846.339
10/28/2013  07:24:00      -73.454      -12.427       -4.557       21.131       20.480       15.060      446.528      419.451      226.793        0.333        0.055       74.498        8.458        0.013      334.251        4.101      846.335
10/28/2013  07:25:00      -32.739      -12.965        3.718       25.127       23.581       13.072      631.384      556.080      170.874        0.131        0.068       35.213       14.083        0.160      334.238        4.079      846.339
10/28/2013  07:26:00      -42.212       15.307      -11.401        8.032       11.927        8.966       64.521      142.248       80.390        0.122        0.014       44.902        6.732        0.022      334.285        4.158      846.358
10/28/2013  07:27:00      -36.364       38.860       -7.717       16.443       22.355       16.761      270.384      499.731      280.918        0.197        0.053       53.221       12.359        0.054      334.283        4.153      846.357
10/28/2013  07:28:00      -58.220      -33.340       -7.388       33.119       32.295       18.774     1096.836     1042.941      352.459        0.352        0.125       67.090       18.946        0.080      334.341        4.251      846.358
10/28/2013  07:29:00      -67.338      -12.325       -5.387       24.939       38.266       16.549      621.959     1464.266      273.876        0.354        0.118       68.457       14.603        0.046      334.387        4.328      846.377
10/28/2013  07:30:00     -145.154       34.275       -9.182       65.974       25.299       23.153     4352.617      640.062      536.052        1.393        0.276      149.146       26.879        0.032      334.302        4.185      846.399
10/28/2013  07:31:00     -149.277       26.608      -18.078       40.275       28.017       21.091     1622.057      784.941      444.817        1.308        0.143      151.629       18.488        0.015      334.296        4.176      846.407
10/28/2013  07:32:00     -203.015      -16.708      -18.468       51.782       50.094       35.760     2681.390     2509.454     1278.812        2.415        0.323      203.701       31.158        0.023      334.261        4.115      846.421
10/28/2013  07:33:00     -203.690      -10.423      -23.816       38.821       35.152       23.726     1507.107     1235.696      562.910        2.274        0.165      203.957       10.851        0.003      334.264        4.120      846.401
10/28/2013  07:34:00     -147.257      -40.108      -10.697       50.238       47.089       26.258     2523.904     2217.356      689.462        1.442        0.272      152.621       24.514        0.026      334.244        4.089      846.410
10/28/2013  07:35:00     -105.525      -67.415        3.655       81.714       46.118       29.395     6677.104     2126.916      864.064        1.268        0.483      125.221       38.332        0.094      334.291        4.167      846.428
10/28/2013  07:36:00      -39.139      -52.562       28.620       73.280       47.004       36.639     5369.987     2209.391     1342.384        0.702        0.446       65.533       37.606        0.329      334.329        4.230      846.443
10/28/2013  07:37:00      -97.382      -76.036       -2.969       67.252       56.018       30.476     4522.782     3137.984      928.764        1.193        0.429      123.550       34.901        0.080      334.323        4.219      846.449
10/28/2013  07:38:00     -139.405      -34.287       -3.706       63.159       40.155       31.565     3989.037     1612.441      996.326        1.361        0.330      143.559       26.767        0.035      334.269        4.130      846.464
10/28/2013  07:39:00     -164.155       -7.462       -7.967       57.201       37.894       28.871     3271.903     1435.958      833.554        1.630        0.277      164.325       23.153        0.020      334.222        4.050      846.478
10/28/2013  07:40:00     -228.368       17.114      -25.183       37.267       28.915       21.046     1388.818      836.062      442.927        2.787        0.133      229.008       12.326        0.003      334.139        3.910      846.489
10/28/2013  07:41:00     -162.334       35.254      -16.299       53.424       23.473       19.592     2854.117      550.990      383.834        1.582        0.189      166.118       12.982        0.006      334.100        3.848      846.508
10/28/2013  07:42:00      -65.597        2.977       -8.547       24.550       17.964       10.821      602.694      322.722      117.098        0.271        0.052       65.665        9.415        0.021      334.139        3.912      846.530
10/28/2013  07:43:00      -62.796      -33.710       -2.161       38.643       22.719       17.579     1493.245      516.173      309.018        0.370        0.116       71.272       22.218        0.097      334.219        4.048      846.547
10/28/2013  07:44:00      -75.994      -33.206        5.509       75.891       40.025       25.989     5759.473     1602.000      675.417        0.747        0.402       82.932       37.793        0.208      334.315        4.206      846.569
10/28/2013  07:45:00      -72.270      -29.729        4.945       66.386       37.029       23.737     4407.166     1371.124      563.430        0.624        0.317       78.146       31.902        0.167      334.268        4.129      846.589
10/28/2013  07:46:00      -81.947      -53.927        2.400       51.517       39.175       21.121     2654.010     1534.689      446.098        0.713        0.232       98.099       20.857        0.045      334.330        4.232      846.612
10/28/2013  07:47:00     -108.542      -73.543        2.499       56.656       42.169       28.515     3209.898     1778.227      813.097        1.150        0.290      131.110       25.421        0.038      334.266        4.124      846.631
10/28/2013  07:48:00     -111.604      -65.109       -1.504       57.838       45.214       23.111     3345.218     2044.323      534.100        1.131        0.296      129.208       23.974        0.034      334.290        4.165      846.653
10/28/2013  07:49:00     -122.616        0.417       -9.906       46.990       41.220       25.474     2208.053     1699.090      648.936        0.984        0.228      122.617       24.982        0.042      334.324        4.223      846.674
10/28/2013  07:50:00     -187.336        1.525      -27.841       42.302       48.845       22.051     1789.474     2385.818      486.263        2.027        0.233      187.342       17.014        0.008      334.354        4.271      846.690
10/28/2013  07:51:00      -69.824      -54.132        8.276       51.208       36.775       27.635     2622.275     1352.378      763.710        0.631        0.237       88.350       15.849        0.032      334.395        4.339      846.702
10/28/2013  07:52:00     -159.387      -73.669       -8.969       76.012       52.830       31.397     5777.898     2791.047      985.781        2.023        0.478      175.588       29.326        0.028      334.405        4.354      846.697
10/28/2013  07:53:00     -184.498      -67.720       -7.515       57.070       34.481       29.930     3256.997     1188.973      895.779        2.201        0.267      196.534       25.170        0.016      334.340        4.246      846.705
10/28/2013  07:54:00     -212.994      -37.510      -13.423       43.163       68.438       31.384     1863.052     4683.697      984.928        2.724        0.377      216.272       25.304        0.014      334.285        4.152      846.719
10/28/2013  07:55:00      -86.730      -45.517        7.852       69.908       69.614       41.297     4887.139     4846.144     1705.455        1.055        0.572       97.948       29.244        0.089      334.392        4.335      846.739
10/28/2013  07:56:00      -81.999      -71.945        3.778       62.451       42.938       28.504     3900.173     1843.676      812.457        0.923        0.328      109.086       30.876        0.080      334.272        4.135      846.749
10/28/2013  07:57:00     -182.473      -33.026       -7.090       50.725       34.501       26.210     2573.005     1190.317      686.976        1.944        0.223      185.438       11.765        0.004      334.219        4.045      846.764
10/28/2013  07:58:00     -283.630      -28.615      -13.183      117.511       85.370       42.786    13808.827     7288.034     1830.620        5.218        1.146      285.069       55.038        0.037      334.287        4.157      846.776
10/28/2013  07:59:00     -261.110        0.850      -25.915       88.109       63.583       31.324     7763.165     4042.785      981.191        4.082        0.639      261.111       30.958        0.014      334.296        4.172      846.781
10/28/2013  08:00:00     -172.375      -37.962        2.864       62.688       48.377       29.047     3929.817     2340.361      843.744        1.914        0.356      176.506       28.182        0.025      334.326        4.224      846.792
10/28/2013  08:01:00     -155.046      -49.399        1.351       82.857       53.284       35.601     6865.228     2839.174     1267.454        1.872        0.549      162.726       39.773        0.060      334.346        4.258      846.803
10/28/2013  08:02:00     -244.000      -37.656      -24.952       67.324       63.056       34.941     4532.550     3976.053     1220.888        3.565        0.486      246.888       31.282        0.016      334.329        4.227      846.815
10/28/2013  08:03:00     -202.320      -34.486       -9.329       82.921       80.246       42.588     6875.823     6439.388     1813.743        2.867        0.756      205.238       40.090        0.038      334.303        4.182      846.829
10/28/2013  08:04:00     -181.881       16.274       -8.406       51.704       69.257       38.955     2673.292     4796.588     1517.500        2.120        0.449      182.607       31.767        0.030      334.254        4.103      846.843
10/28/2013  08:05:00     -208.765       -9.807      -12.454       65.071       65.949       38.994     4234.246     4349.235     1520.543        2.697        0.505      208.995       38.216        0.033      334.304        4.183      846.853
10/28/2013  08:06:00     -179.935      -76.023        1.306       70.328       48.292       32.850     4946.007     2332.085     1079.143        2.326        0.418      195.336       30.373        0.024      334.298        4.175      846.866
10/28/2013  08:07:00     -244.541      -66.220      -14.892       41.129       47.418       24.276     1691.602     2248.431      589.338        3.447        0.226      253.349       17.788        0.005      334.219        4.039      846.879
10/28/2013  08:08:00     -134.849      -41.989       -3.515       62.373       39.371       25.819     3890.425     1550.087      666.595        1.303        0.305      141.235       27.255        0.037      334.288        4.161      846.873
10/28/2013  08:09:00     -145.496      -59.609        1.090       50.365       45.963       31.371     2536.611     2112.630      984.134        1.518        0.282      157.233       25.159        0.026      334.387        4.327      846.886
10/28/2013  08:10:00     -195.541      -50.477      -15.755       67.821       48.797       33.572     4599.669     2381.119     1127.083        2.457        0.405      201.951       34.083        0.028      334.387        4.326      846.909
10/28/2013  08:11:00     -270.720      -23.989      -18.457       66.085       53.653       40.245     4367.216     2878.691     1619.648        4.153        0.443      271.781       34.639        0.016      334.391        4.328      846.918
10/28/2013  08:12:00     -269.591       11.865      -13.513      129.241       89.463       39.538    16703.340     8003.600     1563.219        4.963        1.314      269.852       45.764        0.029      334.438        4.408      846.934
10/28/2013  08:13:00     -187.074      -37.235       -8.151      103.482       63.277       38.614    10708.490     4004.022     1491.061        2.632        0.810      190.744       44.484        0.054      334.519        4.541      846.947
10/28/2013  08:14:00     -155.448      -32.111        7.275       83.342       57.301       38.770     6945.928     3283.415     1503.117        1.849        0.587      158.730       40.269        0.064      334.556        4.605      846.969
10/28/2013  08:15:00     -296.927      -14.090      -16.886      109.372       92.728       59.446    11962.299     8598.461     3533.811        5.637        1.205      297.261       52.558        0.031      334.525        4.552      846.980
10/28/2013  08:16:00     -266.463     -143.020       -5.931      103.153       81.729       49.025    10640.612     6679.596     2403.489        5.560        0.986      302.419       50.725        0.028      334.565        4.616      846.989
10/28/2013  08:17:00     -188.832     -104.974        4.271      122.581      112.582       56.833    15026.197    12674.647     3229.976        3.881        1.547      216.049       59.363        0.075      334.629        4.724      847.003
10/28/2013  08:18:00     -269.137      -99.084      -26.685       98.927       96.901       37.463     9786.578     9389.830     1403.445        5.177        1.029      286.797       32.958        0.013      334.574        4.632      847.017
10/28/2013  08:19:00     -248.408     -117.518      -11.184       92.342       74.927       48.681     8527.068     5614.023     2369.877        4.607        0.826      274.804       45.883        0.028      334.564        4.614      847.022
10/28/2013  08:20:00     -195.221      -76.873       -5.356       87.996       68.991       37.867     7743.248     4759.697     1433.893        2.899        0.697      209.811       39.375        0.035      334.601        4.677      847.014
10/28/2013  08:21:00     -327.534      -98.854      -20.782      154.950       89.895       61.086    24009.455     8081.128     3731.543        7.665        1.791      342.127       68.207        0.040      334.555        4.600      847.014
10/28/2013  08:22:00     -165.079      -41.826        7.343      115.381       87.174       57.050    13312.763     7599.358     3254.690        2.661        1.208      170.296       61.420        0.130      334.638        4.739      847.009
10/28/2013  08:23:00     -198.382     -158.613       -0.672      140.882      108.214       67.388    19847.864    11710.263     4541.077        5.030        1.805      253.995       73.926        0.085      334.628        4.723      847.012
10/28/2013  08:24:00     -232.683     -138.859       -9.760      140.312      111.100       68.526    19687.360    12343.162     4695.748        5.512        1.836      270.967       70.553        0.068      334.587        4.654      846.994
10/28/2013  08:25:00     -176.202      -56.486        8.428      147.422      104.927       58.688    21733.100    11009.652     3444.280        3.524        1.809      185.035       62.437        0.114      334.630        4.726      847.015
10/28/2013  08:26:00     -356.130     -170.610      -21.091      117.210      104.853       64.705    13738.229    10994.246     4186.725        9.265        1.446      394.888       55.372        0.020      334.540        4.576      847.018
10/28/2013  08:27:00     -302.424     -244.352       -6.332      140.882      111.131       74.513    19847.765    12350.201     5552.162        9.447        1.888      388.803       82.246        0.045      334.581        4.644      847.025
10/28/2013  08:28:00     -264.814     -146.636       -6.483      120.400      106.276       57.644    14496.259    11294.590     3322.846        6.039        1.456      302.702       59.253        0.038      334.580        4.641      847.021
10/28/2013  08:29:00     -134.754     -114.536        9.334      128.151      122.050       71.053    16422.777    14896.157     5048.552        3.386        1.818      176.853       78.585        0.197      334.674        4.798      847.022
10/28/2013  08:30:00     -139.675      -73.220       -9.931      119.258       97.957       59.954    14222.582     9595.594     3594.448        2.619        1.371      157.703       65.123        0.171      334.663        4.780      847.039
10/28/2013  08:31:00     -264.508     -138.244      -10.418       99.289       74.891       52.518     9858.221     5608.638     2758.168        5.370        0.911      298.456       42.804        0.021      334.621        4.709      847.061
10/28/2013  08:32:00     -224.829     -140.390       -7.365      109.328       98.072       50.936    11952.708     9618.089     2594.524        4.723        1.208      265.061       53.004        0.040      334.616        4.701      847.075
10/28/2013  08:33:00     -104.857     -108.664       15.930      138.944       88.172       61.442    19305.452     7774.308     3775.079        2.695        1.543      151.006       74.923        0.246      334.658        4.773      847.100
10/28/2013  08:34:00     -201.809      -64.370        4.869      126.879       94.405       54.116    16098.370     8912.331     2928.499        3.641        1.397      211.826       60.077        0.080      334.660        4.776      847.103
10/28/2013  08:35:00     -144.837     -120.616        1.339      120.322       91.873       55.673    14477.388     8440.657     3099.476        3.077        1.301      188.483       61.258        0.106      334.645        4.752      847.120
10/28/2013  08:36:00      -93.360      -90.514        7.051       96.014       89.439       58.667     9218.669     7999.327     3441.830        1.881        1.033      130.034       62.625        0.232      334.677        4.805      847.132
10/28/2013  08:37:00     -194.461     -127.855       -8.816      115.437       71.126       61.777    13325.641     5058.976     3816.350        3.822        1.110      232.728       60.962        0.069      334.618        4.705      847.148
10/28/2013  08:38:00     -134.617     -134.128        8.307      116.398       93.478       58.685    13548.514     8738.204     3443.959        3.095        1.287      190.031       66.044        0.121      334.665        4.783      847.153
10/28/2013  08:39:00     -237.059     -109.973      -10.768      114.566      106.572       63.352    13125.444    11357.496     4013.419        4.845        1.425      261.325       70.712        0.073      334.595        4.666      847.155
10/28/2013  08:40:00     -199.348     -163.104       -9.951       93.887       86.054       52.527     8814.829     7405.300     2759.137        4.271        0.949      257.570       46.600        0.033      334.606        4.685      847.153
10/28/2013  08:41:00     -163.589     -140.489       -6.973      101.005       67.597       43.702    10201.980     4569.318     1909.868        3.161        0.834      215.635       41.716        0.037      334.679        4.807      847.165
10/28/2013  08:42:00     -223.696     -113.418       -3.374      111.568       80.326       47.775    12447.526     6452.188     2282.433        4.204        1.059      250.805       54.392        0.047      334.655        4.764      847.170
10/28/2013  08:43:00     -247.886     -113.728       -8.549      144.883      128.065       70.144    20990.954    16400.525     4920.149        5.838        2.116      272.730       67.499        0.061      334.619        4.707      847.169
10/28/2013  08:44:00     -289.920     -168.553       -7.234      125.309       96.203       60.575    15702.295     9255.074     3669.283        7.057        1.431      335.356       57.603        0.030      334.615        4.700      847.164
10/28/2013  08:45:00      -93.979      -55.556       -7.286      112.050       89.137       52.373    12555.147     7945.321     2742.906        1.760        1.162      109.172       53.281        0.238      334.679        4.810      847.181
10/28/2013  08:46:00     -147.073      -78.982       -6.119       96.949      110.834       51.308     9399.191    12284.198     2632.467        2.611        1.216      166.939       50.622        0.092      334.664        4.784      847.212
10/28/2013  08:47:00     -287.427       -9.805      -18.351      142.764       84.725       64.853    20381.598     7178.253     4205.949        5.740        1.588      287.594       75.574        0.069      334.624        4.714      847.242
10/28/2013  08:48:00     -234.831     -127.383       -5.827      132.281       86.724       57.905    17498.300     7521.096     3353.039        4.988        1.419      267.155       55.344        0.043      334.641        4.744      847.261
10/28/2013  08:49:00     -248.467      -65.911        0.821      106.725      122.378       58.523    11390.217    14976.270     3424.952        4.793        1.490      257.060       51.853        0.041      334.653        4.764      847.258
10/28/2013  08:50:00     -211.389      -72.410       -2.762      116.689       94.569       53.219    13616.285     8943.352     2832.271        3.766        1.270      223.446       41.559        0.035      334.678        4.805      847.261
10/28/2013  08:51:00     -237.996      -82.270      -16.341      112.479       95.129       49.809    12651.457     9049.509     2480.970        4.393        1.209      251.814       43.949        0.030      334.632        4.728      847.264
10/28/2013  08:52:00     -230.682     -148.156        1.127      175.112      114.411       69.609    30664.176    13089.802     4845.467        6.187        2.430      274.161       86.034        0.098      334.669        4.790      847.250
10/28/2013  08:53:00     -289.111     -116.496       -9.535      126.420      119.491       63.761    15982.141    14278.079     4065.434        6.578        1.716      311.700       54.918        0.031      334.625        4.715      847.253
10/28/2013  08:54:00     -215.530      -68.995      -11.697      121.227       79.790       56.070    14695.958     6366.396     3143.791        3.777        1.210      226.304       65.549        0.084      334.679        4.808      847.269
10/28/2013  08:55:00     -161.128     -101.754       -2.111      110.530       89.198       61.495    12216.848     7956.247     3781.677        3.013        1.198      190.567       59.181        0.096      334.713        4.863      847.264
10/28/2013  08:56:00     -248.939     -144.192       -6.260      165.221       85.953       60.391    27298.108     7387.987     3647.056        6.056        1.917      287.684       69.454        0.058      334.662        4.778      847.260
10/28/2013  08:57:00     -174.049      -90.465      -13.341       97.518       72.294       47.113     9509.725     5226.410     2219.649        2.780        0.848      196.155       46.032        0.055      334.720        4.876      847.268
10/28/2013  08:58:00     -235.072     -146.195      -15.780      115.548       98.682       48.959    13351.256     9738.149     2397.015        5.118        1.274      276.825       38.484        0.019      334.678        4.805      847.271
10/28/2013  08:59:00     -241.777      -94.975      -20.689      107.029      112.692       55.147    11455.237    12699.425     3041.244        4.755        1.360      259.762       51.038        0.039      334.677        4.803      847.286
10/28/2013  09:00:00     -312.768       14.818       -8.202      116.105       92.972       65.488    13480.444     8643.716     4288.685        6.226        1.321      313.118       62.432        0.040      334.649        4.756      847.300
10/28/2013  09:01:00     -461.671      -76.630      -30.971      151.954      110.082       66.141    23090.024    12117.945     4374.579       12.977        1.979      467.988       70.390        0.023      334.607        4.686      847.305
10/28/2013  09:02:00     -178.112      -45.831       10.475      123.658      101.222       54.756    15291.411    10245.856     2998.273        3.123        1.427      183.914       61.718        0.113      334.718        4.873      847.336
10/28/2013  09:03:00     -304.935     -124.075      -19.672      161.336      105.055       53.737    26029.441    11036.579     2887.641        7.435        1.998      329.211       61.189        0.035      334.703        4.845      847.333
10/28/2013  09:04:00     -220.269     -132.576        8.384      163.161      104.683       71.461    26621.483    10958.564     5106.647        5.442        2.134      257.089       92.198        0.129      334.703        4.847      847.332
10/28/2013  09:05:00     -176.421      -92.233        9.761      165.011       90.029       63.437    27228.653     8105.250     4024.300        3.954        1.968      199.076       79.212        0.158      334.785        4.983      847.356
10/28/2013  09:06:00     -305.324     -144.245      -19.833      137.491      106.907       60.407    18903.830    11429.028     3649.066        7.420        1.699      337.682       53.966        0.026      334.664        4.780      847.360
10/28/2013  09:07:00     -189.257     -137.393        6.415      109.974       96.039       60.462    12094.344     9223.396     3655.690        3.985        1.249      233.870       58.059        0.062      334.712        4.862      847.340
10/28/2013  09:08:00     -211.797     -118.297        2.095      185.360      102.871       68.494    34358.197    10582.438     4691.422        5.424        2.482      242.594       81.363        0.112      334.687        4.820      847.328
10/28/2013  09:09:00     -181.688      -88.844        7.282      161.910      106.751       71.264    26214.699    11395.800     5078.532        4.182        2.134      202.247       75.390        0.139      334.742        4.913      847.341
10/28/2013  09:10:00     -223.064      -78.641       -7.189      136.725       86.747       50.494    18693.638     7524.964     2549.645        4.238        1.438      236.520       65.816        0.077      334.749        4.924      847.349
10/28/2013  09:11:00      -97.272      -46.925       17.746      103.599       84.369       44.752    10732.831     7118.168     2002.768        1.591        0.993      108.000       43.336        0.161      334.844        5.084      847.342
10/28/2013  09:12:00     -137.850      -61.051        6.328       99.050       74.531       45.813     9810.828     5554.807     2098.832        2.011        0.873      150.764       45.954        0.093      334.823        5.047      847.343
10/28/2013  09:13:00     -104.742      -88.482        6.835      128.687       88.687       60.664    16560.410     7865.393     3680.066        2.347        1.405      137.112       58.208        0.180      334.836        5.068      847.347
10/28/2013  09:14:00     -171.494     -161.564       -2.720      132.131       91.939       65.679    17458.601     8452.830     4313.678        4.287        1.511      235.612       74.948        0.101      334.760        4.942      847.359
10/28/2013  09:15:00     -167.663     -149.199       13.368      159.114      104.286       74.160    25317.137    10875.549     5499.705        4.611        2.085      224.435       91.636        0.167      334.844        5.082      847.365
10/28/2013  09:16:00     -318.188     -136.813      -13.326      111.322       98.397       51.907    12392.679     9682.030     2694.295        7.245        1.238      346.355       55.798        0.026      334.729        4.892      847.380
10/28/2013  09:17:00     -201.759      -88.728       -3.377      104.433      103.991       56.546    10906.200    10814.083     3197.492        3.675        1.246      220.408       54.818        0.062      334.789        4.991      847.386
10/28/2013  09:18:00     -222.321     -128.199        6.269      191.681      117.868       65.654    36741.674    13892.893     4310.433        6.041        2.747      256.635       82.783        0.104      334.776        4.968      847.371
10/28/2013  09:19:00     -226.971     -132.452      -10.707      139.418      115.113       72.407    19437.375    13251.059     5242.808        5.355        1.897      262.791       85.667        0.106      334.814        5.032      847.382
10/28/2013  09:20:00     -164.010      -48.958        4.134      103.467       81.631       50.911    10705.486     6663.690     2591.912        2.463        0.998      171.161       54.058        0.100      334.904        5.183      847.386
10/28/2013  09:21:00     -177.486      -64.456        1.581       97.224       83.610       43.937     9452.495     6990.594     1930.491        2.701        0.919      188.828       42.549        0.051      334.899        5.173      847.402
10/28/2013  09:22:00     -182.352       16.170       -2.077       81.541       55.666       38.502     6648.900     3098.677     1482.407        2.237        0.561      183.067       29.602        0.026      334.920        5.209      847.413
10/28/2013  09:23:00     -292.793     -121.717       -9.974      121.238      106.929       56.710    14698.656    11433.733     3216.012        6.499        1.467      317.085       54.295        0.029      334.885        5.149      847.428
10/28/2013  09:24:00     -173.653     -126.676       18.109      164.239      133.122       69.249    26974.355    17721.500     4795.417        4.800        2.475      214.947       84.698        0.155      334.906        5.186      847.396
10/28/2013  09:25:00     -214.025      -47.147      -18.532       67.053       82.753       41.565     4496.134     6848.021     1727.616        3.072        0.654      219.156       33.849        0.024      334.915        5.199      847.400
10/28/2013  09:26:00     -331.052      -77.757      -11.335      147.780       95.433       56.986    21839.046     9107.529     3247.394        7.498        1.710      340.061       63.275        0.035      334.873        5.130      847.392
10/28/2013  09:27:00     -156.926      -28.248        9.244       89.056       78.538       49.925     7931.006     6168.221     2492.527        2.105        0.830      159.448       50.118        0.099      334.978        5.307      847.372
10/28/2013  09:28:00     -186.023        2.210       -0.692       84.149       69.148       47.870     7081.136     4781.386     2291.515        2.438        0.708      186.036       48.274        0.067      334.928        5.224      847.367
10/28/2013  09:29:00     -168.748       -9.108      -15.789       77.082       58.148       34.078     5941.665     3381.189     1161.323        1.964        0.524      168.994       27.975        0.027      334.960        5.275      847.363
10/28/2013  09:30:00     -233.636      -79.988      -10.414      119.281       87.764       52.081    14227.869     7702.596     2712.475        4.286        1.232      246.949       55.533        0.051      334.902        5.178      847.351
10/28/2013  09:31:00     -161.505      -34.689        7.175      103.712      111.241       55.612    10756.183    12374.555     3092.654        2.678        1.311      165.189       58.632        0.126      335.001        5.344      847.361
10/28/2013  09:32:00     -258.706      -46.611       -2.406      153.587       81.876       53.191    23588.982     6703.608     2829.275        5.111        1.656      262.871       60.622        0.053      334.967        5.286      847.377
10/28/2013  09:33:00     -142.853      -92.264       -5.428       92.882       78.062       37.242     8626.987     6093.696     1386.957        2.253        0.805      170.058       33.344        0.038      334.970        5.293      847.365
10/28/2013  09:34:00      -84.649      -45.698       14.627       74.063       57.622       41.129     5485.265     3320.268     1691.559        0.998        0.525       96.197       36.454        0.144      335.150        5.593      847.360
10/28/2013  09:35:00     -128.018        0.746        1.093      110.082       68.551       38.069    12117.956     4699.294     1449.220        1.733        0.913      128.020       42.101        0.108      335.040        5.409      847.351
10/28/2013  09:36:00      -66.970      -51.419        3.768       40.273       54.025       27.809     1621.949     2918.734      773.332        0.623        0.266       84.432       22.015        0.068      335.124        5.549      847.333
10/28/2013  09:37:00     -115.156       27.058      -16.231       70.492       56.895       32.155     4969.096     3236.997     1033.940        1.175        0.462      118.292       26.352        0.050      335.078        5.474      847.328
10/28/2013  09:38:00      -93.384      -22.096       33.233      117.907       92.042       57.271    13902.074     8471.640     3279.961        1.798        1.283       95.963       65.835        0.471      335.180        5.642      847.325
10/28/2013  09:39:00     -240.286      -43.071       -0.150      108.729       95.354       47.104    11822.009     9092.450     2218.750        4.136        1.157      244.116       46.755        0.037      335.125        5.548      847.318
10/28/2013  09:40:00     -310.372      -34.914      -25.806      111.559      114.533       58.110    12445.467    13117.703     3376.777        6.357        1.447      312.329       58.484        0.035      335.121        5.541      847.302
10/28/2013  09:41:00     -172.289       -3.267       -4.730      128.629       87.101       63.771    16545.381     7586.627     4066.756        2.895        1.410      172.320       68.627        0.159      335.215        5.700      847.311
10/28/2013  09:42:00     -174.194     -150.466        8.936      131.220      121.358       74.644    17218.766    14727.854     5571.719        4.528        1.876      230.182       77.571        0.114      335.185        5.648      847.325
10/28/2013  09:43:00     -207.483     -223.546       -1.508      147.478      151.908       76.472    21749.619    23076.026     5848.005        7.184        2.534      304.995       91.723        0.090      335.108        5.521      847.291
10/28/2013  09:44:00     -228.682     -133.868       -7.377      131.058      101.564       54.138    17176.093    10315.264     2930.972        5.034        1.521      264.984       64.391        0.059      335.169        5.622      847.279
10/28/2013  09:45:00     -207.039     -118.268       -0.384      122.883      100.910       67.445    15100.293    10182.757     4548.895        4.334        1.492      238.438       69.862        0.086      335.210        5.690      847.289
10/28/2013  09:46:00     -129.263      -58.414        0.758       74.149       45.983       36.015     5498.138     2114.423     1297.049        1.451        0.445      141.849       34.762        0.060      335.255        5.767      847.301
10/28/2013  09:47:00     -208.447      -30.733      -12.716      100.574      102.847       54.059    10115.089    10577.450     2922.419        3.408        1.181      210.700       53.337        0.064      335.242        5.741      847.341
10/28/2013  09:48:00      -81.288       33.191        2.281       95.959       67.732       42.663     9208.122     4587.659     1820.106        1.166        0.781       87.803       45.806        0.272      335.312        5.862      847.358
10/28/2013  09:49:00     -186.114      -66.032       -3.492      112.124       77.833       47.939    12571.790     6058.008     2298.120        2.997        1.046      197.481       57.406        0.085      335.284        5.813      847.362
10/28/2013  09:50:00     -140.156     -135.477       -3.793      130.374       96.509       56.166    16997.270     9314.062     3154.645        3.373        1.473      194.930       71.260        0.134      335.334        5.896      847.381
10/28/2013  09:51:00     -197.090       33.440      -12.923      106.257       63.086       42.002    11290.652     3979.878     1764.202        2.858        0.852      199.907       46.713        0.055      335.274        5.798      847.389
10/28/2013  09:52:00     -128.312      -12.179        7.615      121.555       69.166       55.299    14775.596     4783.996     3057.956        1.964        1.131      128.889       57.030        0.196      335.312        5.861      847.397
10/28/2013  09:53:00     -197.304     -110.539       12.083      185.262      115.271       71.548    34321.951    13287.469     5119.084        5.200        2.636      226.159       84.931        0.141      335.255        5.766      847.375
10/28/2013  09:54:00     -154.301      -57.799       -5.000       73.706       77.475       37.622     5432.516     6002.441     1415.402        2.001        0.643      164.771       26.043        0.025      335.275        5.799      847.396
10/28/2013  09:55:00     -109.444      -66.623       -7.388       99.899       83.327       38.737     9979.855     6943.392     1500.522        1.744        0.921      128.127       38.032        0.088      335.460        6.107      847.420
10/28/2013  09:56:00     -318.333      -21.890      -18.793      144.791      149.029       56.106    20964.446    22209.517     3147.888        7.424        2.316      319.085       57.371        0.032      335.139        5.572      847.427
10/28/2013  09:57:00     -237.326      -79.717        1.958      116.141      116.744       64.817    13488.617    13629.049     4201.200        4.700        1.566      250.356       62.935        0.063      335.221        5.708      847.414
10/28/2013  09:58:00     -148.390      -24.006       14.720      131.109      103.241       62.379    17189.588    10658.631     3891.147        2.727        1.587      150.319       64.390        0.183      335.376        5.968      847.425
10/28/2013  09:59:00     -241.326     -106.807       -1.172      120.831       95.075       68.061    14600.091     9039.259     4632.238        4.895        1.414      263.905       79.472        0.091      335.285        5.816      847.406
10/28/2013  10:00:00     -205.069        1.025      -26.008       90.599       77.958       41.893     8208.169     6077.413     1755.001        2.938        0.802      205.071       41.414        0.041      335.250        5.756      847.437
10/28/2013  10:01:00     -172.161       33.620      -12.967      105.753       89.593       45.238    11183.747     8026.895     2046.438        2.609        1.063      175.413       37.735        0.046      335.406        6.017      847.434
10/28/2013  10:02:00      -98.207       24.975      -22.152       99.063      113.357       40.935     9813.391    12849.830     1675.695        1.754        1.217      101.333       27.187        0.072      335.365        5.949      847.419
10/28/2013  10:03:00     -176.712       25.805      -26.888       80.970       90.855       48.312     6556.220     8254.721     2334.040        2.488        0.857      178.586       40.903        0.052      335.357        5.935      847.417
10/28/2013  10:04:00     -299.864     -125.616      -26.899      137.413      114.529       56.978    18882.382    13116.881     3246.484        7.083        1.762      325.112       51.882        0.025      335.188        5.655      847.384
10/28/2013  10:05:00     -201.407      -45.867      -10.630      129.496       92.092       56.160    16769.301     8480.870     3153.911        3.559        1.420      206.563       53.275        0.067      335.203        5.680      847.359
10/28/2013  10:06:00     -289.752      -75.408      -21.466      108.780      122.136       77.814    11833.159    14917.141     6054.983        6.145        1.640      299.404       54.927        0.034      335.303        5.844      847.351
10/28/2013  10:07:00     -172.874      -16.995       -8.564      163.822       81.781       76.633    26837.501     6688.165     5872.556        3.482        1.970      173.707       84.279        0.235      335.440        6.073      847.361
10/28/2013  10:08:00     -203.428       31.193      -25.387      115.589       78.785       37.658    13360.902     6207.106     1418.155        3.199        1.049      205.805       46.398        0.051      335.394        5.997      847.370
10/28/2013  10:09:00     -102.866       46.500       -4.592       54.555       93.646       39.642     2976.241     8769.616     1571.482        1.304        0.666      112.888       41.311        0.134      335.584        6.314      847.373
10/28/2013  10:10:00     -148.368      -74.150        8.293      154.622       92.734       63.129    23907.982     8599.525     3985.273        3.203        1.825      165.865       76.342        0.212      335.695        6.497      847.374
10/28/2013  10:11:00     -271.425     -133.345      -21.909      101.726       96.260       53.358    10348.240     9266.063     2847.081        5.719        1.123      302.411       51.724        0.029      335.482        6.142      847.364
10/28/2013  10:12:00     -160.846      -80.756        2.792      124.888       78.846       66.122    15596.934     6216.641     4372.105        2.929        1.309      179.980       62.739        0.122      335.839        6.738      847.346
10/28/2013  10:13:00     -107.395      -47.583       -9.338      101.118       56.964       43.126    10224.906     3244.938     1859.831        1.460        0.766      117.464       51.483        0.192      335.736        6.569      847.363
10/28/2013  10:14:00     -161.185      -24.514       -7.361      102.556       78.748       41.639    10517.710     6201.294     1733.843        2.254        0.923      163.038       31.063        0.036      335.697        6.502      847.341
10/28/2013  10:15:00      -86.901      -16.126       17.098      116.620       53.709       52.386    13600.244     2884.691     2744.280        1.366        0.961       88.385       65.629        0.551      336.231        7.394      847.365
10/28/2013  10:16:00     -206.982      -55.985      -12.883      124.095       90.163       60.457    15399.499     8129.382     3655.043        3.666        1.359      214.420       62.971        0.086      335.855        6.763      847.407
10/28/2013  10:17:00     -236.999     -104.145      -14.549      136.684      105.025       59.697    18682.596    11030.324     3563.686        5.025        1.664      258.872       68.440        0.070      335.732        6.559      847.399
10/28/2013  10:18:00      -61.264      -16.376       16.725       91.875       95.810       51.780     8441.056     9179.639     2681.145        1.230        1.015       63.415       46.340        0.534      335.965        6.950      847.401
10/28/2013  10:19:00     -105.173      117.369        0.710      109.128      150.921       69.096    11908.982    22777.012     4774.259        3.214        1.973      157.597       77.136        0.240      335.893        6.828      847.430
10/28/2013  10:20:00     -199.978       11.293        6.143      158.292      171.018       79.988    25056.265    29247.107     6398.092        5.042        3.035      200.296       83.405        0.173      335.920        6.873      847.423
10/28/2013  10:21:00     -236.686      118.144      -28.163      137.271      112.840       57.355    18843.229    12732.968     3289.558        5.281        1.743      264.534       62.936        0.057      335.719        6.537      847.434
10/28/2013  10:22:00     -317.582       48.738      -37.023      125.251      152.079       63.057    15687.874    23128.056     3976.173        7.369        2.140      321.300       64.837        0.041      335.770        6.622      847.394
10/28/2013  10:23:00     -290.255       15.116      -28.940      145.794       96.854       60.872    21255.971     9380.619     3705.366        5.982        1.717      290.649       68.389        0.055      335.717        6.533      847.382
10/28/2013  10:24:00     -287.195      -37.478      -42.221      142.086      107.783       58.838    20188.489    11617.278     3461.938        6.046        1.763      289.630       62.095        0.046      335.727        6.551      847.352
10/28/2013  10:25:00     -145.219     -120.334       18.089      190.229      116.234       77.368    36187.007    13510.316     5985.814        4.578        2.784      188.598       89.916        0.227      336.043        7.079      847.370
10/28/2013  10:26:00     -311.905     -144.833      -11.376      188.379      127.653       79.337    35486.644    16295.166     6294.339        8.822        2.904      343.892       80.179        0.054      335.712        6.525      847.374
10/28/2013  10:27:00     -317.114      102.924      -23.293      108.960      120.638       65.474    11872.311    14553.463     4286.826        7.120        1.536      333.398       52.585        0.025      335.808        6.684      847.362
10/28/2013  10:28:00     -250.428       99.511      -18.286      153.191       79.072       56.194    23467.443     6252.415     3157.743        5.291        1.644      269.474       60.831        0.051      335.927        6.883      847.375
10/28/2013  10:29:00     -358.587      -79.649      -14.464      140.213      132.075       70.135    19659.669    17443.932     4918.853        8.857        2.101      367.326       72.023        0.038      335.866        6.781      847.339
10/28/2013  10:30:00     -325.519      -62.362      -15.054      182.254      125.875       51.115    33216.665    15844.593     2612.713        8.087        2.584      331.438       49.403        0.022      335.608        6.354      847.340
10/28/2013  10:31:00     -356.488      -47.418      -35.129      123.361      103.804       54.710    15217.998    10775.218     2993.225        7.977        1.449      359.627       57.694        0.026      335.642        6.409      847.337
10/28/2013  10:32:00     -306.142      -87.237      -14.704      125.503      126.605       64.201    15751.061    16028.929     4121.827        6.872        1.795      318.329       53.522        0.028      335.800        6.671      847.361
10/28/2013  10:33:00     -244.705      -85.574      -18.379       78.338       83.625       43.882     6136.889     6993.222     1925.588        4.130        0.753      259.237       38.431        0.022      335.850        6.756      847.368
10/28/2013  10:34:00     -260.950      -18.485      -19.679       90.288       95.472       49.496     8151.978     9114.924     2449.888        4.427        0.986      261.603       43.543        0.028      336.079        7.136      847.368
10/28/2013  10:35:00     -195.656      -60.022        3.964      103.565       75.528       48.098    10725.787     5704.515     2313.398        3.032        0.937      204.656       40.740        0.040      336.262        7.443      847.373
10/28/2013  10:36:00     -414.143       76.561      -39.678      153.698      100.416       46.393    23623.096    10083.323     2152.356       10.740        1.793      421.161       28.582        0.005      335.919        6.870      847.362
10/28/2013  10:37:00     -333.522       12.970      -29.092      152.609      135.024       66.738    23289.433    18231.436     4454.003        7.911        2.299      333.774       68.461        0.042      335.858        6.767      847.342
10/28/2013  10:38:00     -435.799       -5.267      -28.794      139.128      123.831       59.310    19356.628    15334.201     3517.664       11.449        1.910      435.831       65.548        0.023      335.798        6.667      847.357
10/28/2013  10:39:00     -398.317      -52.394      -33.765      160.850      159.730       72.736    25872.569    25513.825     5290.585       10.960        2.834      401.748       69.612        0.030      335.814        6.695      847.364
10/28/2013  10:40:00     -289.522      -27.746      -14.908      184.997      122.303       73.470    34223.915    14957.950     5397.881        6.969        2.729      290.848       80.495        0.077      335.914        6.862      847.352
10/28/2013  10:41:00     -330.977      -93.063       -4.368      200.479      158.584       70.285    40191.844    25148.918     4939.952        9.424        3.514      343.811       87.783        0.065      335.848        6.752      847.361
10/28/2013  10:42:00     -279.997      -73.170       -9.196      172.716      135.102       74.729    29830.683    18252.435     5584.468        6.874        2.683      289.399       83.006        0.082      335.894        6.830      847.383
10/28/2013  10:43:00     -285.576      -96.193      -10.327      156.912      101.028       60.181    24621.381    10206.718     3621.773        6.468        1.922      301.342       58.622        0.038      335.831        6.723      847.384
10/28/2013  10:44:00     -321.229      -71.013      -20.720      119.177      126.133       66.116    14203.173    15909.540     4371.279        7.157        1.724      328.985       72.751        0.049      335.842        6.743      847.403
10/28/2013  10:45:00     -328.254       -7.559      -13.225      148.319      123.576       59.737    21998.523    15271.066     3568.467        7.440        2.042      328.341       67.075        0.042      335.909        6.853      847.400
10/28/2013  10:46:00     -240.880      -76.162       10.434      116.368      107.246       46.628    13541.499    11501.810     2174.189        4.557        1.361      252.633       46.628        0.034      335.875        6.798      847.401
10/28/2013  10:47:00     -150.821      -73.792       15.828      126.695      134.314       66.363    16051.618    18040.305     4404.008        3.346        1.925      167.905       74.729        0.198      335.958        6.938      847.392
10/28/2013  10:48:00     -150.554      -39.102        0.668      111.591       77.349       57.656    12452.548     5982.834     3324.224        2.297        1.088      155.549       60.047        0.149      335.870        6.788      847.410
10/28/2013  10:49:00     -155.445       24.102        1.155      136.624       78.717       69.094    18666.243     6196.440     4773.950        2.719        1.482      157.303       71.398        0.206      335.967        6.952      847.425
10/28/2013  10:50:00     -276.024       20.709      -10.930      116.652      106.565       59.227    13607.593    11356.163     3507.876        5.260        1.424      276.800       61.400        0.049      335.891        6.823      847.419
10/28/2013  10:51:00     -448.248     -170.977      -20.278      149.952      115.548       64.855    22485.601    13351.248     4206.132       13.530        2.002      479.749       57.770        0.015      335.704        6.512      847.404
10/28/2013  10:52:00     -389.785     -174.019      -18.790      188.822      137.151       71.450    35653.786    18810.295     5105.088       12.106        2.978      426.867       82.467        0.037      335.641        6.409      847.385
10/28/2013  10:53:00     -318.348      -31.849      -13.672      146.995      115.769       70.948    21607.599    13402.552     5033.669        7.129        2.002      319.937       68.483        0.046      335.734        6.562      847.402
10/28/2013  10:54:00     -354.482      -99.026       -4.419      178.885      136.303       69.909    31999.993    18578.391     4887.299        9.547        2.773      368.054       79.268        0.046      335.706        6.515      847.388
10/28/2013  10:55:00     -280.626      -11.990       -3.566      180.363      116.567       86.734    32530.905    13587.780     7522.857        6.627        2.682      280.882       84.159        0.090      335.746        6.582      847.364
10/28/2013  10:56:00     -328.004       -6.968        1.241      175.601      160.909       75.959    30835.696    25891.825     5769.815        8.506        3.125      328.078       80.375        0.060      335.733        6.561      847.379
10/28/2013  10:57:00     -249.893      -47.170        3.606      172.496      100.381       64.681    29754.857    10076.394     4183.696        5.434        2.201      254.306       85.700        0.114      335.798        6.670      847.372
10/28/2013  10:58:00     -326.592      -77.378      -11.882      125.052       90.960       67.333    15637.988     8273.802     4533.715        7.061        1.422      335.633       57.949        0.030      335.761        6.606      847.354
10/28/2013  10:59:00     -263.556     -116.925        2.885      201.962      155.177       84.203    40788.749    24080.049     7090.185        7.754        3.598      288.328       85.813        0.089      335.785        6.646      847.360
10/28/2013  11:00:00     -424.087     -290.779      -15.545      159.908      146.600       87.612    25570.529    21491.489     7675.861       15.968        2.737      514.201       88.401        0.030      335.680        6.471      847.359
10/28/2013  11:01:00     -315.200     -132.635       -9.149      185.821      143.582       74.738    34529.487    20615.880     5585.721        8.887        3.037      341.970       84.286        0.061      335.745        6.580      847.349
10/28/2013  11:02:00     -254.046     -153.379        9.094      162.993      116.103       76.626    26566.671    13479.913     5871.516        6.702        2.296      296.756       80.929        0.074      335.743        6.577      847.382
10/28/2013  11:03:00     -304.845     -147.417       -8.929      229.715      176.082       90.421    52769.074    31004.855     8175.941       10.333        4.597      338.618      117.470        0.120      335.734        6.563      847.391
10/28/2013  11:04:00     -271.348     -129.224       -0.547      140.893      124.003       64.229    19850.891    15376.639     4125.305        6.483        1.968      300.547       62.142        0.043      335.737        6.567      847.398
10/28/2013  11:05:00     -353.465     -175.159       -9.928      164.911      215.234       87.990    27195.542    46325.858     7742.281       11.848        4.063      394.485       88.332        0.050      335.667        6.450      847.397
10/28/2013  11:06:00     -390.929       33.008      -24.526      187.915      103.002       64.731    35311.967    10609.491     4190.086       10.231        2.506      392.320       66.242        0.029      335.665        6.448      847.423
10/28/2013  11:07:00     -520.586     -211.704      -13.222      224.204      162.808      102.071    50267.238    26506.422    10418.582       20.158        4.360      561.987      118.647        0.045      335.611        6.357      847.424
10/28/2013  11:08:00     -340.702     -157.788        6.916      226.918      137.209       92.005    51491.926    18826.380     8464.952       10.989        3.939      375.467      110.525        0.087      335.714        6.529      847.440
10/28/2013  11:09:00     -438.736      -91.132      -26.275      210.680      163.841       81.369    44385.852    26844.004     6620.993       13.965        3.893      448.101      107.297        0.057      335.643        6.410      847.465
10/28/2013  11:10:00     -205.120      -72.226       23.572      199.525      150.455       75.245    39810.335    22636.582     5661.740        5.797        3.405      217.465       90.524        0.173      335.779        6.638      847.481
10/28/2013  11:11:00     -507.724     -131.469      -20.107      177.967      158.332       83.598    31672.123    25069.179     6988.681       16.959        3.186      524.469       83.781        0.026      335.654        6.428      847.460
10/28/2013  11:12:00     -343.752      -54.088       -6.370      216.506      139.252       77.107    46875.002    19391.089     5945.530        9.666        3.611      347.981       97.865        0.079      335.638        6.404      847.470
10/28/2013  11:13:00     -450.787      -43.497      -18.171      228.964      135.765       85.157    52424.494    18432.015     7251.631       14.176        3.905      452.881      107.145        0.056      335.640        6.407      847.473
10/28/2013  11:14:00     -254.074      -86.740       12.849      176.670      118.176       64.863    31212.422    13965.595     4207.250        6.081        2.469      268.473       75.635        0.079      335.718        6.536      847.486
10/28/2013  11:15:00     -335.201     -161.680       -2.064      159.803      135.446       74.262    25536.903    18345.643     5514.887        9.394        2.470      372.156       70.930        0.036      335.653        6.427      847.492
10/28/2013  11:16:00     -351.997      -47.004      -13.818      189.060      118.855       69.343    35743.820    14126.473     4808.405        9.048        2.734      355.122       78.396        0.049      335.734        6.561      847.503
10/28/2013  11:17:00     -504.739     -211.216      -15.776      176.734      175.046       94.559    31234.919    30641.106     8941.426       18.521        3.541      547.150       98.542        0.032      335.600        6.337      847.505
10/28/2013  11:18:00     -458.083     -162.999      -26.178      206.776      147.886       91.964    42756.464    21870.397     8457.447       15.508        3.654      486.219       96.178        0.039      335.587        6.316      847.507
10/28/2013  11:19:00     -260.779      -78.099        0.882      165.338      147.914       78.742    27336.551    21878.480     6200.235        6.475        2.771      272.222       86.215        0.100      335.650        6.421      847.526
10/28/2013  11:20:00     -245.957      -81.177      -10.668      149.106      162.767       62.381    22232.599    26493.168     3891.391        5.990        2.631      259.007       80.536        0.097      335.658        6.436      847.536
10/28/2013  11:21:00     -222.441     -188.742       -5.173      147.666      125.724       86.371    21805.206    15806.464     7459.887        6.509        2.254      291.725       90.088        0.095      335.665        6.447      847.528
10/28/2013  11:22:00     -367.368     -205.245       -7.667      189.505      168.172       81.554    35912.294    28281.971     6651.042       12.398        3.542      420.815      101.631        0.058      335.638        6.401      847.510
10/28/2013  11:23:00     -142.641      -83.740       13.616      169.831      123.985       70.335    28842.562    15372.274     4946.974        3.834        2.458      165.405       80.632        0.238      335.779        6.638      847.563
10/28/2013  11:24:00     -293.790     -119.974      -10.149      171.632      155.239       66.019    29457.416    24098.997     4358.531        7.935        2.896      317.343       76.866        0.059      335.701        6.506      847.574
10/28/2013  11:25:00     -225.257      -22.060       -6.839      143.712      127.621       63.279    20653.052    16287.150     4004.271        4.610        2.047      226.335       68.146        0.091      335.741        6.573      847.586
10/28/2013  11:26:00     -238.339      -61.729        1.636      150.640      119.062       66.185    22692.367    14175.707     4380.443        5.093        2.062      246.203       81.145        0.109      335.724        6.546      847.617
10/28/2013  11:27:00     -184.717      -43.742       -6.519      165.854       89.580       57.956    27507.553     8024.609     3358.842        3.748        1.945      189.826       74.858        0.156      335.835        6.732      847.628
10/28/2013  11:28:00     -211.308     -102.746       14.687      177.194      134.435       80.103    31397.564    18072.836     6416.535        5.565        2.794      234.963       88.884        0.143      335.782        6.644      847.638
10/28/2013  11:29:00     -225.925     -186.045        4.147      206.092      171.343       82.812    42473.993    29358.547     6857.868        8.217        3.935      292.669       92.003        0.099      335.681        6.474      847.629
10/28/2013  11:30:00     -286.432      -65.027        5.007      164.913      114.450       65.426    27196.411    13098.778     4280.547        6.543        2.229      293.721       76.809        0.068      335.712        6.526      847.631
10/28/2013  11:31:00     -196.288     -136.344       24.717      156.644      114.629       72.989    24537.262    13139.889     5327.352        5.036        2.150      238.995       90.119        0.142      335.741        6.574      847.666
10/28/2013  11:32:00     -249.217     -107.344       12.310      176.114      156.539       84.213    31016.281    24504.423     7091.765        6.819        3.131      271.352       84.015        0.096      335.745        6.580      847.670
10/28/2013  11:33:00     -410.906     -263.706       -6.014      178.738      193.867      110.026    31947.284    37584.399    12105.715       16.002        4.082      488.246      107.924        0.049      335.610        6.355      847.666
10/28/2013  11:34:00     -117.532      -60.054       28.754      163.368      148.529       90.125    26689.184    22060.720     8122.520        3.755        2.844      131.986       91.696        0.483      335.775        6.631      847.674
10/28/2013  11:35:00     -250.938     -129.831       -4.944      203.798      160.361       67.191    41533.792    25715.540     4514.661        7.580        3.588      282.535       74.808        0.070      335.708        6.519      847.691
10/28/2013  11:36:00     -252.588     -122.092      -10.879      192.596      135.190       63.994    37093.143    18276.388     4095.175        6.914        2.973      280.548       79.612        0.081      335.702        6.509      847.689
10/28/2013  11:37:00     -373.943      -97.483      -12.902      184.373      179.377       78.369    33993.430    32176.215     6141.705       11.090        3.616      386.441       86.895        0.051      335.671        6.457      847.698
10/28/2013  11:38:00     -183.050      -54.018       24.321      195.148      150.093       73.004    38082.752    22528.027     5329.588        5.147        3.297      190.854       73.047        0.146      335.759        6.604      847.697
10/28/2013  11:39:00     -380.678     -132.147       -8.100      199.443      142.885       81.891    39777.654    20416.141     6706.056       11.466        3.345      402.963       94.722        0.055      335.638        6.403      847.715
10/28/2013  11:40:00     -227.463     -196.748        2.121      148.154      122.087       74.186    21949.635    14905.314     5503.497        6.640        2.118      300.748       71.910        0.057      335.734        6.562      847.721
10/28/2013  11:41:00     -326.829     -100.887       -6.624      198.249      138.468       90.715    39302.515    19173.360     8229.244        9.186        3.335      342.046       95.028        0.077      335.697        6.499      847.752
10/28/2013  11:42:00     -377.365      -99.982      -15.789      175.877      163.164       73.597    30932.882    26622.456     5416.463       10.780        3.149      390.386       65.988        0.029      335.629        6.387      847.755
10/28/2013  11:43:00     -308.414     -190.859      -10.285      203.910      136.513       74.690    41579.377    18635.811     5578.611        9.871        3.290      362.694       90.690        0.063      335.673        6.459      847.767
10/28/2013  11:44:00     -195.443      -42.003       -2.465      176.123      118.822       96.014    31019.293    14118.644     9218.782        4.715        2.718      199.906       94.329        0.223      335.727        6.550      847.779
10/28/2013  11:45:00     -266.484     -132.857       -0.420      218.830      126.061       69.129    47886.697    15891.464     4778.786        7.860        3.428      297.766       92.012        0.095      335.702        6.510      847.815
10/28/2013  11:46:00     -251.880     -198.324       -1.648      159.630      189.843       77.569    25481.748    36040.227     6016.917        8.515        3.377      320.587       93.409        0.085      335.719        6.538      847.822
10/28/2013  11:47:00     -224.646     -181.686      -11.734      128.697      123.247       76.693    16562.869    15189.785     5881.804        6.062        1.882      288.922       72.265        0.063      335.716        6.532      847.818
10/28/2013  11:48:00     -382.582     -239.597      -10.299      238.072      186.291       83.287    56678.133    34704.334     6936.646       15.108        4.916      451.415       94.541        0.044      335.658        6.435      847.811
10/28/2013  11:49:00     -404.580     -195.156      -21.521      222.961      246.138      105.228    49711.636    60583.970    11073.028       16.178        6.068      449.189      121.389        0.073      335.677        6.467      847.786
10/28/2013  11:50:00     -350.685     -147.324       -4.598      150.354      124.604       69.896    22606.446    15526.042     4885.501        9.385        2.151      380.374       63.379        0.028      335.663        6.445      847.841
10/28/2013  11:51:00     -247.780      -28.032        0.057      159.231      112.298       70.826    25354.377    12610.816     5016.278        5.257        2.149      249.361       67.260        0.073      335.788        6.652      847.860
10/28/2013  11:52:00     -424.515     -118.892        3.588      205.895      192.891       99.533    42392.812    37206.836     9906.874       14.192        4.475      440.850      103.375        0.055      335.627        6.384      847.853
10/28/2013  11:53:00     -272.139     -197.078        7.377      207.059      164.692       87.179    42873.495    27123.585     7600.232        9.526        3.880      336.005      108.849        0.105      335.662        6.443      847.865
10/28/2013  11:54:00     -330.695     -218.181      -20.019      197.808      137.675       82.287    39128.144    18954.375     6771.229       11.110        3.243      396.184       93.583        0.056      335.630        6.388      847.889
10/28/2013  11:55:00     -219.445     -113.819       -0.266      117.237      100.936       59.177    13744.598    10188.038     3501.950        4.427        1.372      247.206       58.172        0.055      335.714        6.529      847.917
10/28/2013  11:56:00     -311.544     -124.840       -4.022      241.529      202.513      102.473    58336.189    41011.418    10500.671       11.124        5.492      335.626      108.135        0.104      335.617        6.367      847.925
10/28/2013  11:57:00     -445.295      -62.069      -21.872      208.978      161.573       86.176    43671.852    26105.927     7426.364       13.990        3.860      449.600       92.132        0.042      335.603        6.343      847.941
10/28/2013  11:58:00     -359.152      -23.876      -13.176      204.600      132.894       85.434    41861.160    17660.780     7298.902        9.827        3.341      359.945      105.243        0.085      335.597        6.334      847.957
10/28/2013  11:59:00     -232.844     -170.567       -3.524      137.615      188.908       90.905    18937.830    35686.054     8263.762        7.309        3.144      288.634       83.892        0.084      335.642        6.407      847.958
10/28/2013  12:00:00     -349.126     -121.015       -2.721      236.267      173.050       90.408    55821.997    29946.157     8173.661       11.523        4.697      369.505      114.557        0.096      335.645        6.416      847.985
10/28/2013  12:01:00     -529.614     -113.934      -33.709      190.871      167.168       88.369    36431.650    27945.134     7809.094       18.338        3.609      541.730       94.653        0.031      335.495        6.163      847.968
10/28/2013  12:02:00     -440.770     -213.065      -27.933      159.455      182.947       70.258    25425.874    33469.676     4936.209       15.213        3.192      489.566       52.020        0.011      335.525        6.212      847.960
10/28/2013  12:03:00     -242.126      -37.256        7.896      170.794      115.133       64.592    29170.422    13255.699     4172.156        5.333        2.330      244.976       80.059        0.107      335.722        6.543      847.975
10/28/2013  12:04:00     -398.032     -158.862       -9.873      173.476      111.280       82.005    30093.793    12383.249     6724.900       11.647        2.460      428.563       85.857        0.040      335.630        6.388      847.961
10/28/2013  12:05:00     -541.205     -145.120      -14.479      211.334      163.702       86.674    44662.093    26798.358     7512.425       19.656        3.949      560.323       97.964        0.031      335.480        6.139      847.966
10/28/2013  12:06:00     -273.506     -113.707       -1.894      212.221      146.977       91.565    45037.703    21602.305     8384.133        8.137        3.751      296.200      100.596        0.115      335.663        6.444      847.973
10/28/2013  12:07:00     -460.992     -112.204        4.998      247.158      151.234       95.151    61086.862    22871.692     9053.680       15.905        4.651      474.451      115.313        0.059      335.508        6.184      847.990
10/28/2013  12:08:00     -457.151     -195.953      -17.897      205.431      162.367       80.774    42201.852    26363.155     6524.509       16.138        3.754      497.378       92.016        0.034      335.482        6.141      847.982
10/28/2013  12:09:00     -151.411      -83.030       10.078      143.057      112.350       58.806    20465.387    12622.607     3458.148        3.323        1.827      172.683       65.700        0.145      335.615        6.365      847.990
10/28/2013  12:10:00     -432.691     -111.617       -9.210      244.644      150.474       74.701    59850.710    22642.362     5580.256       14.390        4.404      446.856       94.168        0.044      335.493        6.159      847.989
10/28/2013  12:11:00     -417.375     -132.190      -24.059      222.153      176.453       80.410    49352.057    31135.812     6465.712       13.959        4.348      437.808       87.106        0.040      335.501        6.174      847.981
10/28/2013  12:12:00     -481.904     -162.351      -40.398      180.119      192.288       91.462    32442.965    36974.695     8365.294       16.899        3.889      508.516       93.297        0.034      335.429        6.053      847.984
10/28/2013  12:13:00     -443.685     -100.877      -11.293      196.033      148.943      104.282    38429.071    22184.115    10874.664       13.931        3.574      455.008      112.522        0.061      335.431        6.056      847.986
10/28/2013  12:14:00     -605.162     -185.158      -12.963      263.659      244.647       97.593    69516.308    59851.972     9524.397       26.976        6.945      632.854      111.165        0.031      335.262        5.776      847.977
10/28/2013  12:15:00     -365.937     -101.997      -18.648      223.827      107.614       94.002    50098.405    11580.704     8836.398       10.758        3.526      379.886      112.536        0.088      335.384        5.980      848.005
10/28/2013  12:16:00     -295.921     -146.100        2.546      180.800      119.971       83.029    32688.484    14393.045     6893.764        8.144        2.699      330.022       75.324        0.052      335.434        6.060      848.006
10/28/2013  12:17:00     -174.510     -116.766        6.210      129.882      120.531       71.465    16869.366    14527.614     5107.192        4.031        1.825      209.972       75.002        0.128      335.507        6.185      848.024
10/28/2013  12:18:00     -307.488      -53.545       10.246      162.246      126.380       72.599    26323.908    15971.806     5270.556        7.254        2.378      312.116       77.506        0.062      335.452        6.093      848.017
10/28/2013  12:19:00     -246.988     -130.928        9.255      187.335      128.630       75.918    35094.566    16545.744     5763.504        6.781        2.870      279.545       95.283        0.116      335.404        6.013      848.013
10/28/2013  12:20:00     -223.540      -28.119      -13.521      155.251      130.235       62.021    24102.937    16961.260     3846.592        4.792        2.246      225.302       67.841        0.091      335.495        6.165      848.018
10/28/2013  12:21:00     -238.614     -141.657       10.298      209.704      128.115       89.809    43975.973    16413.332     8065.587        7.277        3.423      277.495      112.947        0.166      335.496        6.166      848.003
10/28/2013  12:22:00     -319.778     -130.262        0.558      225.678      172.985       80.889    50930.714    29923.836     6543.045       10.330        4.370      345.292       98.574        0.081      335.478        6.137      847.996
10/28/2013  12:23:00     -424.146     -249.114      -13.561      236.349      177.845       88.901    55860.888    31628.668     7903.436       16.875        4.770      491.892      106.737        0.047      335.428        6.053      847.980
10/28/2013  12:24:00     -412.623      -83.959       -5.419      237.540      156.880       86.167    56425.358    24611.289     7424.792       13.288        4.423      421.078       91.051        0.047      335.372        5.959      847.978
10/28/2013  12:25:00     -355.294     -290.205      -11.097      214.493      201.745      107.501    46007.222    40701.127    11556.362       15.440        4.913      458.752      109.920        0.057      335.397        6.000      847.974
10/28/2013  12:26:00     -230.169     -137.758       17.810      181.340      151.055       89.677    32884.100    22817.471     8041.883        6.800        3.187      268.244       94.042        0.123      335.507        6.184      847.977
10/28/2013  12:27:00     -141.518     -137.302        4.737      109.005      100.810       60.896    11882.040    10162.655     3708.346        3.232        1.288      197.178       64.663        0.108      335.577        6.300      847.980
10/28/2013  12:28:00     -255.067     -188.766        1.849      193.624      134.980       77.216    37490.165    18219.528     5962.382        8.117        3.084      317.320       82.905        0.068      335.557        6.266      847.997
10/28/2013  12:29:00     -284.290     -113.556       10.046      187.564      172.396       86.037    35180.265    29720.212     7402.297        8.305        3.615      306.130       96.735        0.100      335.484        6.144      847.995
10/28/2013  12:30:00     -305.711     -131.200        6.462      262.229      190.478      105.887    68764.057    36281.993    11211.990       11.347        5.813      332.675      109.946        0.109      335.388        5.986      847.991
10/28/2013  12:31:00     -259.937     -234.810        9.424      228.342      191.356      109.763    52139.862    36616.939    12047.880       11.178        5.040      350.290      140.036        0.160      335.364        5.946      848.017
10/28/2013  12:32:00     -202.958     -138.042       -9.456      177.742      152.728       85.124    31592.314    23325.812     7246.116        6.124        3.108      245.454       58.223        0.056      335.465        6.114      848.036
10/28/2013  12:33:00     -132.144     -143.088       13.722      164.124      111.119       74.004    26936.834    12347.412     5476.660        4.144        2.238      194.772       94.384        0.235      335.478        6.138      848.048
10/28/2013  12:34:00     -260.631     -162.627       -7.647      198.562      168.150       90.321    39426.698    28274.294     8157.951        8.513        3.793      307.207       82.892        0.073      335.387        5.984      848.054
10/28/2013  12:35:00     -334.022     -123.560        3.469      291.142      150.500       87.334    84763.528    22650.321     7627.247       12.093        5.752      356.143      114.650        0.104      335.381        5.975      848.021
10/28/2013  12:36:00     -353.897     -184.797      -15.881      187.015      177.578       86.377    34974.642    31534.096     7461.059       11.680        3.698      399.241       96.817        0.059      335.341        5.906      848.012
10/28/2013  12:37:00     -184.253     -119.335        6.699      176.223      124.332       85.635    31054.665    15458.339     7333.333        5.103        2.692      219.522       90.542        0.170      335.478        6.136      848.005
10/28/2013  12:38:00     -348.454     -262.437      -15.887      157.544      119.410       78.206    24820.061    14258.821     6116.109       11.786        2.260      436.227       86.367        0.039      335.422        6.042      848.007
10/28/2013  12:39:00     -221.046     -207.916       -8.043      177.017      147.812       86.450    31335.031    21848.375     7473.554        7.640        3.033      303.464       91.332        0.091      335.408        6.020      848.015
10/28/2013  12:40:00     -172.401      -65.348        0.867      143.197      127.576       71.098    20505.471    16275.646     5054.910        3.791        2.092      184.371       66.565        0.130      335.505        6.183      848.006
10/28/2013  12:41:00     -353.373     -145.639      -25.148      218.654      135.594       86.995    47809.627    18385.718     7568.123       11.023        3.688      382.208      108.614        0.081      335.331        5.890      847.992
10/28/2013  12:42:00     -357.969     -130.467       -8.454      287.636      155.607       92.911    82734.600    24213.387     8632.500       13.039        5.779      381.003      114.943        0.091      335.383        5.978      847.961
10/28/2013  12:43:00     -530.670      -13.225      -36.993      214.095      165.614       96.084    45836.468    27428.017     9232.203       18.281        4.125      530.835       86.148        0.026      335.262        5.776      847.961
10/28/2013  12:44:00     -386.348      -75.251      -16.412      157.750      123.938       77.757    24885.050    15360.557     6046.129       10.074        2.315      393.609       78.928        0.040      335.368        5.952      847.945
10/28/2013  12:45:00     -304.315       -0.039        9.782      122.431      124.614       73.538    14989.347    15528.686     5407.874        6.431        1.796      304.315       62.440        0.042      335.434        6.062      847.922
10/28/2013  12:46:00     -329.469     -142.505       11.117      267.788      154.848       98.441    71710.448    23977.829     9690.633       11.716        5.269      358.967      114.533        0.102      335.443        6.078      847.952
10/28/2013  12:47:00     -474.956     -108.524      -28.553      210.236      187.582       95.779    44199.383    35186.854     9173.626       16.335        4.428      487.196       96.155        0.039      335.337        5.899      847.942
10/28/2013  12:48:00     -553.038       62.890      -29.279      246.486      129.824       84.773    60755.433    16854.319     7186.510       19.772        4.240      556.602      105.470        0.036      335.346        5.916      847.924
10/28/2013  12:49:00     -402.432      -89.034       -8.958      166.587      156.449       80.190    27751.325    24476.370     6430.437       11.430        2.933      412.163       91.707        0.050      335.408        6.018      847.930
10/28/2013  12:50:00     -228.842      -20.589        5.237      191.067      170.440       83.504    36506.690    29049.639     6972.881        6.266        3.626      229.766       99.183        0.186      335.499        6.172      847.922
10/28/2013  12:51:00     -375.879     -123.543      -11.245      224.430      161.538       83.360    50368.631    26094.492     6948.949       12.003        4.171      395.662       83.182        0.044      335.413        6.027      847.903
10/28/2013  12:52:00     -453.594     -164.233       -3.346      235.512      187.907       91.462    55466.120    35308.959     8365.207       16.592        4.957      482.410      100.726        0.044      335.384        5.978      847.873
10/28/2013  12:53:00     -542.572     -100.896      -18.917      248.767      190.159       99.112    61884.803    36160.345     9823.119       20.638        5.393      551.874      119.030        0.047      335.419        6.037      847.861
10/28/2013  12:54:00     -436.089     -134.538      -19.250      155.331      179.426       89.348    24127.849    32193.685     7983.113       13.646        3.215      456.370       92.124        0.041      335.453        6.093      847.870
10/28/2013  12:55:00     -347.238      -64.596      -12.610      226.198      113.489       78.479    51165.555    12879.727     6158.896        9.754        3.510      353.195       95.348        0.073      335.546        6.248      847.861
10/28/2013  12:56:00     -542.871     -164.594      -25.278      172.703      123.999       69.257    29826.218    15375.676     4796.498       18.621        2.500      567.274       67.806        0.014      335.414        6.029      847.860
10/28/2013  12:57:00     -401.504     -117.572      -16.637      129.168      101.758       59.303    16684.391    10354.767     3516.842       10.293        1.528      418.364       57.656        0.019      335.548        6.252      847.893
10/28/2013  12:58:00     -449.294      -83.234      -22.128      182.605      141.992       73.720    33344.659    20161.616     5434.624       13.410        2.947      456.939       82.509        0.033      335.567        6.285      847.912
10/28/2013  12:59:00     -508.156      -63.016      -15.354      214.974      149.011       94.753    46213.919    22204.379     8978.118       16.990        3.870      512.049       87.807        0.029      335.506        6.181      847.855
10/28/2013  13:00:00     -245.252     -144.333      -13.171      174.661      132.955       80.329    30506.362    17677.002     6452.679        6.789        2.732      284.571       85.801        0.091      335.636        6.399      847.886
10/28/2013  13:01:00     -369.590      -24.915      -19.412      179.507      172.429       70.513    32222.884    29731.876     4972.050       10.225        3.346      370.429       81.886        0.049      335.570        6.288      847.855
10/28/2013  13:02:00     -440.216      -79.758       -5.151      191.045      150.450       84.040    36498.180    22635.221     7062.656       13.318        3.310      447.383       90.662        0.041      335.506        6.182      847.842
10/28/2013  13:03:00     -497.842     -175.467       -2.665      282.955      182.766       93.326    80063.581    33403.524     8709.768       20.039        6.109      527.860      117.828        0.050      335.396        5.999      847.845
10/28/2013  13:04:00     -332.824      -95.137        4.558      190.096      160.161       83.486    36136.322    25651.542     6969.883        9.429        3.438      346.154       96.978        0.078      335.477        6.134      847.862
10/28/2013  13:05:00     -472.827      -88.788      -34.777      187.210      152.262       76.694    35047.672    23183.625     5882.007       14.837        3.206      481.091       87.668        0.033      335.444        6.079      847.854
10/28/2013  13:06:00     -380.122     -143.948      -21.670      238.195      189.711       81.926    56736.764    35990.332     6711.934       13.254        4.972      406.465       94.737        0.054      335.483        6.144      847.839
10/28/2013  13:07:00     -442.532     -119.935       -6.108      190.286      153.578       88.106    36208.853    23586.111     7762.589       13.890        3.378      458.497       84.798        0.034      335.489        6.155      847.822
10/28/2013  13:08:00     -326.990     -179.359       12.934      187.385      138.626       90.407    35113.010    19217.243     8173.472       10.087        3.125      372.951      100.643        0.073      335.532        6.225      847.813
10/28/2013  13:09:00     -601.852     -201.069      -28.912      354.490      230.150      113.527   125662.960    52968.969    12888.328       29.747        9.576      634.551      147.729        0.054      335.478        6.136      847.783
10/28/2013  13:10:00     -473.054     -114.774      -11.617      286.597      182.061      116.545    82137.941    33146.309    13582.739       18.296        6.443      486.779      148.842        0.093      335.513        6.193      847.799
10/28/2013  13:11:00     -544.902     -146.362      -16.431      255.242      166.987       99.422    65148.553    27884.569     9884.821       21.075        5.146      564.216      119.445        0.045      335.456        6.099      847.816
10/28/2013  13:12:00     -339.026     -146.632      -11.187      225.634      165.193       82.371    50910.831    27288.864     6784.950       11.076        4.249      369.377      100.300        0.074      335.518        6.203      847.824
10/28/2013  13:13:00     -323.941      -47.867        3.235      217.463      152.710       93.370    47290.074    23320.201     8718.015        9.327        3.966      327.458      106.744        0.106      335.635        6.398      847.865
10/28/2013  13:14:00     -357.959     -185.564        1.501      204.535      195.450      104.070    41834.520    38200.860    10830.617       12.670        4.543      403.198      110.409        0.075      335.511        6.190      847.861
10/28/2013  13:15:00     -360.193     -244.011      -11.786      156.394      145.750       90.241    24459.110    21242.937     8143.429       12.162        2.692      435.063       88.844        0.042      335.531        6.223      847.851
10/28/2013  13:16:00     -365.252      -31.594        5.684      253.700      165.049       99.376    64363.460    27241.306     9875.670       11.794        5.074      366.616      124.594        0.115      335.611        6.357      847.869
10/28/2013  13:17:00     -376.778     -127.819        2.430      287.596      179.884       88.155    82711.484    32358.206     7771.324       14.055        6.142      397.868      113.148        0.081      335.564        6.278      847.887
10/28/2013  13:18:00     -495.975     -124.407      -22.831      206.678      226.355      103.703    42715.902    51236.492    10754.412       18.333        5.235      511.340      100.539        0.039      335.513        6.194      847.880
10/28/2013  13:19:00     -358.486     -171.661       -1.743      220.690      214.029       95.998    48704.291    45808.563     9215.542       13.084        5.186      397.467       94.366        0.056      335.620        6.371      847.899
10/28/2013  13:20:00     -281.370     -176.799      -11.831      194.257      154.337       90.206    37735.702    23819.921     8137.208        9.012        3.485      332.306      101.854        0.094      335.673        6.460      847.911
10/28/2013  13:21:00     -342.017      -76.866      -13.851      230.479      177.314       93.284    53120.492    31440.174     8701.883       10.815        4.663      350.548      118.126        0.114      335.675        6.463      847.911
10/28/2013  13:22:00     -656.009     -126.562      -25.202      220.144      164.549       92.944    48463.348    27076.393     8638.531       26.558        4.209      668.106      100.669        0.023      335.414        6.028      847.905
10/28/2013  13:23:00     -582.418     -182.179      -11.062      209.489      186.465       92.405    43885.729    34769.251     8538.724       22.984        4.360      610.246      105.053        0.030      335.456        6.098      847.896
10/28/2013  13:24:00     -564.801      -90.633      -29.044      212.423      188.727       93.311    45123.627    35618.039     8707.026       20.874        4.472      572.026      105.445        0.034      335.444        6.079      847.871
10/28/2013  13:25:00     -378.007     -118.138        4.737      181.781      186.074       86.175    33044.495    34623.532     7426.186       11.597        3.755      396.038       90.368        0.052      335.567        6.284      847.905
10/28/2013  13:26:00     -418.063      -84.827      -13.575      231.848      116.029       85.425    53753.554    13462.770     7297.444       12.832        3.726      426.582      108.806        0.065      335.528        6.218      847.919
10/28/2013  13:27:00     -258.247     -153.329       15.044      222.074      145.200       98.609    49316.753    21082.969     9723.775        8.526        4.006      300.335      118.880        0.157      335.613        6.360      847.911
10/28/2013  13:28:00     -397.712     -184.200       -5.744      223.494      181.579       88.927    49949.768    32970.829     7907.952       14.147        4.541      438.297       91.896        0.044      335.558        6.269      847.890
10/28/2013  13:29:00     -362.332     -137.856        1.296      293.624      196.270      104.051    86215.213    38522.087    10826.710       14.290        6.778      387.671      130.693        0.114      335.561        6.273      847.858
10/28/2013  13:30:00     -501.266     -133.020       -9.064      209.403      171.285       91.368    43849.571    29338.637     8348.046       17.528        4.077      518.615       93.195        0.032      335.503        6.176      847.883
10/28/2013  13:31:00     -495.974     -140.853      -16.736      248.689      173.887       99.076    61846.017    30236.742     9816.152       18.399        5.095      515.587      121.568        0.056      335.546        6.250      847.899
10/28/2013  13:32:00     -487.590      -57.837      -23.279      238.685      182.497       88.256    56970.742    33305.103     7789.087       16.983        4.903      491.009       99.157        0.041      335.501        6.173      847.883
10/28/2013  13:33:00     -516.492      -76.232      -16.509      199.816      158.457       87.501    39926.582    25108.575     7656.386       17.276        3.635      522.088      103.876        0.040      335.553        6.261      847.866
10/28/2013  13:34:00     -389.463     -188.425        5.820      274.308      211.515      115.989    75245.115    44738.493    13453.373       16.031        6.672      432.650      133.857        0.096      335.613        6.361      847.877
10/28/2013  13:35:00     -454.578      -71.172      -26.355      238.573      181.363       93.301    56917.045    32892.651     8705.082       15.544        4.926      460.116       83.431        0.033      335.505        6.179      847.899
10/28/2013  13:36:00     -442.895      -16.487      -14.882      183.574      138.404       84.036    33699.237    19155.768     7062.104       12.827        2.996      443.202       70.091        0.025      335.579        6.304      847.879
10/28/2013  13:37:00     -408.164      -46.413        7.355      218.278      142.266       95.699    47645.206    20239.652     9158.253       12.291        3.852      410.794      106.974        0.068      335.600        6.340      847.850
10/28/2013  13:38:00     -385.330     -109.083      -10.157      178.596      196.637       91.521    31896.678    38666.083     8376.073       11.970        3.947      400.472       83.512        0.043      335.597        6.334      847.868
10/28/2013  13:39:00     -301.586      -58.512        7.395      227.852      177.079       98.336    51916.532    31357.050     9669.929        9.367        4.647      307.210      107.752        0.123      335.694        6.496      847.853
10/28/2013  13:40:00     -636.607     -202.067      -30.171      258.846      206.604      106.616    67001.409    42685.148    11366.930       28.401        6.053      667.907      125.944        0.036      335.451        6.091      847.856
10/28/2013  13:41:00     -417.493     -110.791      -12.566      297.769      174.625      107.220    88666.438    30493.802    11496.145       15.867        6.533      431.943      125.195        0.084      335.498        6.168      847.848
10/28/2013  13:42:00     -412.476      -45.946      -12.684      230.613      145.102       83.413    53182.221    21054.515     6957.804       12.679        4.060      415.027       99.549        0.058      335.530        6.223      847.875
10/28/2013  13:43:00     -336.120     -101.720        1.768      229.151      180.269       87.478    52510.016    32496.916     7652.381       10.798        4.633      351.174      103.765        0.087      335.575        6.297      847.857
10/28/2013  13:44:00     -262.848      -92.726       -8.331      184.450      152.362       72.397    34021.664    23214.331     5241.297        7.011        3.124      278.725       74.594        0.072      335.617        6.368      847.888
10/28/2013  13:45:00     -626.719     -124.034      -29.975      240.312      198.260      101.255    57749.800    39306.948    10252.555       25.817        5.365      638.875      106.878        0.028      335.451        6.090      847.859
10/28/2013  13:46:00     -342.075     -112.926       13.268      236.397      151.079       99.557    55883.381    22824.963     9911.614       10.927        4.431      360.232      101.610        0.080      335.485        6.147      847.807
10/28/2013  13:47:00     -683.802     -112.090      -46.426      354.003      246.131      123.521   125318.470    60580.244    15257.489       34.170       10.058      692.928      152.849        0.049      335.417        6.034      847.791
10/28/2013  13:48:00     -561.502     -166.733      -23.068      269.584      222.171       98.250    72675.702    49360.047     9653.046       23.763        6.584      585.734      114.568        0.038      335.429        6.055      847.796
10/28/2013  13:49:00     -582.065      -71.739      -28.332      221.987      170.961       95.672    49278.280    29227.517     9153.119       21.619        4.383      586.470      109.987        0.035      335.433        6.061      847.822
10/28/2013  13:50:00     -362.370     -116.642       13.901      258.424      196.688      100.866    66782.959    38686.069    10173.975       13.036        5.782      380.680      125.040        0.108      335.549        6.254      847.809
10/28/2013  13:51:00     -351.925      -20.912        1.650      199.567      158.648       88.558    39826.920    25169.274     7842.543        9.855        3.642      352.546      104.310        0.088      335.568        6.286      847.820
10/28/2013  13:52:00     -294.167       13.461       11.581      215.329      165.436       91.010    46366.366    27368.992     8282.817        8.442        4.101      294.474      101.237        0.118      335.629        6.387      847.790
10/28/2013  13:53:00     -294.395      -90.122      -21.916      183.753      154.675       77.266    33765.227    23924.442     5970.072        7.945        3.183      307.880       67.899        0.049      335.664        6.446      847.798
10/28/2013  13:54:00     -304.828      -76.997        1.832      185.657      130.010       76.022    34468.655    16902.680     5779.401        7.799        2.858      314.402       88.985        0.080      335.695        6.497      847.814
10/28/2013  13:55:00     -467.521      -83.631      -36.421      212.147      160.239       82.685    45006.339    25676.439     6836.798       15.220        3.876      474.943       76.443        0.026      335.634        6.396      847.828
10/28/2013  13:56:00     -360.966     -107.529       -9.418      223.240      185.856       88.304    49835.910    34542.387     7797.517       11.705        4.609      376.641       99.461        0.070      335.645        6.415      847.796
10/28/2013  13:57:00     -418.377      -79.193      -15.405      187.515      155.152       78.591    35161.926    24072.265     6176.603       12.347        3.271      425.806       82.372        0.037      335.627        6.383      847.830
10/28/2013  13:58:00     -400.032     -114.544        7.617      232.359      165.138      101.869    53990.925    27270.576    10377.333       13.241        4.582      416.108      105.361        0.064      335.570        6.288      847.818
10/28/2013  13:59:00     -505.344     -167.763      -14.516      222.803      212.541      102.184    49641.120    45173.858    10441.645       19.447        5.263      532.463      102.182        0.037      335.550        6.255      847.802
10/28/2013  14:00:00     -291.652     -198.248        5.220      223.893      205.723      106.080    50127.867    42321.773    11252.881       11.403        5.185      352.652      119.516        0.115      335.605        6.347      847.802
10/28/2013  14:01:00     -291.534      -51.426        7.310      263.869      166.970       92.039    69626.853    27878.890     8471.129        9.682        5.299      296.035      105.802        0.128      335.622        6.375      847.797
10/28/2013  14:02:00     -491.046     -207.605      -16.336      225.585      155.201       89.261    50888.675    24087.355     7967.584       18.370        4.147      533.129      100.442        0.035      335.531        6.224      847.761
10/28/2013  14:03:00     -368.848      -63.067       -1.402      237.145      201.696       81.883    56237.771    40681.311     6704.828       12.181        5.181      374.200       97.886        0.068      335.651        6.423      847.783
10/28/2013  14:04:00     -808.815     -230.216       -8.960      381.453      266.665      130.257   145506.263    71110.031    16966.895       47.038       11.679      840.940      164.289        0.038      335.405        6.014      847.736
10/28/2013  14:05:00     -487.949     -186.689      -16.669      240.116      150.457       86.509    57655.863    22637.369     7483.759       18.049        4.389      522.443       95.216        0.033      335.475        6.129      847.776
10/28/2013  14:06:00     -352.567      -88.995        7.815      329.541      184.089      115.567   108597.466    33888.775    13355.673       14.404        7.792      363.626      135.788        0.139      335.559        6.270      847.807
10/28/2013  14:07:00     -270.264     -102.970        2.754      258.394      197.554      104.341    66767.239    39027.523    10887.080       10.015        5.834      289.215      118.998        0.169      335.563        6.277      847.775
10/28/2013  14:08:00     -373.660     -103.924        5.398      220.550      159.313       92.803    48642.510    25380.550     8612.317       11.653        4.132      387.842      107.471        0.077      335.529        6.220      847.761
10/28/2013  14:09:00     -595.983      -87.733      -28.123      284.440      202.309      111.629    80906.011    40928.922    12460.932       24.897        6.715      602.406      117.885        0.038      335.502        6.176      847.761
10/28/2013  14:10:00     -671.247     -186.235      -20.586      305.985      221.342      103.224    93626.789    48992.457    10655.160       31.945        7.664      696.603      122.567        0.031      335.466        6.116      847.713
10/28/2013  14:11:00     -516.736      -28.050       -7.270      297.409      188.362       99.235    88451.921    35480.101     9847.570       20.080        6.689      517.496      125.269        0.059      335.546        6.248      847.726
10/28/2013  14:12:00     -408.927     -101.426      -16.020      235.938      247.285      104.750    55666.907    61150.035    10972.654       15.276        6.389      421.317      117.994        0.078      335.612        6.358      847.755
10/28/2013  14:13:00     -435.855      -45.020      -17.156      338.669      168.125      111.269   114696.857    28266.155    12380.720       17.379        7.767      438.174      145.996        0.111      335.643        6.410      847.787
10/28/2013  14:14:00     -723.267     -196.953      -44.074      245.622      202.034      112.473    60330.037    40817.535    12650.202       33.880        5.690      749.604      118.788        0.025      335.506        6.183      847.794
10/28/2013  14:15:00     -556.331      -29.777      -23.224      207.484      178.479       90.687    43049.416    31854.596     8224.107       19.702        4.156      557.127       93.870        0.028      335.571        6.289      847.837
10/28/2013  14:16:00     -326.483      -99.794      -15.376      211.211      170.886       81.347    44610.239    29202.158     6617.369        9.859        4.021      341.394       84.011        0.061      335.709        6.521      847.842
10/28/2013  14:17:00     -295.385     -112.770        0.586      194.645      152.469       99.677    37886.841    23246.940     9935.450        8.551        3.553      316.179      108.369        0.117      335.749        6.588      847.890
10/28/2013  14:18:00     -363.359      -32.769        0.912      229.415      167.695       96.431    52631.470    28121.503     9298.850       11.156        4.503      364.833      107.957        0.088      335.733        6.560      847.904
10/28/2013  14:19:00     -464.923      -20.362      -24.199      246.337      183.423       89.590    60682.096    33644.010     8026.297       15.974        5.118      465.369      108.196        0.054      335.693        6.494      847.889
10/28/2013  14:20:00     -328.257     -109.976      -21.331      201.372      140.818       76.516    40550.702    19829.791     5854.635        9.326        3.312      346.190       91.264        0.069      335.738        6.569      847.904
10/28/2013  14:21:00     -694.751     -176.775      -27.777      285.909      188.861      109.290    81743.747    35668.627    11944.267       32.201        6.468      716.888      125.950        0.031      335.590        6.322      847.888
10/28/2013  14:22:00     -563.237     -227.701      -28.181      210.338      227.737       98.984    44242.237    51864.120     9797.739       23.787        5.295      607.522      107.206        0.031      335.596        6.332      847.902
10/28/2013  14:23:00     -261.405      -98.178        9.851      235.603      185.063      109.434    55508.881    34248.476    11975.859        8.988        5.087      279.234      119.198        0.182      335.721        6.541      847.898
10/28/2013  14:24:00     -348.564     -159.445       -3.849      240.533      208.814       92.676    57856.225    43603.473     8588.859       12.847        5.502      383.301      113.860        0.088      335.629        6.386      847.907
10/28/2013  14:25:00     -590.980      -89.372      -23.565      273.391      168.972       93.772    74742.568    28551.650     8793.187       23.493        5.604      597.700      114.000        0.036      335.554        6.262      847.883
10/28/2013  14:26:00     -357.282     -123.790       -4.246      176.736      153.917       87.182    31235.588    23690.385     7600.649       10.275        3.126      378.119       76.328        0.041      335.599        6.337      847.886
10/28/2013  14:27:00     -451.424     -254.642       -3.268      281.354      208.309      123.382    79160.024    43392.658    15223.203       20.318        6.889      518.291      131.494        0.064      335.558        6.269      847.872
10/28/2013  14:28:00     -503.164     -100.861      -26.352      287.637      241.722       99.840    82734.775    58429.380     9967.929       20.756        7.557      513.173      116.911        0.052      335.532        6.224      847.898
10/28/2013  14:29:00     -494.279     -111.887      -15.773      222.510      210.268      108.881    49510.871    44212.833    11855.095       18.131        5.279      506.784      107.677        0.045      335.630        6.388      847.900
10/28/2013  14:30:00     -604.933      -94.675      -34.404      304.943      187.162      103.359    92990.193    35029.593    10683.145       25.737        6.935      612.296      122.312        0.040      335.573        6.294      847.905
10/28/2013  14:31:00     -558.642     -147.629      -34.353      181.649      187.315       89.279    32996.214    35086.783     7970.750       20.554        3.803      577.820       73.041        0.016      335.576        6.298      847.892
10/28/2013  14:32:00     -556.764     -253.052      -11.067      243.836      219.367      116.432    59456.163    48121.943    13556.478       24.762        6.057      611.573      118.870        0.038      335.543        6.244      847.872
10/28/2013  14:33:00     -305.171      -95.372        6.108      190.871      141.111       72.970    36431.810    19912.206     5324.685        8.196        3.083      319.727       79.496        0.062      335.655        6.430      847.899
10/28/2013  14:34:00     -476.942     -165.191      -22.978      231.176      222.783      105.778    53442.431    49632.443    11188.896       18.476        5.713      504.739      106.978        0.045      335.620        6.372      847.913
10/28/2013  14:35:00     -563.899      -75.079      -22.489      221.164      164.179       91.102    48913.689    26954.668     8299.526       20.413        4.208      568.875       87.810        0.024      335.609        6.355      847.885
10/28/2013  14:36:00     -469.643     -114.947      -17.960      226.315      152.683       92.059    51218.558    23312.069     8474.842       15.854        4.150      483.505      110.328        0.052      335.645        6.414      847.887
10/28/2013  14:37:00     -522.196      -37.193       -4.040      283.743      163.545      104.064    80510.104    26747.021    10829.293       19.607        5.904      523.519      129.586        0.061      335.608        6.351      847.897
10/28/2013  14:38:00     -425.357     -108.284      -25.068      201.339      143.984       74.177    40537.334    20731.267     5502.173       13.002        3.339      438.924       88.454        0.041      335.650        6.423      847.884
10/28/2013  14:39:00     -352.295     -147.811      -29.472      230.365      182.512       97.542    53067.829    33310.471     9514.403       12.134        4.795      382.047       74.498        0.038      335.658        6.433      847.859
10/28/2013  14:40:00     -377.939     -229.351      -16.282      208.008      145.792       85.783    43267.292    21255.227     7358.658       13.378        3.594      442.086       87.722        0.039      335.678        6.468      847.908
10/28/2013  14:41:00     -293.205      -82.643       -4.584      170.975      171.047       82.005    29232.534    29257.041     6724.887        7.901        3.261      304.629       90.683        0.089      335.794        6.663      847.957
10/28/2013  14:42:00     -265.425     -102.643       -2.428      180.039      143.423       95.741    32413.872    20570.023     9166.312        7.156        3.108      284.580       90.544        0.101      335.771        6.623      847.978
10/28/2013  14:43:00     -362.554     -152.776      -14.032      204.376      213.472      106.783    41769.544    45570.157    11402.660       12.685        4.937      393.428       87.543        0.050      335.663        6.442      847.986
10/28/2013  14:44:00     -346.762     -179.517      -12.300      189.304      177.399       83.071    35836.049    31470.474     6900.736       11.340        3.710      390.474       87.599        0.050      335.692        6.491      848.012
10/28/2013  14:45:00     -269.220     -145.888       14.091      239.019      155.853       86.032    57129.873    24290.023     7401.551        9.138        4.441      306.207      100.512        0.108      335.710        6.522      848.015
10/28/2013  14:46:00     -197.949     -128.655      -10.700      181.420      100.545       70.103    32913.194    10109.264     4914.458        5.189        2.397      236.084       59.134        0.063      335.749        6.587      848.022
10/28/2013  14:47:00     -316.377     -205.139        0.530      180.065      163.850       87.902    32423.485    26846.974     7726.717       10.458        3.350      377.063       97.231        0.066      335.696        6.499      848.023
10/28/2013  14:48:00     -309.635      -96.993       -5.600      260.494      168.535       95.907    67857.186    28403.928     9198.075       10.537        5.273      324.471      104.467        0.104      335.722        6.543      848.030
10/28/2013  14:49:00     -188.229     -127.832       14.934      184.285      176.030       95.766    33960.952    30986.663     9171.210        6.304        3.706      227.532       95.038        0.174      335.777        6.634      848.009
10/28/2013  14:50:00     -562.521     -238.311      -21.983      249.525      175.991      104.566    62262.741    30973.007    10934.097       23.892        5.208      610.919      110.697        0.033      335.626        6.381      848.029
10/28/2013  14:51:00     -348.375     -128.387        3.030      208.021      150.134       99.094    43272.713    22540.112     9819.661       10.673        3.782      371.279      107.421        0.084      335.606        6.349      848.009
10/28/2013  14:52:00     -429.222     -161.835      -18.591      267.420      202.057      114.186    71513.491    40827.161    13038.441       16.805        6.269      458.718      135.887        0.088      335.598        6.334      848.004
10/28/2013  14:53:00     -357.907      -85.007      -17.879      166.742      140.028       70.151    27802.930    19607.951     4921.203        9.398        2.617      367.863       71.516        0.038      335.638        6.402      848.034
10/28/2013  14:54:00     -300.908     -149.594       -3.860      239.871      167.099       86.272    57538.243    27922.147     7442.774       10.291        4.645      336.041       98.852        0.087      335.601        6.340      848.012
10/28/2013  14:55:00     -328.430     -174.448      -19.591      225.670      184.837      100.088    50926.970    34164.792    10017.532       11.688        4.755      371.885      109.036        0.086      335.600        6.339      847.984
10/28/2013  14:56:00     -322.836     -147.856        1.316      271.831      185.786       95.410    73892.088    34516.287     9103.016       12.178        5.876      355.084      113.867        0.103      335.642        6.408      847.966
10/28/2013  14:57:00     -337.580     -241.762       -3.904      217.628      200.437      117.025    47361.773    40174.868    13694.877       13.681        5.062      415.222      132.174        0.101      335.617        6.368      847.952
10/28/2013  14:58:00     -480.249     -210.145       -3.477      291.979      248.307      119.161    85251.896    61656.601    14199.238       21.793        8.055      524.214      127.491        0.059      335.541        6.240      847.923
10/28/2013  14:59:00     -443.350     -121.945       -7.952      266.067      192.772      101.540    70791.671    37160.877    10310.358       16.486        5.913      459.815      123.839        0.073      335.605        6.348      847.936
10/28/2013  15:00:00     -412.741      -88.604      -11.289      292.277      171.397      108.208    85425.678    29376.953    11709.061       15.240        6.326      422.145      137.742        0.106      335.595        6.330      847.948
10/28/2013  15:01:00     -548.273      -30.478      -11.508      262.856      201.496      105.859    69093.382    40600.524    11206.225       21.126        6.045      549.120      107.222        0.038      335.548        6.251      847.970
10/28/2013  15:02:00     -584.997     -134.072      -26.059      218.757      205.527      104.481    47854.560    42241.227    10916.193       23.093        5.051      600.164      115.801        0.037      335.563        6.278      847.985
10/28/2013  15:03:00     -421.037     -208.732        0.640      295.260      227.325      119.022    87178.467    51676.495    14166.137       18.691        7.651      469.938      140.297        0.089      335.599        6.336      848.014
10/28/2013  15:04:00     -671.152     -148.915      -31.200      294.967      242.056      123.373    87005.745    58590.993    15220.816       31.718        8.041      687.474      139.306        0.041      335.515        6.197      848.028
10/28/2013  15:05:00     -475.020     -126.258      -23.604      228.602      168.392       93.417    52258.746    28355.708     8726.719       16.573        4.467      491.513      106.731        0.047      335.618        6.368      848.069
10/28/2013  15:06:00     -280.038      -67.086       12.526      173.813      158.769       83.450    30210.816    25207.726     6963.973        7.272        3.119      287.962       92.044        0.102      335.702        6.509      848.118
10/28/2013  15:07:00     -462.153     -150.398       -5.871      211.881      173.710       97.942    44893.421    30175.275     9592.661       16.044        4.233      486.009       96.685        0.040      335.637        6.399      848.119
10/28/2013  15:08:00     -505.780     -187.640      -15.598      273.203      188.903       93.896    74639.931    35684.204     8816.397       20.518        5.957      539.465      100.735        0.035      335.646        6.416      848.120
10/28/2013  15:09:00     -383.531     -109.483      -23.611      253.862      148.064       89.377    64445.750    21923.079     7988.178       12.698        4.718      398.852       93.148        0.055      335.632        6.392      848.119
10/28/2013  15:10:00     -380.365     -218.908      -26.316      203.249      133.768       90.767    41310.211    17893.994     8238.570       13.036        3.372      438.861       95.271        0.047      335.622        6.377      848.149
10/28/2013  15:11:00     -282.597     -124.217       -4.998      232.521      164.424       90.525    54065.795    27035.198     8194.859        9.229        4.465      308.692       82.763        0.072      335.664        6.446      848.142
10/28/2013  15:12:00     -529.251     -219.796      -49.891      240.340      168.554      101.532    57763.174    28410.361    10308.833       21.368        4.824      573.077      109.253        0.036      335.606        6.349      848.127
10/28/2013  15:13:00     -573.237     -253.105      -51.236      236.252      193.030      110.852    55815.159    37260.422    12288.058       25.031        5.268      626.628      118.233        0.036      335.572        6.292      848.075
10/28/2013  15:14:00     -325.417      -71.762       11.769      147.416      156.750       76.076    21731.491    24570.610     5787.563        8.163        2.604      333.236       71.781        0.046      335.681        6.475      848.074
10/28/2013  15:15:00     -405.753      -32.895      -15.671      260.859      168.660      103.475    68047.358    28446.121    10707.019       13.656        5.360      407.084      118.208        0.084      335.692        6.492      848.095
10/28/2013  15:16:00     -489.882     -161.164       -1.200      300.427      192.831      107.354    90256.272    37183.961    11524.915       20.244        6.948      515.712      130.708        0.064      335.609        6.353      848.071
10/28/2013  15:17:00     -518.344      -25.514      -23.573      216.138      182.822       86.819    46715.808    33423.819     7537.549       17.877        4.384      518.972       93.025        0.032      335.648        6.418      848.085
10/28/2013  15:18:00     -403.205      -74.418       10.256      319.052      182.686      104.563   101794.104    33374.008    10933.467       15.714        7.305      410.015      131.776        0.103      335.726        6.548      848.084
10/28/2013  15:19:00     -558.771     -111.165      -16.596      241.133      194.291      103.067    58145.182    37749.050    10622.717       21.567        5.326      569.722      112.337        0.039      335.681        6.474      848.124
10/28/2013  15:20:00     -600.266     -131.790      -26.929      292.216      250.817      107.983    85390.113    62908.927    11660.249       26.916        7.998      614.564      119.336        0.038      335.698        6.500      848.094
10/28/2013  15:21:00     -669.844     -147.193      -18.683      259.740      257.748      112.372    67464.974    66434.175    12627.548       30.859        7.326      685.825      132.289        0.037      335.661        6.441      848.111
10/28/2013  15:22:00     -825.801      -91.075      -20.999      300.050      213.282      109.051    90029.730    45489.058    11892.092       41.902        7.371      830.808      137.500        0.027      335.628        6.386      848.115
10/28/2013  15:23:00     -487.359     -175.069      -19.817      247.416      168.830      101.739    61214.842    28503.494    10350.901       18.430        5.003      517.849      120.585        0.054      335.688        6.486      848.133
10/28/2013  15:24:00     -437.722      -77.232      -27.314      188.885      124.222       84.496    35677.445    15431.220     7139.544       12.827        2.912      444.483       93.038        0.044      335.779        6.636      848.161
10/28/2013  15:25:00     -472.407      -43.059       -6.469      228.189      191.796      109.245    52070.130    36785.802    11934.397       16.291        5.040      474.365      116.866        0.061      335.754        6.595      848.147
10/28/2013  15:26:00     -532.711     -105.916      -28.614      242.775      233.515      113.901    58939.480    54529.218    12973.408       21.111        6.322      543.138      108.961        0.040      335.730        6.554      848.110
10/28/2013  15:27:00     -337.225      -70.410       11.773      204.577      176.760       95.980    41851.930    31244.024     9212.090       10.055        4.115      344.498       99.902        0.084      335.828        6.717      848.167
10/28/2013  15:28:00     -384.834     -142.732        9.615      225.672      195.279       99.935    50928.056    38133.812     9987.010       13.379        4.952      410.450      103.542        0.064      335.829        6.720      848.122
10/28/2013  15:29:00     -737.087     -155.080      -44.079      242.873      209.558      115.831    58987.199    43914.363    13416.762       34.278        5.816      753.224      123.726        0.027      335.722        6.543      848.109
10/28/2013  15:30:00     -505.337      -61.072      -28.337      277.143      176.098      103.184    76808.239    31010.368    10646.990       18.916        5.923      509.014      119.162        0.055      335.818        6.702      848.126
10/28/2013  15:31:00     -436.842      -92.966      -27.723      241.204      161.177       97.037    58179.288    25977.972     9416.152       14.689        4.679      446.625      121.200        0.074      335.827        6.718      848.141
10/28/2013  15:32:00     -469.580     -100.521      -16.092      223.008      169.641       93.489    49732.646    28777.939     8740.123       15.905        4.363      480.219      114.899        0.057      335.800        6.672      848.156
10/28/2013  15:33:00     -434.978     -184.878      -16.398      177.684      184.913       82.485    31571.466    34192.854     6803.807       14.810        3.628      472.637       82.079        0.030      335.842        6.743      848.158
10/28/2013  15:34:00     -562.139     -147.127      -18.455      211.988      187.732       88.481    44938.707    35243.387     7828.843       21.298        4.401      581.074       85.750        0.022      335.747        6.583      848.188
10/28/2013  15:35:00     -348.117      -39.782      -18.484      248.888      124.860       75.548    61945.010    15589.936     5707.517       10.316        4.162      350.382       92.924        0.070      335.864        6.779      848.198
10/28/2013  15:36:00     -385.435     -116.467        1.217      240.801      171.106       92.827    57985.110    29277.291     8616.925       12.899        4.794      402.648       98.381        0.060      335.803        6.676      848.186
10/28/2013  15:37:00     -314.853      -93.692      -10.253      183.574      148.838       86.556    33699.519    22152.772     7492.008        8.567        3.167      328.498       78.719        0.057      335.804        6.678      848.182
10/28/2013  15:38:00     -439.987     -120.810       -7.904      207.579      210.003       90.015    43089.215    44101.080     8102.789       15.175        4.765      456.271       90.921        0.040      335.738        6.569      848.219
10/28/2013  15:39:00     -467.207     -105.557      -11.074      244.193      190.525       88.524    59630.261    36299.798     7836.535       16.664        5.188      478.983       95.689        0.040      335.714        6.528      848.191
10/28/2013  15:40:00     -519.411     -132.344      -25.533      188.429      177.715       99.213    35505.616    31582.772     9843.261       18.243        3.847      536.007       87.700        0.027      335.676        6.466      848.171
10/28/2013  15:41:00     -349.916     -121.733      -25.422      197.589      178.372       97.555    39041.266    31816.414     9516.912       10.913        4.019      370.486      103.984        0.079      335.744        6.579      848.158
10/28/2013  15:42:00     -701.372      -81.851      -51.188      272.792      216.564      106.077    74415.259    46899.947    11252.337       31.688        6.628      706.132      108.923        0.024      335.654        6.428      848.171
10/28/2013  15:43:00     -532.013      -96.721      -10.449      229.676      185.011       89.736    52751.010    34229.178     8052.462       19.375        4.752      540.734       80.420        0.022      335.702        6.508      848.186
10/28/2013  15:44:00     -688.755     -124.187      -34.623      269.999      187.620      104.999    72899.679    35201.224    11024.885       30.505        5.956      699.862      123.692        0.031      335.700        6.505      848.258
10/28/2013  15:45:00     -669.546     -117.237      -28.601      249.995      229.040       99.702    62497.466    52459.338     9940.446       29.385        6.245      679.733      116.783        0.030      335.649        6.419      848.225
10/28/2013  15:46:00     -661.833     -140.831      -26.386      273.315      171.469      108.194    74701.362    29401.568    11706.010       28.716        5.790      676.651      132.643        0.038      335.647        6.417      848.234
10/28/2013  15:47:00     -521.723     -100.851      -49.231      232.571      206.135       95.799    54089.059    42491.778     9177.491       19.526        5.288      531.381      103.833        0.038      335.655        6.430      848.247
10/28/2013  15:48:00     -446.470     -186.197       -9.356      242.240      173.377       83.293    58680.446    30059.747     6937.657       16.487        4.784      483.741       79.314        0.027      335.707        6.517      848.312
10/28/2013  15:49:00     -479.906      -62.876       -6.127      268.128      167.603       93.479    71892.513    28090.683     8738.275       17.149        5.436      484.007      119.508        0.061      335.748        6.584      848.336
10/28/2013  15:50:00     -641.695     -168.599      -12.778      262.603      179.418      102.999    68960.565    32190.888    10608.691       27.604        5.588      663.475      122.684        0.034      335.672        6.458      848.356
10/28/2013  15:51:00     -513.142     -151.612      -18.420      252.976      133.317      107.788    63997.024    17773.478    11618.300       19.000        4.669      535.071      122.583        0.052      335.686        6.482      848.394
10/28/2013  15:52:00     -724.142        8.940      -49.998      254.482      194.007      119.830    64761.291    37638.615    14359.185       32.184        5.838      724.197      127.026        0.031      335.585        6.313      848.438
10/28/2013  15:53:00     -506.159      -94.755      -10.057      211.997      187.799       94.401    44942.932    35268.412     8911.500       17.718        4.456      514.952      101.167        0.039      335.627        6.385      848.433
10/28/2013  15:54:00     -450.845     -142.136        1.885      247.593      233.346      102.989    61302.210    54450.333    10606.633       17.489        6.318      472.720      118.406        0.063      335.644        6.411      848.446
10/28/2013  15:55:00     -526.025        8.366      -18.889      196.725      193.499       92.455    38700.696    37441.829     8548.005       18.090        4.235      526.091       89.574        0.029      335.604        6.344      848.454
10/28/2013  15:56:00     -372.284      -33.718       -4.461      201.401      143.410       99.330    40562.396    20566.533     9866.413       10.536        3.550      373.808      121.177        0.105      335.656        6.431      848.477
10/28/2013  15:57:00     -358.614      -90.566      -12.327      241.842      121.170       79.913    58487.355    14682.278     6386.020       10.824        3.978      369.873      104.524        0.080      335.678        6.468      848.480
10/28/2013  15:58:00     -390.728     -102.067      -11.259      231.746      152.373       91.659    53706.364    23217.646     8401.315       12.426        4.266      403.840      112.505        0.078      335.609        6.355      848.469
10/28/2013  15:59:00     -552.304     -202.400      -12.132      199.118      214.015      100.974    39647.837    45802.322    10195.776       22.088        4.782      588.223      108.522        0.034      335.573        6.293      848.479
10/28/2013  16:00:00     -388.978      -94.403      -41.866      165.245      114.589       59.779    27305.828    13130.751     3573.483       10.298        2.201      400.269       57.566        0.021      335.621        6.374      848.504
10/28/2013  16:01:00     -487.860     -163.115      -19.440      178.330      131.693       84.371    31801.668    17343.096     7118.533       16.062        2.813      514.406       78.582        0.023      335.558        6.268      848.504
10/28/2013  16:02:00     -654.110     -166.425      -28.845      242.754      171.193      100.330    58929.599    29307.117    10066.039       27.733        4.915      674.950       98.450        0.021      335.501        6.174      848.492
10/28/2013  16:03:00     -548.403      -95.545      -30.924      256.205      175.455      108.903    65640.864    30784.554    11859.906       20.954        5.414      556.664      116.164        0.044      335.509        6.186      848.503
10/28/2013  16:04:00     -618.706     -106.541      -38.240      253.972      167.695       99.735    64501.804    28121.447     9947.098       24.907        5.129      627.813      121.320        0.037      335.488        6.152      848.547
10/28/2013  16:05:00     -689.458      -89.686      -17.762      239.709      189.073      119.590    57460.256    35748.604    14301.871       29.559        5.376      695.267      118.607        0.029      335.518        6.202      848.590
10/28/2013  16:06:00     -371.704      -87.567        3.779      228.321      169.670       98.720    52130.324    28787.803     9745.695       11.824        4.533      381.879      115.483        0.091      335.627        6.384      848.627
10/28/2013  16:07:00     -335.461      -75.809       -5.800      143.927      112.282       73.890    20714.902    12607.298     5459.709        7.854        1.939      343.920       75.323        0.048      335.649        6.420      848.676
10/28/2013  16:08:00     -393.675      -53.441      -19.169      163.721      139.951       81.300    26804.511    19586.405     6609.628       10.559        2.650      397.286       91.187        0.053      335.652        6.425      848.690
10/28/2013  16:09:00     -501.944     -126.613      -18.170      384.414      234.895      111.429   147774.101    55175.786    12416.422       24.180       10.768      517.666      156.991        0.092      335.647        6.418      848.724
10/28/2013  16:10:00     -666.847     -183.861      -15.526      294.215      281.250      122.808    86562.453    79101.640    15081.871       32.971        9.037      691.729      145.877        0.044      335.524        6.211      848.719
10/28/2013  16:11:00     -420.783     -254.556      -22.459      279.676      240.864      118.825    78218.449    58015.677    14119.496       19.633        7.518      491.789      114.042        0.054      335.450        6.088      848.732
10/28/2013  16:12:00     -392.030      -87.212      -12.819      176.239      147.468       75.478    31060.237    21746.941     5696.860       10.997        2.925      401.614       87.202        0.047      335.498        6.170      848.795
10/28/2013  16:13:00     -303.335      -98.579       16.197      239.265      134.245       92.291    57247.703    18021.754     8517.649        9.288        4.189      318.952      103.666        0.106      335.499        6.169      848.794
10/28/2013  16:14:00     -542.844     -155.027      -11.698      250.365      157.792       94.794    62682.453    24898.444     8985.881       20.769        4.828      564.547      111.617        0.039      335.341        5.907      848.801
10/28/2013  16:15:00     -359.983      -36.841      -17.180      164.053      113.479       77.196    26913.544    12877.419     5959.271        8.849        2.288      361.863       91.044        0.063      335.396        5.998      848.843
10/28/2013  16:16:00     -485.574     -104.579      -13.703      189.217      144.380       77.126    35803.248    20845.538     5948.356       15.474        3.130      496.708       82.667        0.028      335.368        5.950      848.840
10/28/2013  16:17:00     -495.741      -55.091      -22.194      237.103      141.404       80.344    56217.653    19994.993     6455.164       16.596        4.133      498.792       95.214        0.036      335.384        5.978      848.843
10/28/2013  16:18:00     -443.961      -34.858      -28.812      246.431      168.861      105.791    60728.114    28514.202    11191.795       14.977        5.022      445.327      125.738        0.080      335.360        5.937      848.858
10/28/2013  16:19:00     -361.206        2.328      -12.065      235.641      144.864       87.356    55526.847    20985.623     7631.131       10.737        4.207      361.214      100.421        0.077      335.354        5.928      848.836
10/28/2013  16:20:00     -501.170      -78.584      -22.745      242.546      182.770       73.610    58828.483    33404.950     5418.434       17.774        4.883      507.293       80.516        0.025      335.291        5.822      848.846
10/28/2013  16:21:00     -394.443      -73.567       -8.698      163.274      155.840       74.734    26658.304    24286.062     5585.156       10.879        2.826      401.245       72.738        0.033      335.287        5.816      848.842
10/28/2013  16:22:00     -404.728     -137.661      -11.128      168.921      158.996       71.999    28534.156    25279.752     5183.835       12.093        2.950      427.499       74.008        0.030      335.275        5.797      848.826
10/28/2013  16:23:00     -496.430     -170.615      -27.576      210.328      149.252       89.396    44237.769    22276.153     7991.560       17.540        3.725      524.930       85.481        0.027      335.187        5.652      848.815
10/28/2013  16:24:00     -561.013     -167.632      -12.141      175.050      147.502       96.763    30642.569    21756.852     9363.146       20.236        3.088      585.522       97.055        0.027      335.187        5.652      848.808
10/28/2013  16:25:00     -524.334       -4.276      -39.654      215.429      132.074       82.419    46409.790    17443.477     6792.967       17.357        3.532      524.351      108.670        0.043      335.199        5.672      848.835
10/28/2013  16:26:00     -376.290     -105.756      -28.213      234.006      157.400       88.867    54759.038    24774.902     7897.328       12.049        4.372      390.869      102.846        0.069      335.270        5.790      848.818
10/28/2013  16:27:00     -593.956     -117.560      -47.599      288.433      184.729       96.510    83193.371    34124.747     9314.191       24.773        6.332      605.478      129.765        0.046      335.225        5.714      848.844
10/28/2013  16:28:00     -602.174     -122.233      -45.741      265.965      170.904       93.363    70737.595    29208.198     8716.570       24.414        5.433      614.454       87.726        0.020      335.272        5.791      848.891
10/28/2013  16:29:00     -273.668     -106.416        1.522      199.239      159.613       81.352    39696.145    25476.373     6618.183        7.899        3.590      293.630       92.207        0.099      335.364        5.946      848.935
10/28/2013  16:30:00     -388.873      -24.485      -11.217      230.887      157.851       81.569    53308.836    24916.874     6653.544       11.840        4.244      389.643      100.723        0.067      335.349        5.921      848.974
10/28/2013  16:31:00     -384.488      -80.557        0.916      147.575      150.653       82.489    21778.522    22696.202     6804.483       10.279        2.564      392.836       77.081        0.039      335.298        5.835      848.986
10/28/2013  16:32:00     -373.861     -161.451        0.644      220.762      146.474       79.007    48735.832    21454.662     6242.028       12.112        3.822      407.233       90.404        0.049      335.314        5.863      849.004
10/28/2013  16:33:00     -290.106        3.394      -20.092      183.777      130.875       79.648    33773.864    17128.308     6343.816        7.090        2.862      290.126       94.370        0.106      335.310        5.855      849.016
10/28/2013  16:34:00     -522.467      -73.449      -32.409      184.920      151.967       78.809    34195.505    23093.971     6210.926       17.145        3.175      527.605       91.065        0.030      335.259        5.771      848.995
10/28/2013  16:35:00     -336.981      -89.080      -18.935      189.573      141.189       72.362    35937.807    19934.214     5236.323        9.147        3.055      348.556       82.112        0.055      335.325        5.881      849.013
10/28/2013  16:36:00     -407.305      -66.732      -30.270      217.228      119.072       76.086    47188.034    14178.086     5789.023       11.920        3.358      412.736      101.232        0.060      335.311        5.857      849.013
10/28/2013  16:37:00     -455.491      -63.181      -21.903      249.878      175.038       96.066    62439.103    30638.169     9228.639       15.711        5.115      459.852      110.478        0.058      335.303        5.844      849.003
10/28/2013  16:38:00     -518.896      -91.259      -19.042      232.480      150.752      101.196    54046.944    22726.142    10240.602       18.246        4.351      526.860      119.425        0.051      335.244        5.746      849.030
10/28/2013  16:39:00     -446.023      -90.905        4.163      227.523      160.645       87.267    51766.690    25806.734     7615.616       14.619        4.259      455.193      101.156        0.049      335.250        5.755      849.021
10/28/2013  16:40:00     -631.659      -45.153      -36.826      277.909      184.919      109.502    77233.542    34195.170    11990.667       26.288        6.171      633.271      129.338        0.042      335.179        5.638      848.994
10/28/2013  16:41:00     -565.937     -101.616      -32.263      238.921      160.798       93.592    57083.396    25855.864     8759.440       21.166        4.585      574.988      104.892        0.033      335.125        5.551      849.021
10/28/2013  16:42:00     -574.631      -84.375      -29.890      262.097      191.164       82.778    68694.919    36543.500     6852.267       22.513        5.605      580.793       92.399        0.025      335.129        5.557      849.054
10/28/2013  16:43:00     -507.924      -48.947      -32.514      218.126      158.550       77.224    47579.119    25138.181     5963.609       17.005        3.934      510.277       82.890        0.026      335.104        5.514      849.096
10/28/2013  16:44:00     -393.583     -137.373       -1.356      275.692      134.108       95.132    76006.110    17985.001     9050.187       13.839        5.152      416.868      125.323        0.090      335.122        5.546      849.080
10/28/2013  16:45:00     -449.675      -95.182      -17.868      304.631      152.070       72.726    92800.294    23125.192     5289.009       16.638        6.061      459.638       93.000        0.041      335.093        5.496      849.103
10/28/2013  16:46:00     -486.296     -220.184      -11.248      307.930      201.545      101.348    94821.134    40620.313    10271.484       21.538        7.286      533.821      141.884        0.071      335.064        5.448      849.055
10/28/2013  16:47:00     -475.654      -14.150      -19.421      198.742      144.107       89.112    39498.329    20766.943     7940.879       14.750        3.410      475.865       96.480        0.041      335.040        5.409      849.063
10/28/2013  16:48:00     -437.790      -33.473      -12.331      205.864      138.415       87.542    42380.185    19158.626     7663.565       13.106        3.460      439.067       94.486        0.046      335.025        5.383      849.064
10/28/2013  16:49:00     -239.481      -20.980        6.421      216.822      142.843       87.591    47011.779    20404.235     7672.257        6.645        3.754      240.398      103.132        0.184      335.092        5.494      849.067
10/28/2013  16:50:00     -494.063       30.022      -29.675      187.340      194.728      100.097    35096.174    37918.803    10019.402       16.444        4.152      494.974      105.316        0.045      334.993        5.330      849.059
10/28/2013  16:51:00     -428.055      -99.379       -8.918      184.972      141.549       77.626    34214.716    20036.151     6025.837       12.672        3.014      439.440       76.977        0.031      334.970        5.290      849.054
10/28/2013  16:52:00     -401.459     -133.258      -28.933      138.566      144.696       76.320    19200.429    20936.841     5824.669       11.286        2.298      422.997       72.086        0.029      335.001        5.344      849.087
10/28/2013  16:53:00     -457.828      -80.906      -13.974      319.721      136.611       92.481   102221.286    18662.539     8552.677       17.287        6.472      464.921      104.825        0.051      334.991        5.327      849.089
10/28/2013  16:54:00     -496.067       -4.155      -31.024      159.637      158.139       77.243    25484.107    25008.050     5966.532       15.175        2.823      496.084       64.921        0.017      334.955        5.267      849.092
10/28/2013  16:55:00     -462.700       24.941      -33.768      170.890      124.562       80.963    29203.338    15515.673     6554.985       13.356        2.564      463.372       79.008        0.029      334.940        5.243      849.076
10/28/2013  16:56:00     -488.471      -77.609      -31.960      164.797      166.151       83.844    27158.181    27606.270     7029.734       15.371        3.090      494.598       80.279        0.026      334.982        5.310      849.088
10/28/2013  16:57:00     -336.958       50.110      -34.909      159.108      117.586       71.152    25315.305    13826.547     5062.566        8.073        2.210      340.664       73.107        0.046      335.010        5.358      849.097
10/28/2013  16:58:00     -448.266      -92.746      -33.566      217.103      130.031       87.926    47133.546    16908.173     7730.927       14.121        3.589      457.760      112.045        0.060      335.014        5.366      849.039
10/28/2013  16:59:00     -612.756     -215.861      -16.249      275.695      222.124      106.990    76007.830    49339.205    11446.911       27.954        6.840      649.666      107.326        0.027      335.009        5.357      849.025
10/28/2013  17:00:00     -553.470     -168.444       -9.672      333.273      194.813       95.400   111070.834    37951.996     9101.157       24.643        7.906      578.534      122.814        0.045      335.016        5.369      849.059
10/28/2013  17:01:00     -493.756      -72.253      -12.738      199.417      162.572      116.293    39767.112    26429.800    13524.154       16.444        3.986      499.015      124.767        0.063      335.008        5.354      849.104
10/28/2013  17:02:00     -606.918      -94.705      -41.508      250.273      157.002      101.116    62636.335    24649.569    10224.496       23.826        4.876      614.263      118.057        0.037      335.024        5.381      849.069
10/28/2013  17:03:00     -530.969      -37.013      -19.466      166.803      151.805       90.953    27823.175    23044.710     8272.379       17.140        2.957      532.257       82.887        0.024      334.987        5.321      849.085
10/28/2013  17:04:00     -541.198      -63.975      -14.521      219.303      177.065       89.143    48093.667    31351.864     7946.457       19.228        4.370      544.966      102.034        0.035      335.018        5.370      849.093
10/28/2013  17:05:00     -471.626     -145.314      -12.392      184.204      250.382       96.329    33931.174    62691.154     9279.370       17.478        5.295      493.505       88.647        0.032      335.056        5.434      849.092
10/28/2013  17:06:00     -470.287     -112.633      -16.866      237.360      168.617      102.567    56339.930    28431.579    10519.986       16.470        4.765      483.586      116.600        0.058      335.077        5.470      849.105
10/28/2013  17:07:00     -529.683     -202.947      -23.698      274.119      182.136      113.566    75141.292    33173.510    12897.302       22.174        6.061      567.232      116.633        0.042      335.108        5.521      849.065
10/28/2013  17:08:00     -531.369     -245.258      -17.359      259.664      206.734      110.361    67425.309    42739.124    12179.485       23.255        6.117      585.239      141.442        0.058      335.123        5.547      849.055
10/28/2013  17:09:00     -502.889     -151.741       -0.002      281.208      196.518      112.282    79077.689    38619.228    12607.302       20.309        6.515      525.284      122.436        0.054      335.111        5.528      849.057
10/28/2013  17:10:00     -466.823     -159.487      -11.075      231.462      192.979      105.861    53574.598    37240.726    11206.613       17.273        5.101      493.315      114.793        0.054      335.147        5.585      849.083
10/28/2013  17:11:00     -258.535      -60.526       19.035      194.234      153.341       98.612    37726.686    23513.575     9724.299        7.090        3.548      265.526      116.571        0.193      335.187        5.652      849.071
10/28/2013  17:12:00     -209.413     -113.928       25.869      215.716      195.168       96.250    46533.412    38090.436     9264.103        7.568        4.694      238.398      115.193        0.233      335.206        5.683      849.096
10/28/2013  17:13:00     -483.764      -57.185        3.771      218.024      221.864       96.317    47534.312    49223.765     9277.049       17.166        5.302      487.132       96.701        0.039      335.134        5.566      849.097
10/28/2013  17:14:00     -518.640      -72.422      -22.399      223.765      177.623       88.692    50070.694    31549.854     7866.245       18.210        4.474      523.672       96.595        0.034      335.108        5.522      849.118
10/28/2013  17:15:00     -529.812     -103.803      -17.351      230.360      182.965      102.098    53065.741    33476.035    10423.966       19.435        4.848      539.885      120.361        0.050      335.121        5.544      849.119
10/28/2013  17:16:00     -281.211      -62.533        1.784      161.206      154.670       76.122    25987.295    23922.840     5794.540        6.934        2.785      288.080       71.129        0.061      335.198        5.670      849.129
10/28/2013  17:17:00     -462.643     -120.709      -20.315      211.177      172.137       81.039    44595.908    29631.062     6567.369       15.489        4.040      478.131       78.156        0.027      335.162        5.611      849.126
10/28/2013  17:18:00     -477.190     -149.118      -23.433      278.600      224.666       92.898    77617.856    50474.793     8630.108       19.359        6.836      499.946      101.259        0.041      335.107        5.521      849.113
10/28/2013  17:19:00     -280.670     -103.948        3.466      175.961      164.809       69.768    30962.432    27162.072     4867.505        7.628        3.150      299.301       81.134        0.073      335.156        5.602      849.152
10/28/2013  17:20:00     -499.059     -108.636      -22.233      209.369      156.042       78.060    43835.317    24349.139     6093.415       16.780        3.714      510.746       78.774        0.024      335.124        5.549      849.144
10/28/2013  17:21:00     -294.796       -9.378       10.784      219.030      142.794       84.401    47973.980    20390.198     7123.559        8.129        3.774      294.945      101.170        0.118      335.150        5.591      849.155
10/28/2013  17:22:00     -487.467      -62.641      -32.003      231.730      159.872       89.031    53699.017    25559.033     7926.497       16.486        4.359      491.476      112.060        0.052      335.119        5.539      849.146
10/28/2013  17:23:00     -293.016        4.328      -16.043      152.173      121.902       69.508    23156.580    14860.143     4831.391        6.448        2.142      293.048       64.668        0.049      335.152        5.594      849.150
10/28/2013  17:24:00     -299.643      -86.246      -10.782      126.129      114.481       57.644    15908.461    13105.889     3322.861        6.483        1.617      311.808       44.799        0.021      335.152        5.595      849.184
10/28/2013  17:25:00     -398.767     -123.243       -0.091      177.436      191.696       97.446    31483.581    36747.412     9495.795       12.595        3.886      417.378       86.370        0.043      335.123        5.546      849.184
10/28/2013  17:26:00     -481.730     -117.519      -13.648      212.235      130.027       87.090    45043.598    16907.117     7584.733       15.779        3.477      495.858       95.413        0.037      335.094        5.497      849.183
10/28/2013  17:27:00     -225.158     -105.277        7.471      194.602      130.006       84.724    37869.969    16901.575     7178.175        6.188        3.097      248.554      104.635        0.177      335.168        5.620      849.177
10/28/2013  17:28:00     -444.689     -122.245      -15.437      156.047      132.057       77.078    24350.664    17439.168     5941.038       13.032        2.387      461.185       76.460        0.027      335.108        5.521      849.185
10/28/2013  17:29:00     -364.888       62.369        5.611      293.306      120.450       86.669    86028.148    14508.220     7511.487       12.254        5.402      370.180      133.054        0.129      335.152        5.594      849.177
10/28/2013  17:30:00     -319.418     -117.068       -9.159      195.584      167.554       73.947    38253.159    28074.234     5468.127        9.379        3.590      340.195       69.785        0.042      335.147        5.586      849.176
10/28/2013  17:31:00     -632.985      -58.724      -33.742      210.664      160.484       95.507    44379.512    25755.125     9121.600       24.224        3.963      635.703       78.595        0.015      335.073        5.462      849.184
10/28/2013  17:32:00     -423.554      -69.855      -26.127      152.776      164.967       73.216    23340.532    27213.949     5360.653       12.043        2.796      429.275       61.819        0.021      335.103        5.513      849.186
10/28/2013  17:33:00     -407.989      -84.391      -19.129      203.515      156.614       96.488    41418.398    24527.865     9309.868       12.459        3.763      416.625      111.624        0.072      335.121        5.543      849.217
10/28/2013  17:34:00     -386.468      -74.642      -20.685      188.667      114.623       76.260    35595.087    13138.375     5815.524       10.494        2.727      393.610       70.735        0.032      335.124        5.547      849.219
10/28/2013  17:35:00     -327.170     -146.005       -5.808      167.205      133.790       82.215    27957.382    17899.796     6759.327        9.049        2.631      358.270       93.491        0.068      335.122        5.545      849.257
10/28/2013  17:36:00     -430.635      -79.231      -15.369      182.285      156.980       77.382    33227.962    24642.767     5987.909       12.790        3.193      437.863       95.489        0.048      335.091        5.494      849.262
10/28/2013  17:37:00     -332.810      -87.852       -5.854      243.706      174.678      104.319    59392.681    30512.425    10882.448       10.963        5.039      344.210      122.261        0.126      335.101        5.510      849.238
10/28/2013  17:38:00     -585.761      -63.843      -39.335      210.863      175.999       86.848    44463.333    30975.639     7542.517       21.585        4.149      589.230      102.893        0.030      335.071        5.461      849.274
10/28/2013  17:39:00     -420.230      -58.962       -6.316      186.570      189.787       82.888    34808.479    36019.269     6870.344       12.889        3.885      424.347       81.230        0.037      335.112        5.528      849.301
10/28/2013  17:40:00     -557.412     -156.436      -29.489      213.909      226.833       99.103    45756.994    51453.179     9821.399       22.152        5.352      578.948       99.109        0.029      335.126        5.552      849.284
10/28/2013  17:41:00     -414.923      -82.782      -20.346      157.018      133.719       66.689    24654.764    17880.690     4447.450       11.320        2.349      423.100       64.978        0.024      335.132        5.561      849.299
10/28/2013  17:42:00     -456.033      -92.010      -29.511      204.936      177.589       79.847    41998.930    31537.743     6375.571       14.859        3.996      465.223       99.174        0.045      335.123        5.546      849.274
10/28/2013  17:43:00     -560.274     -102.404      -48.005      206.017      157.998       92.717    42443.018    24963.513     8596.507       20.134        3.800      569.556       91.398        0.026      335.113        5.532      849.277
10/28/2013  17:44:00     -560.770     -122.313      -23.934      190.886      178.354       86.569    36437.554    31810.160     7494.259       20.286        3.787      573.955       85.037        0.022      335.126        5.552      849.277
10/28/2013  17:45:00     -398.756      -43.334      -10.808      151.871      146.840       84.647    23064.739    21561.991     7165.033       10.639        2.590      401.104       61.725        0.024      335.151        5.593      849.312
10/28/2013  17:46:00     -487.794     -169.889      -21.475      171.415      142.351       75.908    29382.999    20263.778     5762.052       16.133        2.770      516.532       76.034        0.022      335.168        5.621      849.305
10/28/2013  17:47:00     -338.558      -24.139      -24.880      150.658      113.983       67.663    22697.698    12992.226     4578.292        7.804        2.013      339.417       54.154        0.025      335.205        5.680      849.338
10/28/2013  17:48:00     -434.966      -30.189      -28.813      284.161      131.797       96.092    80747.489    17370.371     9233.733       14.913        5.368      436.013      125.918        0.083      335.236        5.733      849.362
10/28/2013  17:49:00     -357.077      -69.699       -5.137      149.660      155.202       74.183    22398.233    24087.595     5503.094        9.218        2.599      363.815       69.689        0.037      335.220        5.706      849.390
10/28/2013  17:50:00     -313.898      -87.986       -4.386      200.081      151.577       82.222    40032.457    22975.646     6760.379        8.802        3.488      325.997       92.130        0.080      335.254        5.763      849.372
10/28/2013  17:51:00     -338.790      -95.431        4.233      176.547      172.976       81.968    31168.792    29920.642     6718.687        9.584        3.390      351.974       71.184        0.041      335.272        5.792      849.357
10/28/2013  17:52:00     -389.170      -10.992      -37.807      192.517      197.598       77.236    37062.929    39044.781     5965.384       11.752        4.104      389.325       64.120        0.027      335.283        5.809      849.334
10/28/2013  17:53:00     -529.670      -57.102      -30.706      207.344      152.471       85.503    42991.692    23247.319     7310.737       17.914        3.677      532.739       84.819        0.025      335.292        5.825      849.339
10/28/2013  17:54:00     -443.153     -138.319      -38.572      184.294      170.918       67.710    33964.204    29212.875     4584.576       14.237        3.388      464.238       68.168        0.022      335.300        5.837      849.351
10/28/2013  17:55:00     -334.115     -159.501       -5.874      195.700      139.558       88.685    38298.316    19476.544     7865.098       10.136        3.282      370.234       88.420        0.057      335.318        5.870      849.358
10/28/2013  17:56:00     -300.498      -61.235       -0.450      123.016      114.707       62.380    15132.888    13157.712     3891.243        6.311        1.609      306.674       59.031        0.037      335.324        5.877      849.389
10/28/2013  17:57:00     -501.165      -78.741       -7.926      264.160      191.200      103.656    69780.371    36557.511    10744.549       18.724        5.854      507.313      129.537        0.065      335.340        5.905      849.394
10/28/2013  17:58:00     -435.039      -54.791      -14.521      195.265      164.942       91.256    38128.334    27205.853     8327.702       13.305        3.683      438.475       91.406        0.043      335.352        5.925      849.394
10/28/2013  17:59:00     -373.098      -90.720      -16.934      178.735      136.129       83.012    31946.101    18530.994     6891.017       10.253        2.868      383.970       85.996        0.050      335.366        5.949      849.422
10/28/2013  18:00:00     -379.731     -110.082       -8.447      190.690      122.813       87.013    36362.789    15082.955     7571.244       10.769        2.951      395.365       88.725        0.050      335.366        5.947      849.417
10/28/2013  18:01:00     -537.541      -69.005       -5.336      233.916      162.866       97.195    54716.899    26525.253     9446.899       19.220        4.534      541.952      100.186        0.034      335.348        5.918      849.418
10/28/2013  18:02:00     -415.668     -103.578      -22.585      237.064      141.336       91.355    56199.539    19975.735     8345.744       13.426        4.226      428.379      105.520        0.061      335.374        5.962      849.442
10/28/2013  18:03:00     -400.566      -47.159      -27.825      157.786      140.369       89.017    24896.289    19703.518     7923.967       10.798        2.626      403.333       79.715        0.039      335.357        5.934      849.462
10/28/2013  18:04:00     -530.124      -49.902      -25.963      214.065      138.515       92.368    45823.756    19186.524     8531.783       17.886        3.677      532.467      103.082        0.037      335.372        5.959      849.447
10/28/2013  18:05:00     -585.356     -103.132      -34.884      234.637      142.554       93.469    55054.375    20321.700     8736.511       21.929        4.206      594.372      110.173        0.034      335.351        5.923      849.476
10/28/2013  18:06:00     -437.582     -103.141       -5.292      188.951      150.823       88.086    35702.320    22747.595     7759.176       13.417        3.310      449.573      100.900        0.050      335.353        5.926      849.468
10/28/2013  18:07:00     -265.628      -60.208      -14.570      180.648      154.553       87.817    32633.601    23886.573     7711.783        6.930        3.212      272.366       90.298        0.110      335.376        5.966      849.485
10/28/2013  18:08:00     -539.305     -165.689      -24.046      219.234      144.986       99.782    48063.657    21020.976     9956.359       19.895        3.952      564.183      105.827        0.035      335.349        5.921      849.468
10/28/2013  18:09:00     -467.071     -115.726      -24.591      217.472      150.442       86.864    47294.084    22632.658     7545.358       15.480        3.874      481.194       83.837        0.030      335.342        5.908      849.473
10/28/2013  18:10:00     -449.984     -156.551       -3.855      197.469      163.053       89.198    38994.106    26586.312     7956.216       15.026        3.677      476.438       94.566        0.039      335.351        5.923      849.497
10/28/2013  18:11:00     -372.214      -53.864      -16.062      147.421      132.589       74.249    21732.932    17579.797     5512.948        9.326        2.241      376.091       70.382        0.035      335.361        5.940      849.519
10/28/2013  18:12:00     -346.107     -122.476      -38.996      222.607      133.589       88.151    49553.820    17846.042     7770.600       10.573        3.759      367.138       88.195        0.058      335.400        6.006      849.489
10/28/2013  18:13:00     -635.990      -48.064      -17.004      224.979      175.055       91.672    50615.710    30644.413     8403.738       24.836        4.483      637.804      102.840        0.026      335.383        5.977      849.530
10/28/2013  18:14:00     -487.259      -93.193      -29.897      167.652      140.282       76.691    28107.212    19678.990     5881.572       15.033        2.683      496.091       61.601        0.015      335.390        5.988      849.575
10/28/2013  18:15:00     -493.365     -126.038      -16.873      175.640      144.797       81.371    30849.294    20966.273     6621.252       15.900        2.922      509.210       89.350        0.031      335.382        5.975      849.598
10/28/2013  18:16:00     -410.569     -129.331      -22.605      145.160      128.778       66.412    21071.287    16583.656     4410.541       11.393        2.103      430.458       60.577        0.020      335.384        5.978      849.603
10/28/2013  18:17:00     -350.558      -77.684      -13.454      209.216      170.431       82.541    43771.234    29046.716     6812.944       10.436        3.982      359.063       79.215        0.049      335.412        6.026      849.614
10/28/2013  18:18:00     -237.830       12.760       14.137      251.288      153.709      103.311    63145.740    23626.597    10673.215        7.717        4.872      238.172      139.761        0.344      335.489        6.156      849.613
10/28/2013  18:19:00     -426.764      -49.871      -30.881      157.518      157.602       65.800    24811.962    24838.291     4329.624       11.977        2.699      429.668       62.577        0.021      335.409        6.019      849.627
10/28/2013  18:20:00     -509.435      -57.267      -34.458      180.923      135.170       72.434    32732.975    18270.944     5246.747       16.011        2.813      512.643       78.335        0.023      335.411        6.023      849.626
10/28/2013  18:21:00     -364.509      -38.944      -19.655      129.354      111.290       66.115    16732.522    12385.539     4371.157        8.412        1.674      366.584       58.662        0.026      335.402        6.007      849.630
10/28/2013  18:22:00     -462.621      -18.313      -41.152      152.616      102.894       72.742    23291.667    10587.149     5291.423       12.760        1.959      462.984       78.402        0.029      335.407        6.017      849.633
10/28/2013  18:23:00     -352.840      -50.117      -17.836      182.808      128.713       78.022    33418.659    16567.104     6087.498        9.169        2.804      356.382       79.081        0.049      335.435        6.063      849.604
10/28/2013  18:24:00     -325.032     -195.530        5.151      157.835      138.759       87.414    24911.809    19254.193     7641.262        9.785        2.590      379.312       90.750        0.057      335.431        6.056      849.611
10/28/2013  18:25:00     -312.524     -175.551      -19.152      196.464      110.264       75.555    38598.229    12158.258     5708.490        9.265        2.823      358.454       93.436        0.068      335.434        6.062      849.629
10/28/2013  18:26:00     -353.951       10.232      -17.182      162.077      126.615       61.202    26268.839    16031.295     3745.712        8.586        2.302      354.099       63.034        0.032      335.452        6.093      849.654
10/28/2013  18:27:00     -500.115      -68.999      -22.643      201.731      132.631       78.261    40695.458    17590.866     6124.815       15.989        3.221      504.852       95.969        0.036      335.475        6.132      849.665
10/28/2013  18:28:00     -371.799      -90.516      -12.061      156.708      115.799       72.826    24557.549    13409.380     5303.562        9.491        2.164      382.659       69.614        0.033      335.465        6.114      849.673
10/28/2013  18:29:00     -468.447     -130.646      -35.777      136.294      167.587       70.676    18576.091    28085.270     4995.070       14.472        2.583      486.325       65.911        0.018      335.458        6.102      849.701
10/28/2013  18:30:00     -529.997     -129.588      -18.023      218.315      211.357       96.907    47661.242    44671.843     9391.017       19.985        5.086      545.610      106.649        0.038      335.470        6.122      849.716
10/28/2013  18:31:00     -387.571      -98.684       -3.717      168.356      138.919       77.882    28343.794    19298.485     6065.570       10.683        2.685      399.937       77.130        0.037      335.482        6.141      849.755
10/28/2013  18:32:00     -442.434      -84.926      -39.706      195.970      127.421       80.507    38404.052    16235.998     6481.339       13.282        3.056      450.511       88.992        0.039      335.455        6.097      849.776
10/28/2013  18:33:00     -346.693     -112.971      -30.184      110.244       89.824       54.279    12153.817     8068.320     2946.257        7.852        1.158      364.635       37.201        0.010      335.480        6.138      849.822
10/28/2013  18:34:00     -314.399      -69.888      -26.280      116.615      100.893       53.906    13598.968    10179.324     2905.900        6.555        1.334      322.073       55.182        0.029      335.455        6.099      849.838
10/28/2013  18:35:00     -276.641      -91.042       -0.132      171.845      124.190       64.360    29530.612    15423.063     4142.207        6.695        2.455      291.237       81.687        0.079      335.464        6.112      849.839
10/28/2013  18:36:00     -227.160        1.044      -35.150       92.764       71.975       42.557     8605.174     5180.465     1811.091        3.421        0.780      227.162       27.293        0.014      335.436        6.066      849.835
10/28/2013  18:37:00     -296.285       74.883      -39.269       97.725       98.331       60.686     9550.169     9669.011     3682.752        5.891        1.145      305.602       45.274        0.022      335.403        6.009      849.860
10/28/2013  18:38:00     -154.955       47.111      -12.362       86.877       83.691       51.032     7547.609     7004.145     2604.269        2.177        0.858      161.959       51.696        0.102      335.406        6.017      849.884
10/28/2013  18:39:00     -233.052     -113.830       -2.018       98.673      115.775       49.389     9736.364    13403.825     2439.296        4.642        1.279      259.365       45.813        0.031      335.398        6.003      849.924
10/28/2013  18:40:00     -408.413      -86.101      -37.970      117.735      120.823       56.802    13861.481    14598.257     3226.439       10.367        1.584      417.390       49.235        0.014      335.378        5.969      849.923
10/28/2013  18:41:00     -250.936      -90.048      -31.124      109.793      106.287       62.862    12054.466    11296.901     3951.625        4.967        1.365      266.604       34.953        0.017      335.421        6.039      849.954
10/28/2013  18:42:00     -337.490     -119.531      -21.643      125.266      103.311       70.096    15691.510    10673.125     4913.497        7.996        1.564      358.032       65.400        0.033      335.425        6.046      849.972
10/28/2013  18:43:00     -274.488      -63.571      -20.040      100.609       98.126       49.885    10122.094     9628.714     2488.475        5.101        1.112      281.753       37.227        0.017      335.442        6.075      849.969
10/28/2013  18:44:00     -330.839     -106.226      -26.624       81.898       70.038       41.030     6707.240     4905.356     1683.444        6.737        0.665      347.475       36.747        0.011      335.438        6.069      849.994
10/28/2013  18:45:00     -253.404      -70.975        5.801      146.918       86.958       64.047    21584.939     7561.692     4102.041        5.126        1.662      263.155       71.249        0.073      335.431        6.057      850.006
10/28/2013  18:46:00     -171.348      -40.516       -3.656      174.292       69.765       57.898    30377.643     4867.148     3352.128        3.480        1.930      176.073       76.233        0.187      335.483        6.144      849.976
10/28/2013  18:47:00     -380.640       21.173      -23.245      162.839      146.801       61.708    26516.560    21550.525     3807.905        9.887        2.594      381.228       65.740        0.030      335.475        6.131      849.976
10/28/2013  18:48:00     -309.973      -56.928      -16.232      129.529      129.285       66.761    16777.682    16714.716     4456.965        6.876        1.897      315.157       53.214        0.029      335.488        6.152      849.954
10/28/2013  18:49:00     -371.549     -129.079      -24.090      175.933      125.209       75.477    30952.548    15677.413     5696.737       10.380        2.616      393.332       76.977        0.038      335.528        6.219      849.934
10/28/2013  18:50:00     -407.192     -146.442      -11.260      129.716      101.216       70.042    16826.211    10244.589     4905.929       10.967        1.599      432.724       65.756        0.023      335.555        6.263      849.942
10/28/2013  18:51:00     -231.353     -106.161        4.690      149.168      114.896       68.656    22251.186    13201.128     4713.640        5.248        2.008      254.548       68.292        0.072      335.542        6.242      849.952
10/28/2013  18:52:00     -414.174      -93.669       -9.530      157.092      112.936       73.135    24678.005    12754.598     5348.762       11.159        2.139      424.634       77.486        0.033      335.526        6.215      849.969
10/28/2013  18:53:00     -360.294      -37.514      -19.969      138.797      123.615       72.397    19264.728    15280.747     5241.310        8.570        1.989      362.241       67.113        0.034      335.525        6.213      850.010
10/28/2013  18:54:00     -298.014     -108.940      -13.906      131.348      145.052       51.876    17252.324    21040.138     2691.144        7.092        2.049      317.301       55.029        0.030      335.528        6.220      850.040
10/28/2013  18:55:00     -237.225     -131.519        6.802      149.390      161.357       79.603    22317.287    26035.948     6336.707        6.415        2.734      271.244       74.595        0.076      335.593        6.327      850.024
10/28/2013  18:56:00     -198.752       -1.976       -1.297      122.205       85.623       58.146    14933.941     7331.234     3380.922        3.257        1.282      198.762       64.104        0.104      335.548        6.253      850.058
10/28/2013  18:57:00     -209.954      -91.297      -10.400      117.548       96.553       57.009    13817.479     9322.503     3249.996        3.945        1.319      228.945       58.634        0.066      335.589        6.320      850.024
10/28/2013  18:58:00     -287.396      -86.590       14.035      170.074      128.097       78.400    28925.207    16408.901     6146.576        7.088        2.574      300.157       81.135        0.073      335.607        6.351      850.009
10/28/2013  18:59:00     -160.463      -47.032       -1.227      113.503       93.855       56.078    12882.870     8808.809     3144.712        2.639        1.242      167.213       63.934        0.146      335.645        6.415      849.999
10/28/2013  19:00:00     -264.978       26.808       -0.084      189.965       95.255       65.073    36086.829     9073.426     4234.527        6.016        2.470      266.331       84.893        0.102      335.609        6.355      850.009
10/28/2013  19:01:00     -571.132      -87.270      -19.685      228.546      177.126       97.170    52233.193    31373.776     9442.086       21.361        4.652      577.761       97.962        0.029      335.570        6.288      849.976
10/28/2013  19:02:00     -406.237     -163.049      -17.437      160.614      126.518       71.862    25796.708    16006.732     5164.170       11.943        2.348      437.737       67.686        0.024      335.576        6.297      849.969
10/28/2013  19:03:00     -362.783      -94.173       -8.770      194.012       99.548       57.110    37640.609     9909.875     3261.588        9.568        2.541      374.806       70.626        0.036      335.576        6.298      849.989
10/28/2013  19:04:00     -256.234      -81.794      -13.782      134.686      112.100       59.254    18140.197    12566.311     3510.978        5.337        1.711      268.973       66.717        0.062      335.605        6.348      849.996
10/28/2013  19:05:00     -367.622       61.086      -29.495      122.896      111.062       63.614    15103.511    12334.717     4046.700        8.561        1.574      372.663       58.312        0.024      335.562        6.275      850.035
10/28/2013  19:06:00     -290.837      -29.903      -12.283      133.224      145.257       58.510    17748.656    21099.704     3423.377        6.394        2.114      292.371       56.507        0.037      335.585        6.314      850.050
10/28/2013  19:07:00     -442.672     -103.406      -25.020      137.952      121.204       71.888    19030.683    14690.369     5167.848       12.308        1.944      454.589       72.613        0.026      335.582        6.307      850.058
10/28/2013  19:08:00     -533.384     -130.341       -3.344      178.748      151.437       89.022    31950.784    22933.146     7924.975       18.214        3.140      549.079       92.980        0.029      335.566        6.282      850.040
10/28/2013  19:09:00     -444.316      -58.112      -20.820      184.894      128.140       87.288    34185.663    16419.904     7619.125       12.972        2.911      448.100      103.633        0.053      335.563        6.278      850.071
10/28/2013  19:10:00     -247.274      -94.823       12.445      148.269      145.822       76.928    21983.675    21264.033     5917.932        5.972        2.458      264.832       71.693        0.073      335.592        6.325      850.078
10/28/2013  19:11:00     -278.888      -42.730      -16.579      149.466      109.608       51.485    22339.953    12013.959     2650.654        5.844        1.850      282.142       58.009        0.042      335.598        6.336      850.102
10/28/2013  19:12:00     -500.420     -162.878      -25.407      168.306      129.657       71.371    28326.744    16810.837     5093.873       16.390        2.512      526.260       58.679        0.012      335.588        6.318      850.102
10/28/2013  19:13:00     -318.081       27.796      -14.339      206.989      131.325       59.294    42844.244    17246.200     3515.750        8.287        3.180      319.293       74.942        0.055      335.611        6.359      850.107
10/28/2013  19:14:00     -419.947      -26.010      -20.079      130.905      124.403       59.385    17136.081    15476.151     3526.549       10.678        1.807      420.752       57.058        0.018      335.601        6.340      850.135
10/28/2013  19:15:00     -369.142      -83.833      -10.701      150.746      122.638       65.289    22724.206    15040.085     4262.694        9.271        2.101      378.541       73.421        0.038      335.613        6.360      850.152
10/28/2013  19:16:00     -332.742     -188.654       -0.754      228.169      159.660       90.014    52061.292    25491.417     8102.457       11.597        4.283      382.502      107.242        0.079      335.664        6.447      850.140
10/28/2013  19:17:00     -194.036     -139.926       -2.646      179.871      108.330       69.838    32353.512    11735.358     4877.334        5.309        2.448      239.226       90.754        0.144      335.676        6.466      850.183
10/28/2013  19:18:00     -275.891     -100.228      -23.231      118.970      128.145       68.828    14153.908    16421.097     4737.329        6.100        1.766      293.533       52.154        0.032      335.634        6.394      850.208
10/28/2013  19:19:00     -238.733       -6.354      -12.534      141.203      105.531       73.963    19938.146    11136.696     5470.564        4.686        1.827      238.818       67.958        0.081      335.624        6.378      850.220
10/28/2013  19:20:00     -290.555       -4.269      -15.509       82.631      112.017       60.057     6827.944    12547.842     3606.789        5.383        1.149      290.587       53.465        0.034      335.635        6.396      850.206
10/28/2013  19:21:00     -262.968     -120.366       -2.641      151.932      120.632       89.379    23083.408    14552.111     7988.590        6.463        2.281      289.205       83.789        0.084      335.621        6.374      850.219
10/28/2013  19:22:00     -174.655      -77.302       15.280      185.991      120.067       86.022    34592.534    14416.161     7399.819        4.655        2.820      190.997       93.493        0.240      335.675        6.464      850.212
10/28/2013  19:23:00     -301.089     -109.300       -6.107      179.964      167.819       75.897    32387.187    28163.350     5760.410        8.446        3.316      320.314       81.363        0.065      335.617        6.366      850.211
10/28/2013  19:24:00     -338.796       -8.174       -2.215      134.573      106.885       58.261    18109.861    11424.371     3394.300        7.389        1.646      338.895       60.436        0.032      335.609        6.354      850.231
10/28/2013  19:25:00     -183.154     -111.016      -11.764      112.193      130.179       68.085    12587.181    16946.656     4635.506        4.008        1.708      214.173       73.649        0.118      335.652        6.426      850.243
10/28/2013  19:26:00     -145.527     -139.917        7.305      101.404       98.394       53.101    10282.767     9681.306     2819.685        3.179        1.139      201.879       55.815        0.076      335.648        6.421      850.270
10/28/2013  19:27:00     -395.242      -50.544       -6.077      209.127      181.150       83.974    43734.188    32815.399     7051.688       12.119        4.180      398.461       88.637        0.049      335.595        6.331      850.288
10/28/2013  19:28:00     -254.285     -137.726      -12.134      161.973      120.457       74.344    26235.189    14509.864     5527.015        6.502        2.314      289.187       74.677        0.067      335.637        6.400      850.278
10/28/2013  19:29:00     -314.171     -169.233       20.842      216.559      175.231       91.288    46897.592    30705.815     8333.496       10.684        4.297      356.852       96.975        0.074      335.621        6.374      850.280
10/28/2013  19:30:00     -356.371      -94.097      -19.322      198.229      172.310       87.811    39294.656    29690.829     7710.833       10.645        3.835      368.585       99.885        0.073      335.611        6.357      850.293
10/28/2013  19:31:00     -372.635      -23.423      -16.719      202.050      117.022       86.943    40824.104    13694.216     7559.009       10.087        3.104      373.370      100.091        0.072      335.606        6.349      850.307
10/28/2013  19:32:00     -320.580       -9.155        5.860      246.896      161.244       94.466    60957.632    25999.697     8923.842        9.937        4.794      320.711      111.450        0.121      335.599        6.338      850.315
10/28/2013  19:33:00     -247.717      -11.187        4.854      151.731       89.552       70.594    23022.192     8019.620     4983.445        4.876        1.801      247.969       72.010        0.084      335.619        6.369      850.355
10/28/2013  19:34:00     -380.790      -75.915      -15.632      164.860      128.244       67.043    27178.922    16446.631     4494.742        9.956        2.406      388.283       72.600        0.035      335.598        6.335      850.358
10/28/2013  19:35:00     -227.058     -119.073       -3.335      103.572      118.756       51.466    10727.133    14103.051     2648.757        4.661        1.374      256.386       51.815        0.041      335.619        6.371      850.367
10/28/2013  19:36:00     -203.246     -102.176       -1.544      173.903      120.622       64.505    30242.167    14549.554     4160.873        5.034        2.448      227.484       61.319        0.073      335.642        6.412      850.368
10/28/2013  19:37:00     -293.169      -39.451      -10.965      120.413       92.401       65.761    14499.253     8537.934     4324.485        5.749        1.368      295.811       69.534        0.055      335.615        6.362      850.368
10/28/2013  19:38:00     -340.197     -106.950      -14.944      146.896      124.874       54.482    21578.343    15593.531     2968.338        8.376        2.007      356.612       58.710        0.027      335.625        6.380      850.357
10/28/2013  19:39:00     -306.136      -32.214       -6.428      207.635      149.032       80.654    43112.187    22210.486     6505.139        8.330        3.591      307.826       97.782        0.101      335.605        6.347      850.349
10/28/2013  19:40:00     -288.345      -50.939      -14.541      170.254      144.630       77.759    28986.395    20917.717     6046.521        7.094        2.798      292.810       89.019        0.092      335.633        6.394      850.369
10/28/2013  19:41:00     -165.706      -43.584       33.574      179.055      130.884       69.176    32060.552    17130.493     4785.319        4.222        2.699      171.342       74.591        0.190      335.632        6.393      850.367
10/28/2013  19:42:00     -361.222       25.317       -2.265      213.581      130.911       71.656    45616.771    17137.818     5134.544        9.950        3.394      362.108       82.195        0.052      335.586        6.315      850.383
10/28/2013  19:43:00     -341.592      -38.831      -20.904      172.011      117.105       72.509    29587.816    13713.482     5257.556        8.359        2.428      343.792       76.057        0.049      335.601        6.340      850.374
10/28/2013  19:44:00     -224.361      -30.206        8.909      122.522       89.351       51.897    15011.588     7983.529     2693.317        3.850        1.284      226.385       57.738        0.065      335.629        6.388      850.415
10/28/2013  19:45:00     -443.734      -35.815       -9.952      167.508      138.708       79.769    28058.793    19239.827     6363.098       12.596        2.683      445.177       82.717        0.035      335.567        6.284      850.443
10/28/2013  19:46:00     -353.380      -46.637      -12.726      156.652      147.747       66.756    24540.005    21829.308     4456.430        8.901        2.541      356.444       66.743        0.035      335.563        6.278      850.459
10/28/2013  19:47:00     -428.343      -98.691       -3.869      207.192      112.219       83.602    42928.694    12593.208     6989.376       12.786        3.126      439.565       94.201        0.046      335.555        6.264      850.455
10/28/2013  19:48:00     -354.048     -120.836       -3.284      171.323      152.672       72.515    29351.399    23308.682     5258.425        9.893        2.896      374.101       78.046        0.044      335.559        6.270      850.465
10/28/2013  19:49:00     -261.073     -121.365       -1.005      163.268      109.217       67.898    26656.278    11928.354     4610.080        6.304        2.160      287.904       78.844        0.075      335.589        6.321      850.479
10/28/2013  19:50:00     -149.268      -62.422       -3.565      104.089       78.100       51.594    10834.586     6099.593     2661.988        2.289        0.980      161.795       45.158        0.078      335.610        6.359      850.488
10/28/2013  19:51:00     -106.444       -4.799       14.051      125.134       58.759       56.766    15658.523     3452.649     3222.378        1.694        1.117      106.552       68.399        0.412      335.637        6.403      850.501
10/28/2013  19:52:00     -331.103     -105.339      -19.532      164.047      129.411       64.036    26911.547    16747.221     4100.578        8.443        2.388      347.456       62.130        0.032      335.530        6.222      850.502
10/28/2013  19:53:00     -243.143      -88.826        5.438      163.580      131.420       75.781    26758.537    17271.215     5742.819        5.840        2.489      258.860       87.906        0.115      335.554        6.261      850.510
10/28/2013  19:54:00     -374.733     -103.159      -18.255      129.727      154.501       61.834    16829.004    23870.700     3823.499        9.795        2.226      388.673       69.331        0.032      335.540        6.241      850.504
10/28/2013  19:55:00     -363.980     -106.871      -12.387      174.042      148.902       73.082    30290.675    22171.871     5340.960       10.092        2.890      379.345       80.795        0.045      335.531        6.226      850.498
10/28/2013  19:56:00     -182.645      -42.714       14.108      135.721      120.049       64.859    18420.322    14411.688     4206.638        3.620        1.852      187.573       70.893        0.143      335.590        6.323      850.526
10/28/2013  19:57:00     -310.977      -40.346        6.782      174.812      159.597       87.768    30559.067    25471.063     7703.307        8.105        3.187      313.583       92.968        0.088      335.544        6.245      850.546
10/28/2013  19:58:00     -375.803      -57.618      -19.892      172.061      164.123       72.390    29604.850    26936.498     5240.266       10.335        3.089      380.194       77.488        0.042      335.520        6.204      850.570
10/28/2013  19:59:00     -471.056        8.810      -25.110      178.406      115.702       82.476    31828.617    13386.976     6802.231       13.730        2.601      471.138       94.102        0.040      335.503        6.176      850.577
10/28/2013  20:00:00     -364.767      -60.852      -20.288      177.838      175.107       86.292    31626.437    30662.502     7446.330       10.344        3.487      369.808       71.239        0.037      335.524        6.212      850.580
10/28/2013  20:01:00     -336.358     -144.507      -16.582      145.358      123.203       72.051    21128.941    15179.094     5191.315        8.789        2.075      366.086       57.305        0.025      335.535        6.231      850.591
10/28/2013  20:02:00     -353.039     -117.440       -4.705      222.749      133.934       77.798    49617.219    17938.229     6052.546       10.602        3.680      372.060       95.741        0.066      335.537        6.234      850.621
10/28/2013  20:03:00     -282.542      -37.245        1.261      148.537      103.701       64.977    22063.367    10753.917     4221.965        5.912        1.852      284.987       73.485        0.066      335.518        6.203      850.660
10/28/2013  20:04:00     -347.108        4.392      -28.419      147.218      119.667       70.480    21673.198    14320.281     4967.383        8.113        2.048      347.136       76.716        0.049      335.506        6.183      850.661
10/28/2013  20:05:00     -315.486      -89.773       -5.104      129.738      125.512       67.143    16832.008    15753.279     4508.139        7.235        1.855      328.010       72.176        0.048      335.494        6.162      850.672
10/28/2013  20:06:00     -311.115      -33.847      -10.829      161.924      137.072       70.657    26219.346    18788.739     4992.390        7.402        2.500      312.950       76.662        0.060      335.481        6.141      850.695
10/28/2013  20:07:00     -317.395      -62.121       -8.585      173.391      129.268       72.661    30064.518    16710.254     5279.600        7.835        2.603      323.417       82.382        0.065      335.500        6.172      850.712
10/28/2013  20:08:00     -413.282     -143.816      -17.587      154.697      134.346       78.612    23931.076    18048.881     6179.922       11.997        2.408      437.590       83.815        0.037      335.461        6.107      850.708
10/28/2013  20:09:00     -398.860      -67.025      -22.703      120.663      103.175       56.120    14559.503    10645.096     3149.399        9.622        1.418      404.452       56.914        0.020      335.490        6.154      850.709
10/28/2013  20:10:00     -476.778      -95.041      -35.550      154.473      137.346       73.163    23861.930    18864.011     5352.879       14.284        2.404      486.158       65.336        0.018      335.480        6.139      850.706
10/28/2013  20:11:00     -341.249        3.044       -9.914      182.801      118.775       68.971    33416.190    14107.603     4757.031        8.441        2.614      341.263       83.205        0.059      335.490        6.157      850.717
10/28/2013  20:12:00     -220.012      -70.003        7.035      129.855      113.465       60.005    16862.373    12874.330     3600.582        4.334        1.667      230.880       64.481        0.078      335.530        6.222      850.737
10/28/2013  20:13:00     -170.758      -10.538        1.350      131.753       96.423       62.880    17358.877     9297.429     3953.834        2.994        1.531      171.083       60.936        0.127      335.503        6.178      850.750
10/28/2013  20:14:00     -321.654     -108.052       -4.570      157.564      122.513       61.702    24826.479    15009.495     3807.172        7.939        2.182      339.317       67.428        0.039      335.444        6.080      850.741
10/28/2013  20:15:00     -396.135     -168.191       -6.982      195.594      137.265       74.273    38256.952    18841.657     5516.451       12.393        3.131      430.362       67.598        0.025      335.448        6.085      850.726
10/28/2013  20:16:00     -379.249     -137.153      -17.522      154.278       90.548       56.130    23801.625     8198.876     3150.583        9.904        1.758      403.288       63.028        0.024      335.438        6.067      850.752
10/28/2013  20:17:00     -203.064      -39.612       -0.703      150.911       70.328       56.292    22774.141     4946.042     3168.781        3.684        1.544      206.892       68.221        0.109      335.475        6.132      850.757
10/28/2013  20:18:00     -221.028      -10.446      -14.009      129.736       75.795       46.423    16831.506     5744.861     2155.061        3.694        1.237      221.274       58.807        0.071      335.473        6.126      850.791
10/28/2013  20:19:00     -227.003      -72.434        1.176      149.724      102.884       49.882    22417.134    10585.064     2488.187        4.613        1.775      238.279       56.089        0.055      335.449        6.087      850.791
10/28/2013  20:20:00     -334.833      -67.779      -13.080      104.755       73.814       52.143    10973.507     5448.568     2718.876        6.801        0.957      341.624       49.122        0.021      335.408        6.017      850.779
10/28/2013  20:21:00     -253.134     -116.628      -18.035      125.701       83.839       59.794    15800.795     7029.030     3575.320        5.220        1.320      278.709       45.835        0.027      335.429        6.054      850.785
10/28/2013  20:22:00     -390.747      -79.869      -11.243      161.748      100.980       72.328    26162.483    10197.002     5231.334       10.038        2.080      398.826       78.740        0.039      335.408        6.019      850.813
10/28/2013  20:23:00     -355.009      -10.809      -23.440      134.764       97.740       49.957    18161.385     9553.144     2495.721        7.845        1.511      355.174       56.106        0.025      335.433        6.060      850.802
10/28/2013  20:24:00     -193.407      -34.803       -7.524      117.651       79.003       49.104    13841.746     6241.542     2411.156        3.058        1.125      196.513       52.970        0.073      335.444        6.079      850.799
10/28/2013  20:25:00     -287.406      -19.452      -17.761      146.899       68.595       55.662    21579.289     4705.220     3098.291        5.633        1.469      288.064       55.057        0.037      335.444        6.078      850.817
10/28/2013  20:26:00     -257.358      -31.973       -7.863      150.958       80.588       55.881    22788.382     6494.487     3122.644        4.986        1.620      259.337       71.937        0.077      335.446        6.082      850.828
10/28/2013  20:27:00     -298.010      -92.853       -8.442       99.822       99.495       54.376     9964.520     9899.332     2956.710        6.016        1.141      312.140       49.857        0.026      335.434        6.062      850.843
10/28/2013  20:28:00     -332.072      -76.247      -30.649      131.077      115.995       66.126    17181.193    13454.931     4372.620        7.601        1.750      340.714       68.966        0.041      335.412        6.026      850.854
10/28/2013  20:29:00     -162.016      -66.852       12.096      171.466      100.235       78.810    29400.741    10047.129     6210.993        3.825        2.283      175.267      103.832        0.351      335.467        6.119      850.851
10/28/2013  20:30:00     -336.296      -95.088      -12.064      119.825      104.751       59.402    14358.114    10972.811     3528.587        7.557        1.443      349.481       58.354        0.028      335.420        6.038      850.872
10/28/2013  20:31:00     -180.739       -0.808        0.330      101.821      109.567       56.512    10367.569    12004.964     3193.573        2.911        1.278      180.741       56.071        0.096      335.448        6.087      850.879
10/28/2013  20:32:00     -278.429       24.019      -18.341      142.398       75.021       48.000    20277.214     5628.204     2303.995        5.332        1.410      279.463       52.116        0.035      335.432        6.058      850.899
10/28/2013  20:33:00     -224.372      -30.520       -1.228      123.256       89.507       54.492    15191.957     8011.547     2969.330        3.872        1.309      226.438       52.460        0.054      335.460        6.107      850.937
10/28/2013  20:34:00     -171.832       22.279       -2.562       90.044       58.021       51.238     8107.910     3366.494     2625.370        2.206        0.705      173.270       49.246        0.081      335.452        6.093      850.972
10/28/2013  20:35:00     -179.263      -63.420      -14.774       86.355       96.086       47.446     7457.232     9232.551     2251.138        2.766        0.947      190.151       47.921        0.064      335.442        6.077      850.981
10/28/2013  20:36:00      -18.014      -26.628       17.447       67.574       51.696       37.838     4566.255     2672.527     1431.727        0.500        0.434       32.149       37.359        1.350      335.522        6.211      850.976
10/28/2013  20:37:00     -113.999      -20.714        8.587      122.509       58.625       48.285    15008.406     3436.887     2331.452        1.713        1.039      115.866       54.129        0.218      335.523        6.213      850.977
10/28/2013  20:38:00     -272.169       48.681      -19.257       84.296       90.259       41.769     7105.788     8146.726     1744.643        4.690        0.850      276.488       45.600        0.027      335.445        6.080      850.997
10/28/2013  20:39:00     -186.428      -36.281      -13.577      133.987      108.861       68.337    17952.507    11850.741     4669.950        3.536        1.724      189.925       69.609        0.134      335.500        6.170      850.968
10/28/2013  20:40:00     -214.832      -94.370       -6.237      163.882       84.610       73.910    26857.354     7158.803     5462.745        4.728        1.974      234.646       97.308        0.172      335.506        6.182      850.985
10/28/2013  20:41:00     -123.026      -92.121        1.739       57.236       66.386       50.301     3275.921     4407.037     2530.210        1.692        0.511      153.694       37.697        0.060      335.474        6.133      850.999
10/28/2013  20:42:00     -115.206      -37.646       -1.880       55.520       57.994       34.026     3082.495     3363.358     1157.783        1.115        0.380      121.201       23.461        0.037      335.487        6.154      851.030
10/28/2013  20:43:00     -225.603       17.737      -16.656       82.722       61.858       39.754     6842.871     3826.398     1580.383        3.187        0.612      226.299       31.193        0.019      335.434        6.064      851.042
10/28/2013  20:44:00     -276.074        4.351      -20.325      106.589       76.767       48.993    11361.216     5893.195     2400.303        4.815        0.983      276.109       44.882        0.026      335.419        6.036      851.038
10/28/2013  20:45:00     -393.836       49.053      -31.370       76.894      105.643       45.775     5912.703    11160.427     2095.321        8.883        0.958      396.879       31.101        0.006      335.390        5.989      851.036
10/28/2013  20:46:00     -254.784     -131.001      -33.832       87.116       99.195       51.530     7589.155     9839.591     2655.392        5.165        1.004      286.489       42.281        0.022      335.417        6.032      851.053
10/28/2013  20:47:00     -218.980       -8.794      -14.593       60.440       60.803       39.676     3653.050     3697.025     1574.166        2.858        0.446      219.156       32.719        0.022      335.411        6.022      851.074
10/28/2013  20:48:00     -250.585      -92.475      -13.400      105.764       74.491       50.937    11186.046     5548.919     2594.573        4.542        0.966      267.103       60.314        0.051      335.410        6.021      851.072
10/28/2013  20:49:00     -209.508      -54.030        1.239      110.134       77.051       54.545    12129.476     5936.782     2975.201        3.392        1.052      216.363       60.811        0.079      335.417        6.035      851.087
10/28/2013  20:50:00     -140.410      -17.154      -10.463       94.418       64.339       34.763     8914.742     4139.521     1208.455        1.719        0.713      141.454       29.419        0.043      335.409        6.022      851.081
10/28/2013  20:51:00     -406.511       68.363      -39.679      183.514       94.760       59.733    33677.346     8979.367     3568.072       10.885        2.311      412.219       73.080        0.031      335.352        5.925      851.090
10/28/2013  20:52:00     -524.480       27.613      -37.723      177.804      122.694       70.033    31614.094    15053.749     4904.612       16.441        2.579      525.207       58.696        0.012      335.334        5.896      851.066
10/28/2013  20:53:00     -468.235       19.206      -32.476      155.317      161.051       63.946    24123.327    25937.581     4089.080       13.740        2.707      468.629       54.489        0.014      335.324        5.879      851.091
10/28/2013  20:54:00     -278.907       -3.224      -17.878      145.887       89.101       57.601    21282.898     7938.916     3317.914        5.532        1.627      278.925       64.523        0.054      335.327        5.883      851.111
10/28/2013  20:55:00     -174.505      -58.583       12.381      131.167       86.176       67.263    17204.848     7426.319     4524.311        3.159        1.458      184.075       69.294        0.142      335.338        5.902      851.102
10/28/2013  20:56:00     -169.091      -11.181       14.482      210.879       83.685       72.000    44470.154     7003.103     5183.981        4.278        2.833      169.460       96.808        0.326      335.373        5.962      851.055
10/28/2013  20:57:00     -160.205      -78.563       11.691      165.406      121.458       53.556    27359.038    14752.001     2868.217        3.847        2.249      178.431       64.339        0.130      335.318        5.870      851.047
10/28/2013  20:58:00     -116.292      -13.957        6.392       68.463       55.292       40.705     4687.141     3057.190     1656.866        1.158        0.470      117.127       37.940        0.105      335.305        5.850      851.039
10/28/2013  20:59:00     -202.749      -27.016        6.341      180.658       90.466       64.979    32637.208     8184.050     4222.330        4.345        2.252      204.541       77.146        0.142      335.276        5.800      851.031
10/28/2013  21:00:00     -209.161     -144.064        9.159      162.956      126.433       76.907    26554.576    15985.193     5914.728        5.651        2.423      253.974       88.118        0.120      335.290        5.822      851.029
10/28/2013  21:01:00     -196.815      -72.333       -3.259      229.304      125.535       80.106    52580.526    15759.055     6417.010        5.936        3.738      209.685      106.228        0.257      335.329        5.887      851.029
10/28/2013  21:02:00     -244.279       39.619       -1.698      173.035      118.505       62.713    29941.029    14043.522     3932.935        5.457        2.396      247.471       74.257        0.090      335.275        5.799      851.039
10/28/2013  21:03:00     -315.712      -70.289      -17.921      136.327      109.639       62.977    18585.038    12020.621     3966.139        6.975        1.729      323.442       62.408        0.037      335.232        5.727      851.061
10/28/2013  21:04:00     -300.970      -29.856      -11.135      146.460       91.693       71.107    21450.669     8407.611     5056.258        6.325        1.746      302.447       65.164        0.046      335.218        5.701      851.095
10/28/2013  21:05:00     -385.483     -122.509        1.283      248.727      149.180      110.100    61865.132    22254.780    12122.065       12.991        4.812      404.482      137.537        0.116      335.206        5.682      851.102
10/28/2013  21:06:00     -149.951      -92.768       27.116      242.866      137.043      108.559    58983.665    18780.690    11785.108        6.067        4.477      176.328      140.212        0.632      335.247        5.751      851.111
10/28/2013  21:07:00     -287.102      -14.432       -7.852      157.617      115.739       68.702    24842.990    13395.421     4720.033        6.282        2.148      287.464       80.295        0.078      335.177        5.635      851.175
10/28/2013  21:08:00     -346.541      -18.074      -16.127      142.757      113.969       65.799    20379.448    12988.921     4329.545        7.918        1.885      347.012       68.093        0.039      335.156        5.602      851.198
10/28/2013  21:09:00     -302.380     -114.839       -3.058      152.246      145.376       72.541    23178.864    21134.076     5262.263        7.709        2.479      323.452       68.134        0.044      335.168        5.620      851.195
10/28/2013  21:10:00     -419.676     -144.121      -22.546      148.935      122.540       62.805    22181.623    15016.165     3944.424       11.927        2.057      443.732       63.759        0.021      335.151        5.593      851.230
10/28/2013  21:11:00     -423.380      -64.707      -13.070      215.259      116.043       74.932    46336.299    13465.992     5614.847       12.450        3.271      428.296       93.577        0.048      335.128        5.555      851.226
10/28/2013  21:12:00     -436.437      -18.984      -19.113      184.154      148.500       84.897    33912.604    22052.350     7207.500       12.718        3.159      436.850       88.440        0.041      335.112        5.529      851.229
10/28/2013  21:13:00     -474.639      -93.505      -12.837      241.077      155.945       87.350    58117.941    24318.835     7630.086       16.211        4.503      483.762      115.613        0.057      335.121        5.543      851.222
10/28/2013  21:14:00     -400.485      -55.656      -27.470      172.238      113.787       73.456    29665.923    12947.530     5395.770       10.612        2.400      404.334       75.368        0.035      335.126        5.551      851.218
10/28/2013  21:15:00     -294.534     -143.600       -4.691      130.514      126.374       64.355    17034.015    15970.313     4141.564        7.226        1.857      327.675       64.035        0.038      335.149        5.589      851.264
10/28/2013  21:16:00     -179.915      -26.179       14.033      169.529      121.919       81.630    28740.008    14864.351     6663.471        4.175        2.513      181.809       94.020        0.267      335.176        5.636      851.254
10/28/2013  21:17:00     -207.054        3.874       -0.967      137.620      103.224       70.573    18939.148    10655.175     4980.592        3.873        1.729      207.091       81.746        0.156      335.164        5.616      851.269
10/28/2013  21:18:00     -265.004       -1.230       -5.848      142.476       87.316       57.760    20299.505     7624.144     3336.275        5.076        1.563      265.007       59.449        0.050      335.138        5.573      851.304
10/28/2013  21:19:00     -406.709      -85.246      -19.827      158.253      166.710       78.201    25044.104    27792.178     6115.463       11.600        2.948      415.546       80.862        0.038      335.108        5.522      851.288
10/28/2013  21:20:00     -466.824     -119.914      -22.857      202.769      145.456       79.695    41115.290    21157.511     6351.360       15.071        3.431      481.979       89.976        0.035      335.108        5.522      851.314
10/28/2013  21:21:00     -320.803      -75.241       -4.191      146.920      150.808       77.432    21585.554    22742.996     5995.696        7.945        2.516      329.509       84.824        0.066      335.122        5.545      851.310
10/28/2013  21:22:00     -546.613      -34.005      -29.276      189.262      174.371       74.396    35820.152    30405.272     5534.740       18.627        3.588      547.670       79.413        0.021      335.064        5.449      851.325
10/28/2013  21:23:00     -375.770      -87.597      -17.699      214.962      141.237       77.770    46208.767    19947.956     6048.102       11.069        3.610      385.845       92.502        0.057      335.073        5.464      851.324
10/28/2013  21:24:00     -420.483     -107.688      -19.035      184.783      133.789       76.341    34144.768    17899.491     5827.998       12.331        2.894      434.053       59.574        0.019      335.054        5.432      851.334
10/28/2013  21:25:00     -280.670      -78.880      -26.018      140.748      125.180       72.417    19809.893    15669.943     5244.285        6.319        2.036      291.543       74.337        0.065      335.060        5.441      851.349
10/28/2013  21:26:00     -284.810      -91.245      -11.469      158.559      128.499       68.557    25141.069    16511.986     4700.085        6.796        2.318      299.070       58.219        0.038      335.050        5.427      851.350
10/28/2013  21:27:00     -401.774      -92.654      -32.279      255.099      137.093       79.865    65075.682    18794.511     6378.450       13.063        4.512      412.319      108.989        0.070      335.025        5.384      851.359
10/28/2013  21:28:00     -346.239     -126.731      -26.382      177.791      120.093       64.034    31609.721    14422.345     4100.385        9.338        2.507      368.703       69.195        0.035      335.001        5.343      851.359
10/28/2013  21:29:00     -380.773     -112.483      -22.416      168.615      132.754       80.200    28431.110    17623.588     6432.093       10.531        2.624      397.039       90.872        0.052      334.992        5.331      851.347
10/28/2013  21:30:00     -284.933     -156.235        9.945      183.225      143.621       80.478    33571.381    20626.966     6476.745        8.318        3.034      324.956       90.985        0.078      335.031        5.395      851.343
10/28/2013  21:31:00     -419.738      -77.237      -28.702      177.749      175.769       78.588    31594.792    30894.649     6176.124       12.581        3.433      426.785       69.110        0.026      335.021        5.376      851.355
10/28/2013  21:32:00     -437.972       -4.928      -30.647      184.728      122.087       74.257    34124.358    14905.128     5514.081       12.365        2.727      438.000       87.916        0.040      335.020        5.375      851.372
10/28/2013  21:33:00     -386.020      -69.387       -0.726      229.359      143.473       88.303    52605.494    20584.420     7797.431       11.739        4.049      392.207      102.109        0.068      334.995        5.332      851.377
10/28/2013  21:34:00     -393.333      -59.497      -30.435      155.524      136.836       72.258    24187.835    18723.987     5221.167       10.365        2.407      397.807       77.501        0.038      335.003        5.347      851.392
10/28/2013  21:35:00     -326.168       -1.073      -10.410      116.255      108.857       66.876    13515.284    11849.936     4472.424        6.816        1.492      326.170       62.488        0.037      335.001        5.342      851.408
10/28/2013  21:36:00     -418.678      -72.590      -19.557      148.808       99.441       67.781    22143.787     9888.585     4594.217       10.878        1.831      424.925       68.843        0.026      334.978        5.305      851.428
10/28/2013  21:37:00     -350.457      -68.314      -12.152      168.461      105.697       66.150    28379.262    11171.834     4375.823        8.577        2.196      357.053       80.493        0.051      334.959        5.273      851.421
10/28/2013  21:38:00     -303.152      -93.718      -13.963      133.994       95.915       54.075    17954.401     9199.696     2924.122        6.547        1.504      317.308       55.253        0.030      334.958        5.271      851.449
10/28/2013  21:39:00     -286.277      -19.587      -30.507      114.385      113.115       49.568    13083.989    12794.980     2456.987        5.580        1.417      286.946       38.899        0.018      334.965        5.282      851.459
10/28/2013  21:40:00     -277.209      -11.658      -20.274      116.247       86.307       55.411    13513.311     7448.851     3070.384        5.071        1.202      277.454       61.357        0.049      334.937        5.238      851.481
10/28/2013  21:41:00     -312.284      -13.320      -17.695      126.048      141.464       66.653    15888.002    20012.080     4442.576        6.917        2.017      312.568       59.670        0.036      334.911        5.192      851.511
10/28/2013  21:42:00     -437.227      -93.012      -39.821      186.120      142.454       78.193    34640.505    20293.249     6114.119       13.122        3.052      447.011       72.696        0.026      334.903        5.179      851.529
10/28/2013  21:43:00     -271.464      -84.840       -4.540      117.653       99.958       53.154    13842.268     9991.672     2825.372        5.378        1.333      284.413       53.765        0.036      334.905        5.183      851.572
10/28/2013  21:44:00     -314.725      -18.054      -31.422      108.152      135.681       54.589    11696.852    18409.238     2980.000        6.672        1.654      315.242       53.547        0.029      334.929        5.222      851.586
10/28/2013  21:45:00     -477.202       11.420      -48.306      164.456      120.422       54.934    27045.894    14501.385     3017.691       13.737        2.228      477.338       63.801        0.018      334.925        5.215      851.611
10/28/2013  21:46:00     -182.547      -16.184        1.175      148.039      102.554       75.998    21915.614    10517.279     5775.691        3.589        1.910      183.263       82.186        0.201      334.947        5.254      851.625
10/28/2013  21:47:00     -161.548      -50.653      -17.144       73.578       78.018       51.994     5413.709     6086.836     2703.418        2.158        0.710      169.302       29.423        0.030      334.976        5.303      851.664
10/28/2013  21:48:00     -235.436      -66.460      -41.191       91.095       74.386       44.042     8298.249     5533.308     1939.739        3.865        0.789      244.637       31.834        0.017      334.950        5.259      851.696
10/28/2013  21:49:00     -201.045      -56.157       -3.618       94.133       78.041       47.320     8860.940     6090.415     2239.224        3.039        0.860      208.741       43.310        0.043      334.931        5.227      851.738
10/28/2013  21:50:00     -290.569      -46.342      -22.214      123.830       97.211       48.559    15333.917     9449.944     2357.952        5.710        1.357      294.241       45.134        0.024      334.959        5.272      851.755
10/28/2013  21:51:00     -381.850       -6.043      -39.243      150.331       80.694       50.147    22599.270     6511.448     2514.735        8.950        1.581      381.898       61.017        0.026      334.925        5.216      851.763
10/28/2013  21:52:00     -139.711      -22.281      -15.449       91.855       91.367       46.094     8437.377     8347.938     2124.654        1.958        0.945      141.477       41.964        0.088      334.939        5.242      851.779
10/28/2013  21:53:00     -267.665      -78.453       -0.087      169.451      132.322       64.446    28713.621    17508.994     4153.333        6.408        2.519      278.926       68.795        0.061      334.952        5.262      851.788
10/28/2013  21:54:00     -285.247     -165.178      -25.176      160.622      103.012       54.524    25799.292    10611.392     2972.818        7.433        1.969      329.620       40.594        0.015      334.960        5.276      851.784
10/28/2013  21:55:00     -159.736      -40.356      -20.075       89.545      110.815       51.621     8018.291    12280.013     2664.772        2.525        1.148      164.755       35.046        0.045      334.946        5.251      851.828
10/28/2013  21:56:00     -225.420      -23.686      -22.129       99.442      100.143       61.388     9888.661    10028.720     3768.433        3.777        1.184      226.661       52.708        0.054      334.941        5.242      851.832
10/28/2013  21:57:00     -241.289       11.016      -21.188      136.948       65.746       53.334    18754.659     4322.587     2844.495        4.235        1.296      241.541       55.273        0.052      334.929        5.224      851.833
10/28/2013  21:58:00     -121.492      -27.096       -9.983       93.658       50.179       42.706     8771.851     2517.922     1823.792        1.435        0.656      124.477       22.788        0.034      334.983        5.316      851.836
10/28/2013  21:59:00     -242.489        2.655      -33.106       86.982      128.205       47.047     7565.929    16436.585     2213.455        4.306        1.311      242.503       45.949        0.036      334.953        5.261      851.875
10/28/2013  22:00:00     -128.547      -46.839        3.976       95.994      102.182       54.707     9214.864    10441.116     2992.901        2.069        1.132      136.814       55.839        0.167      334.989        5.326      851.889
10/28/2013  22:01:00     -129.778      -11.872       -4.470      109.981       96.724       50.876    12095.742     9355.556     2588.358        2.052        1.202      130.320       50.790        0.152      335.016        5.370      851.914
10/28/2013  22:02:00     -144.070      -38.200      -14.317       82.972       75.132       45.459     6884.331     5644.783     2066.479        1.851        0.730      149.048       44.369        0.089      335.009        5.357      851.930
10/28/2013  22:03:00     -211.642       24.899      -24.438       92.344       93.605       47.941     8527.458     8761.881     2298.374        3.280        0.979      213.101       34.747        0.027      334.990        5.324      851.964
10/28/2013  22:04:00      -59.210       26.985       15.648       61.178       87.955       41.207     3742.759     7736.164     1697.979        0.883        0.659       65.069       33.981        0.273      335.032        5.397      852.014
10/28/2013  22:05:00     -120.384      105.105      -13.931       91.795       75.393       43.630     8426.319     5684.117     1903.535        2.087        0.801      159.811       36.325        0.052      335.046        5.420      852.033
10/28/2013  22:06:00     -153.574       89.423      -40.359       71.072       54.452       39.671     5051.236     2965.025     1573.824        2.140        0.480      177.711       33.083        0.035      335.021        5.379      852.061
10/28/2013  22:07:00     -115.511       25.482      -17.088       71.507       78.036       42.683     5113.255     6089.628     1821.829        1.365        0.651      118.289       24.682        0.044      335.021        5.379      852.094
10/28/2013  22:08:00     -194.964       91.740      -26.938      122.218      102.724       58.883    14937.134    10552.313     3467.266        3.805        1.448      215.469       68.084        0.100      335.007        5.353      852.118
10/28/2013  22:09:00     -191.781      120.749      -13.901      109.861       75.770       64.034    12069.352     5741.048     4100.389        3.673        1.096      226.628       46.189        0.042      335.013        5.364      852.152
10/28/2013  22:10:00     -187.784       93.020      -42.556       81.858       98.404       42.473     6700.775     9683.356     1803.924        3.195        0.909      209.560       35.007        0.028      334.999        5.340      852.179
10/28/2013  22:11:00     -153.370       63.929      -17.724       67.481      112.465       50.144     4553.707    12648.402     2514.398        2.382        0.986      166.161       50.129        0.091      335.018        5.373      852.181
10/28/2013  22:12:00     -184.564      165.820      -35.166      111.074      108.661       55.815    12337.470    11807.199     3115.275        4.502        1.363      248.113       49.156        0.039      335.054        5.431      852.193
10/28/2013  22:13:00     -150.363      193.108      -43.264       78.597       74.979       50.100     6177.509     5621.845     2510.042        3.804        0.715      244.744       41.238        0.028      335.080        5.475      852.221
10/28/2013  22:14:00     -145.270      202.039      -11.507       96.389       92.453       61.115     9290.890     8547.520     3734.999        4.181        1.079      248.843       57.876        0.054      335.084        5.480      852.238
10/28/2013  22:15:00      -51.119      221.507      -33.834       90.908       87.665       39.916     8264.316     7685.085     1593.298        3.518        0.877      227.329       45.326        0.040      335.035        5.400      852.251
10/28/2013  22:16:00     -110.835      283.819      -39.364      106.259       94.904       59.315    11290.985     9006.680     3518.287        5.910        1.191      304.693       59.024        0.038      334.909        5.190      852.248
10/28/2013  22:17:00      -47.492      277.335      -23.501       52.867       88.224       36.103     2794.930     7783.464     1303.409        4.580        0.594      281.372       41.114        0.021      334.832        5.061      852.253
10/28/2013  22:18:00      -66.122      296.858      -34.754       61.572       88.298       39.363     3791.149     7796.478     1549.440        5.342        0.657      304.133       25.655        0.007      334.835        5.066      852.243
10/28/2013  22:19:00     -109.850      191.352      -16.224       92.549      115.431       53.769     8565.375    13324.390     2891.090        3.686        1.239      220.641       42.353        0.037      334.884        5.150      852.232
10/28/2013  22:20:00      -93.857       88.086      -21.878       54.123       56.795       26.832     2929.252     3225.660      719.947        1.196        0.344      128.718       26.144        0.041      334.848        5.090      852.255
10/28/2013  22:21:00     -138.374       24.094       -9.457       91.628       94.862       35.730     8395.735     8998.803     1276.606        1.924        0.934      140.456       33.508        0.057      334.896        5.170      852.279
10/28/2013  22:22:00      -91.688      162.950       -9.171       66.472       71.334       45.028     4418.570     5088.601     2027.521        2.329        0.577      186.974       31.610        0.029      334.940        5.242      852.285
10/28/2013  22:23:00      -60.684       46.529       -0.379       65.110       49.507       30.696     4239.253     2450.969      942.223        0.674        0.382       76.469       20.257        0.070      334.932        5.231      852.298
10/28/2013  22:24:00      -70.916       88.359       -1.023       81.089      116.655       50.046     6575.433    13608.457     2504.555        1.776        1.134      113.297       38.642        0.116      334.968        5.290      852.287
10/28/2013  22:25:00     -169.242      116.448      -37.072      119.551      101.010       51.008    14292.363    10203.092     2601.866        3.533        1.355      205.434       53.189        0.067      334.997        5.337      852.287
10/28/2013  22:26:00     -165.988      259.759      -18.565      104.344      120.626       73.291    10887.744    14550.561     5371.574        6.309        1.540      308.264       70.682        0.053      335.009        5.357      852.305
10/28/2013  22:27:00     -123.779      128.711      -31.024       68.635       77.137       36.415     4710.824     5950.167     1326.018        2.242        0.599      178.571       41.021        0.053      334.967        5.288      852.328
10/28/2013  22:28:00      -28.588       76.378       -5.420       40.084      107.542       34.205     1606.714    11565.272     1170.016        1.051        0.717       81.553       31.139        0.146      334.984        5.318      852.334
10/28/2013  22:29:00     -108.220      158.697      -19.054       61.163       98.165       45.250     3740.964     9636.323     2047.567        2.634        0.771      192.084       36.311        0.036      334.831        5.060      852.343
10/28/2013  22:30:00      -91.936      244.985      -28.469       68.218       83.829       45.316     4653.644     7027.296     2053.559        4.151        0.687      261.668       41.524        0.025      334.790        4.991      852.352
10/28/2013  22:31:00     -104.256      223.296      -26.942       64.541       68.238       44.615     4165.588     4656.492     1990.516        3.613        0.541      246.436       41.040        0.028      334.782        4.979      852.355
10/28/2013  22:32:00      -66.259      168.561      -17.301       45.930       94.420       31.864     2109.563     8915.195     1015.288        2.257        0.602      181.116       34.075        0.035      334.803        5.014      852.369
10/28/2013  22:33:00      -78.205       59.434      -12.274       45.853       47.266       29.556     2102.509     2234.036      873.555        0.750        0.261       98.227       26.385        0.072      334.800        5.012      852.374
10/28/2013  22:34:00      -68.358       58.990      -18.695       57.057       51.875       29.739     3255.482     2691.047      884.383        0.767        0.342       90.292       21.984        0.059      334.805        5.019      852.393
10/28/2013  22:35:00     -111.895       79.673      -19.887       59.901       51.323       35.298     3588.083     2634.019     1245.927        1.336        0.373      137.362       19.272        0.020      334.777        4.972      852.401
10/28/2013  22:36:00     -126.214      132.530      -24.338       68.920       72.395       40.122     4749.915     5241.100     1609.772        2.284        0.580      183.014       41.000        0.050      334.724        4.882      852.429
10/28/2013  22:37:00      -62.472      200.108      -19.557       55.943       79.855       36.909     3129.658     6376.868     1362.248        2.760        0.543      209.633       35.828        0.029      334.770        4.958      852.426
10/28/2013  22:38:00      -66.307      111.891       -9.221       46.593       66.758       34.104     2170.900     4456.646     1163.081        1.239        0.390      130.062       33.979        0.068      334.864        5.119      852.429
10/28/2013  22:39:00      -89.420      137.896      -17.278       52.010       63.856       37.004     2705.072     4077.599     1369.297        1.773        0.408      164.351       26.529        0.026      334.823        5.048      852.440
10/28/2013  22:40:00      -68.948      154.267      -19.201       52.833       67.177       40.696     2791.310     4512.804     1656.127        1.894        0.448      168.973       33.424        0.039      334.908        5.189      852.452
10/28/2013  22:41:00      -96.406      155.516      -23.382       52.823       72.512       31.056     2790.238     5257.962      964.500        2.152        0.451      182.973       38.738        0.045      334.875        5.133      852.484
10/28/2013  22:42:00      -77.108      153.156      -18.467       58.083       69.500       32.488     3373.598     4830.262     1055.453        1.950        0.463      171.471       33.982        0.039      334.870        5.125      852.491
10/28/2013  22:43:00     -127.310      193.439      -31.784       58.672       62.027       41.627     3442.368     3847.331     1732.843        3.183        0.451      231.574       40.325        0.030      334.763        4.947      852.504
10/28/2013  22:44:00      -85.118       99.119       -8.891       59.477       93.784       39.558     3537.504     8795.483     1564.871        1.552        0.695      130.651       38.896        0.089      334.787        4.989      852.519
10/28/2013  22:45:00     -118.855       97.073      -29.123       55.729       86.977       27.812     3105.771     7564.944      773.485        1.792        0.572      153.459       38.678        0.064      334.720        4.878      852.536
10/28/2013  22:46:00     -119.314      160.308      -32.754       55.182       50.314       39.809     3045.010     2531.515     1584.737        2.408        0.358      199.836       34.552        0.030      334.712        4.862      852.553
10/28/2013  22:47:00     -117.378       71.849       -9.131       83.794       93.865       34.078     7021.474     8810.656     1161.318        1.801        0.850      137.622       34.815        0.064      334.727        4.886      852.561
10/28/2013  22:48:00     -135.995       50.764      -21.860       88.654       51.049       41.715     7859.553     2605.974     1740.180        1.688        0.610      145.161       44.110        0.092      334.732        4.898      852.566
10/28/2013  22:49:00      -75.249      132.395      -16.045       64.312       78.843       37.686     4136.027     6216.188     1420.264        1.761        0.589      152.286       40.665        0.071      334.758        4.941      852.575
10/28/2013  22:50:00     -146.142      213.908      -31.125       77.245       78.692       52.327     5966.798     6192.501     2738.145        4.149        0.745      259.064       50.382        0.038      334.724        4.882      852.564
10/28/2013  22:51:00     -152.945      209.469      -35.818       62.007       81.786       47.226     3844.860     6688.995     2230.342        4.066        0.638      259.363       39.924        0.024      334.667        4.786      852.572
10/28/2013  22:52:00     -161.518      205.347      -33.353       83.156      104.990       49.514     6914.963    11022.873     2451.665        4.488        1.019      261.257       30.934        0.014      334.648        4.756      852.580
10/28/2013  22:53:00     -130.120      140.080      -30.586       53.670       67.984       38.370     2880.495     4621.839     1472.219        2.323        0.449      191.190       38.542        0.041      334.672        4.796      852.579
10/28/2013  22:54:00     -150.232       56.993      -24.023       57.996       74.744       34.308     3363.516     5586.691     1177.045        1.826        0.506      160.679       23.794        0.022      334.705        4.851      852.569
10/28/2013  22:55:00     -126.476       13.597      -13.094       81.257      118.895       33.974     6602.641    14136.038     1154.207        1.912        1.095      127.204       24.539        0.037      334.741        4.911      852.559
10/28/2013  22:56:00     -139.356       90.003      -16.052       61.818       64.139       40.592     3821.506     4113.795     1647.722        1.868        0.479      165.894       34.246        0.043      334.697        4.838      852.571
10/28/2013  22:57:00     -134.843      125.273      -25.322       64.342       72.972       41.493     4139.928     5324.895     1721.669        2.285        0.559      184.054       42.342        0.053      334.696        4.836      852.585
10/28/2013  22:58:00     -160.852      171.314      -49.892       64.781       73.656       35.678     4196.614     5425.208     1272.940        3.430        0.545      234.993       30.725        0.017      334.682        4.811      852.601
10/28/2013  22:59:00     -154.330      122.003      -20.550       85.569       95.925       48.949     7321.971     9201.584     2395.963        2.902        0.946      196.729       52.458        0.071      334.695        4.836      852.597
10/28/2013  23:00:00      -98.754       87.143       -0.638       84.734       61.748       48.594     7179.767     3812.770     2361.383        1.535        0.668      131.705       51.498        0.153      334.735        4.901      852.589
10/28/2013  23:01:00      -87.551      226.720      -30.659       66.403      114.580       44.559     4409.339    13128.477     1985.523        3.976        0.976      243.037       51.886        0.046      334.772        4.962      852.588
10/28/2013  23:02:00      -77.760      207.057      -20.502       45.899      109.310       41.685     2106.761    11948.593     1737.647        3.256        0.790      221.177       44.876        0.041      334.782        4.981      852.594
10/28/2013  23:03:00      -60.572      160.193      -10.030       45.663       88.212       39.013     2085.150     7781.270     1522.051        2.041        0.569      171.262       33.768        0.039      334.776        4.970      852.603
10/28/2013  23:04:00     -107.764      187.845      -21.887       76.877       73.937       52.671     5910.089     5466.641     2774.269        3.076        0.708      216.561       48.621        0.050      334.720        4.876      852.603
10/28/2013  23:05:00     -138.170      225.127      -41.979       66.846       93.201       44.931     4468.372     8686.405     2018.770        4.335        0.759      264.146       47.435        0.032      334.717        4.871      852.599
10/28/2013  23:06:00     -122.154      173.265      -35.196       74.703       74.808       43.239     5580.589     5596.298     1869.586        2.961        0.652      211.996       38.888        0.034      334.725        4.884      852.616
10/28/2013  23:07:00      -92.990      133.505      -17.974       63.907       79.975       38.075     4084.162     6395.928     1449.740        1.936        0.596      162.699       35.215        0.047      334.765        4.952      852.621
10/28/2013  23:08:00     -172.710      197.551      -38.972       78.795       75.482       48.868     6208.626     5697.508     2388.118        4.233        0.715      262.402       42.836        0.027      334.707        4.853      852.640
10/28/2013  23:09:00     -157.069      127.900      -24.149       74.552       95.175       51.736     5558.075     9058.331     2676.605        2.945        0.865      202.557       42.729        0.044      334.721        4.876      852.656
10/28/2013  23:10:00     -125.299       91.252      -18.484      114.295       94.715       53.014    13063.449     8970.860     2810.534        2.460        1.242      155.006       63.097        0.166      334.720        4.876      852.666
10/28/2013  23:11:00      -89.941      142.657      -12.175       50.103       83.470       37.682     2510.288     6967.202     1419.948        1.974        0.545      168.643       25.295        0.022      334.744        4.915      852.690
10/28/2013  23:12:00     -148.806       94.643      -25.692       63.523       65.392       34.493     4035.120     4276.096     1189.784        2.063        0.475      176.353       25.045        0.020      334.679        4.808      852.721
10/28/2013  23:13:00     -143.689       49.813      -33.461       70.822       72.281       40.289     5015.789     5224.587     1623.176        1.805        0.593      152.078       39.788        0.068      334.670        4.794      852.735
10/28/2013  23:14:00      -53.832       28.601        0.921       30.589       30.091       25.524      935.710      905.458      651.458        0.310        0.125       60.958       13.766        0.051      334.735        4.903      852.744
10/28/2013  23:15:00      -72.965        6.252        0.324       46.563       34.897       22.216     2168.096     1217.769      493.565        0.462        0.194       73.233       14.451        0.039      334.737        4.909      852.753
10/28/2013  23:16:00      -59.632      -12.544        1.125       30.706       35.560       25.419      942.833     1264.505      646.109        0.328        0.143       60.937       18.436        0.092      334.789        4.992      852.753
10/28/2013  23:17:00      -48.066      -29.530        6.865       59.676       47.902       36.148     3561.217     2294.558     1306.671        0.519        0.358       56.413       34.896        0.383      334.780        4.978      852.750
10/28/2013  23:18:00      -34.246      -23.685       -2.077       71.681       34.899       30.232     5138.207     1217.934      913.945        0.450        0.364       41.639       28.822        0.479      334.768        4.957      852.744
10/28/2013  23:19:00      -22.953      -33.376        4.114       66.333       45.503       24.968     4400.080     2070.521      623.425        0.437        0.355       40.507       26.110        0.415      334.835        5.069      852.744
10/28/2013  23:20:00     -142.534       32.908      -17.622       63.576       46.886       31.803     4041.932     2198.272     1011.455        1.448        0.363      146.284       28.712        0.039      334.692        4.831      852.752
10/28/2013  23:21:00     -134.047      108.134      -22.238       54.218       76.131       39.010     2939.564     5795.863     1521.767        2.020        0.513      172.226       28.330        0.027      334.643        4.750      852.743
10/28/2013  23:22:00     -114.375       24.599      -13.834       49.672       34.371       30.469     2467.297     1181.377      928.344        0.923        0.229      116.991       25.484        0.047      334.644        4.750      852.735
10/28/2013  23:23:00      -31.395       29.383       18.883       45.990       22.423       23.037     2115.110      502.806      530.698        0.268        0.157       43.000       29.190        0.461      334.715        4.871      852.725
10/28/2013  23:24:00      -76.949       17.907      -15.399       43.851       37.022       26.036     1922.908     1370.604      677.884        0.522        0.199       79.005       20.415        0.067      334.771        4.962      852.718
10/28/2013  23:25:00      -12.531        1.064       -8.812       37.434       33.915       18.411     1401.293     1150.196      338.965        0.156        0.145       12.576        9.847        0.613      334.722        4.883      852.718
10/28/2013  23:26:00      -70.380      -23.132       -6.486       34.805       51.130       24.645     1211.412     2614.307      607.399        0.498        0.222       74.084       14.181        0.037      334.732        4.899      852.731
10/28/2013  23:27:00      -57.596       67.572      -10.164       36.280       66.244       32.561     1316.254     4388.329     1060.234        0.737        0.338       88.788       25.653        0.083      334.743        4.916      852.732
10/28/2013  23:28:00     -129.451       62.723      -19.688       68.868       48.101       28.655     4742.779     2313.717      821.117        1.448        0.394      143.846       35.296        0.060      334.722        4.879      852.741
10/28/2013  23:29:00      -78.451       11.515      -10.087       50.046       69.205       27.956     2504.636     4789.309      781.511        0.723        0.404       79.292       16.524        0.043      334.761        4.948      852.750
10/28/2013  23:30:00      -67.009       20.836       -8.845       43.622       33.826       26.051     1902.906     1144.196      678.660        0.436        0.186       70.173       18.058        0.066      334.759        4.944      852.765
10/28/2013  23:31:00      -66.417       12.804       -8.786       69.213       31.103       38.129     4790.422      967.387     1453.789        0.593        0.361       67.640       33.020        0.238      334.791        4.997      852.763
10/28/2013  23:32:00      -50.636       33.342       -7.610       37.931       46.290       24.514     1438.796     2142.782      600.937        0.396        0.209       60.627       23.304        0.148      334.791        4.997      852.748
10/28/2013  23:33:00      -76.151        3.755       -3.370       34.292       37.202       17.768     1175.949     1384.009      315.703        0.435        0.144       76.244       15.483        0.041      334.803        5.017      852.736
10/28/2013  23:34:00      -83.807       50.609      -18.347       37.035       42.740       23.618     1371.586     1826.719      557.812        0.684        0.188       97.902       18.542        0.036      334.802        5.015      852.746
10/28/2013  23:35:00      -88.674       48.215      -35.369       38.159       66.493       29.438     1456.122     4421.371      866.620        0.909        0.337      100.934       24.340        0.058      334.785        4.985      852.752
10/28/2013  23:36:00      -76.465       31.713      -13.546       35.569       42.884       28.840     1265.130     1839.063      831.747        0.549        0.197       82.781       17.707        0.046      334.820        5.046      852.764
10/28/2013  23:37:00      -66.170       71.037       -8.122       53.134       34.046       32.412     2823.175     1159.105     1050.557        0.726        0.252       97.081       33.593        0.120      334.804        5.018      852.755
10/28/2013  23:38:00      -67.238       78.218        6.375       51.145       62.279       40.326     2615.852     3878.725     1626.190        0.940        0.406      103.146       33.207        0.104      334.836        5.072      852.760
10/28/2013  23:39:00      -95.338        8.536       -1.812       55.541       37.212       30.430     3084.770     1384.744      925.985        0.728        0.270       95.719       23.660        0.061      334.813        5.034      852.767
10/28/2013  23:40:00      -51.995       53.426      -11.765       41.670       34.306       26.218     1736.365     1176.903      687.409        0.465        0.180       74.550       17.171        0.053      334.835        5.069      852.766
10/28/2013  23:41:00      -92.163       65.524      -16.561       44.713       61.156       29.596     1999.230     3740.018      875.924        0.984        0.331      113.082       31.360        0.077      334.840        5.078      852.761
10/28/2013  23:42:00      -91.265       87.782      -15.307       47.730       47.472       29.177     2278.109     2253.556      851.325        1.083        0.269      126.629       34.453        0.074      334.851        5.096      852.766
10/28/2013  23:43:00      -96.724      114.259      -20.455       57.403       70.024       40.116     3295.089     4903.353     1609.323        1.632        0.490      149.701       29.164        0.038      334.839        5.075      852.752
10/28/2013  23:44:00      -78.505        9.059       -8.773       45.900       83.316       25.813     2106.828     6941.575      666.311        0.802        0.486       79.026       28.406        0.129      334.926        5.218      852.756
10/28/2013  23:45:00      -32.417      104.434        3.459       52.656      105.852       33.173     2772.635    11204.545     1100.441        1.352        0.754      109.349       44.874        0.168      334.911        5.193      852.737
10/28/2013  23:46:00      -34.669      177.062      -14.148       52.674       65.280       32.718     2774.537     4261.432     1070.498        2.043        0.405      180.424       35.885        0.040      334.935        5.236      852.729
10/28/2013  23:47:00      -30.205      149.087      -11.102       40.022       70.783       30.825     1601.769     5010.219      950.196        1.541        0.378      152.116       31.839        0.044      334.969        5.292      852.733
10/28/2013  23:48:00      -11.890      185.185      -21.252       43.899       54.280       26.683     1927.093     2946.282      711.987        2.024        0.279      185.567       25.768        0.019      334.868        5.122      852.743
10/28/2013  23:49:00      -16.799      196.812      -25.372       30.338       35.995       24.199      920.412     1295.616      585.571        2.123        0.140      197.528       17.383        0.008      334.848        5.089      852.757
10/28/2013  23:50:00      -33.712      110.768      -12.391       52.807       44.397       32.636     2788.571     1971.071     1065.130        0.969        0.291      115.784       23.573        0.041      334.927        5.222      852.785
10/28/2013  23:51:00      -85.256      118.926       -6.175       67.607       73.588       38.776     4570.678     5415.150     1503.583        1.647        0.574      146.328       38.900        0.071      334.934        5.233      852.812
10/28/2013  23:52:00     -159.532       87.924      -17.901       93.654       67.506       50.444     8771.119     4557.008     2544.548        2.468        0.794      182.156       50.153        0.076      334.858        5.105      852.821
10/28/2013  23:53:00     -151.173      179.042      -37.406       64.323       62.374       35.074     4137.442     3890.484     1230.213        3.278        0.463      234.327       35.852        0.023      334.836        5.067      852.829
10/28/2013  23:54:00     -130.199      204.699      -40.170       77.749       54.050       38.130     6044.952     2921.414     1453.904        3.544        0.521      242.597       35.208        0.021      334.842        5.077      852.842
10/28/2013  23:55:00      -54.290      228.714       -6.484       50.427       69.594       42.425     2542.847     4843.370     1799.841        3.224        0.459      235.069       41.571        0.031      334.840        5.075      852.846
10/28/2013  23:56:00     -126.671      219.444      -30.441       63.530       75.229       36.224     4036.066     5659.391     1312.183        3.807        0.550      253.380       32.429        0.016      334.822        5.045      852.849
10/28/2013  23:57:00     -107.446      200.196      -35.176       68.608       86.636       36.710     4707.108     7505.869     1347.605        3.321        0.678      227.207       50.133        0.049      334.824        5.048      852.849
10/28/2013  23:58:00      -55.978      177.857      -16.416       46.336       53.247       31.613     2147.003     2835.192      999.384        2.051        0.299      186.458       24.331        0.017      334.786        4.986      852.835
10/28/2013  23:59:00      -69.380       69.289       -1.093       52.563      104.575       30.684     2762.867    10935.858      941.508        1.213        0.732       98.054       18.102        0.034      334.891        5.164      852.820
